[[{"header":{"parameterUnit":"m.s-1","parameterCategory":1,"la1":30.6,"la2":29.2853,"lo1":-89.7004,"lo2":-87.6739,"dy":0.0162,"dx":0.0183,"nx":112,"ny":82,"refTime":"2024-03-16T18:00:00:Z","depth":0,"parameterNumber":2,"parameterNumberName":"U-component_of_WINDS"},"data":[0.0,0.0,0.0,0.0,0.0,0.0,0.0,0.0,0.0,0.0,0.0,0.0,0.0,0.0,0.0,0.0,0.0,0.0,0.0,0.0,0.0,0.0,0.0,0.0,0.0,0.0,0.0,0.0,0.0,0.0,0.0,0.0,0.0,0.0,0.0,0.0,0.0,0.0,0.0,0.0,0.0,0.0,0.0,0.0,0.0,0.0,0.0,0.0,0.0,0.0,0.0,0.0,0.0,0.0,0.0,0.0,0.0,0.0,0.0,0.0,0.0,0.0,0.0,0.0,0.0,0.0,0.0,0.0,0.0,0.0,0.0,0.0,0.0,0.0,0.0,0.0,0.0,0.0,0.0,0.0,0.0,0.0,0.0,0.0,0.0,0.0,0.0,0.0,0.0,0.0,-3.1866,-3.2325,-3.255,-3.2589,-3.2405,-3.2574,-3.1917,-3.021,0.0,0.0,0.0,0.0,0.0,0.0,0.0,0.0,0.0,0.0,0.0,0.0,0.0,0.0,0.0,0.0,0.0,0.0,0.0,0.0,0.0,0.0,0.0,0.0,0.0,0.0,0.0,0.0,0.0,0.0,0.0,0.0,0.0,0.0,0.0,0.0,0.0,0.0,0.0,0.0,0.0,0.0,0.0,0.0,0.0,0.0,0.0,0.0,0.0,0.0,0.0,0.0,0.0,0.0,0.0,0.0,0.0,0.0,0.0,0.0,0.0,0.0,0.0,0.0,0.0,0.0,0.0,0.0,0.0,0.0,0.0,0.0,0.0,0.0,0.0,0.0,0.0,0.0,0.0,0.0,0.0,0.0,0.0,0.0,0.0,0.0,0.0,0.0,0.0,0.0,0.0,0.0,0.0,0.0,0.0,0.0,0.0,0.0,0.0,0.0,0.0,0.0,0.0,0.0,-3.1332,-3.2509,-3.2518,-3.244,-3.2388,-3.2422,-3.1755,-3.0211,0.0,0.0,0.0,0.0,0.0,0.0,0.0,0.0,0.0,0.0,0.0,0.0,0.0,0.0,0.0,0.0,0.0,0.0,0.0,0.0,0.0,0.0,0.0,0.0,0.0,0.0,0.0,0.0,0.0,0.0,0.0,0.0,0.0,0.0,0.0,0.0,0.0,0.0,0.0,0.0,0.0,0.0,0.0,0.0,0.0,0.0,0.0,0.0,0.0,0.0,0.0,0.0,0.0,0.0,0.0,0.0,0.0,0.0,0.0,0.0,0.0,0.0,0.0,0.0,0.0,0.0,0.0,0.0,0.0,0.0,0.0,0.0,0.0,0.0,0.0,0.0,0.0,0.0,0.0,0.0,0.0,0.0,0.0,0.0,0.0,0.0,0.0,0.0,0.0,0.0,0.0,0.0,0.0,0.0,0.0,0.0,0.0,0.0,0.0,0.0,0.0,0.0,0.0,-3.1183,-3.1535,-3.245,-3.2439,-3.2406,-3.2406,-3.2406,-3.1739,-3.0195,-3.0182,0.0,0.0,0.0,0.0,0.0,0.0,0.0,0.0,0.0,0.0,0.0,0.0,0.0,0.0,0.0,0.0,0.0,0.0,0.0,0.0,0.0,0.0,0.0,0.0,0.0,0.0,0.0,0.0,0.0,0.0,0.0,0.0,0.0,0.0,0.0,0.0,0.0,0.0,0.0,0.0,0.0,0.0,0.0,0.0,0.0,0.0,0.0,0.0,0.0,0.0,0.0,0.0,0.0,0.0,0.0,0.0,0.0,0.0,0.0,0.0,0.0,0.0,0.0,0.0,0.0,0.0,0.0,0.0,0.0,0.0,0.0,0.0,0.0,0.0,0.0,0.0,0.0,0.0,0.0,0.0,0.0,0.0,0.0,0.0,0.0,0.0,0.0,0.0,0.0,0.0,0.0,0.0,0.0,0.0,0.0,0.0,0.0,0.0,0.0,0.0,0.0,0.0,-3.1445,-3.1937,-3.2353,-3.2406,-3.2406,-3.2406,-3.223,-3.1545,-3.0194,-2.993,0.0,0.0,0.0,0.0,0.0,0.0,0.0,0.0,0.0,0.0,0.0,0.0,0.0,0.0,0.0,0.0,0.0,0.0,0.0,0.0,0.0,0.0,0.0,0.0,0.0,0.0,0.0,0.0,0.0,0.0,0.0,0.0,0.0,0.0,0.0,0.0,0.0,0.0,0.0,0.0,0.0,0.0,0.0,0.0,0.0,0.0,0.0,0.0,0.0,0.0,0.0,0.0,0.0,0.0,0.0,0.0,0.0,0.0,0.0,0.0,0.0,0.0,0.0,0.0,0.0,0.0,0.0,0.0,0.0,0.0,0.0,0.0,0.0,0.0,0.0,0.0,0.0,0.0,0.0,0.0,0.0,0.0,0.0,0.0,0.0,0.0,0.0,0.0,0.0,0.0,0.0,0.0,0.0,0.0,0.0,0.0,0.0,0.0,0.0,0.0,0.0,0.0,-3.1457,-3.2353,-3.2388,-3.2406,-3.2406,-3.2406,-3.1703,-3.0949,-3.0159,-2.9404,0.0,0.0,0.0,0.0,0.0,0.0,0.0,0.0,0.0,0.0,0.0,0.0,0.0,0.0,0.0,0.0,0.0,0.0,0.0,0.0,0.0,0.0,0.0,0.0,0.0,0.0,0.0,0.0,0.0,0.0,0.0,0.0,0.0,0.0,0.0,0.0,0.0,0.0,0.0,0.0,0.0,0.0,0.0,0.0,0.0,0.0,0.0,0.0,0.0,0.0,0.0,0.0,0.0,0.0,0.0,0.0,0.0,0.0,0.0,0.0,0.0,0.0,0.0,0.0,0.0,0.0,0.0,0.0,0.0,0.0,0.0,0.0,0.0,0.0,0.0,0.0,0.0,0.0,0.0,0.0,0.0,0.0,0.0,0.0,0.0,0.0,0.0,0.0,0.0,0.0,0.0,0.0,0.0,0.0,0.0,0.0,0.0,0.0,0.0,0.0,0.0,0.0,-3.1001,-3.1844,-3.2353,-3.2406,-3.2406,-3.2406,-3.2125,-3.1423,-3.0194,0.0,0.0,0.0,0.0,0.0,0.0,0.0,0.0,0.0,0.0,0.0,0.0,0.0,0.0,0.0,0.0,0.0,0.0,0.0,0.0,0.0,0.0,0.0,0.0,0.0,0.0,0.0,0.0,0.0,0.0,0.0,0.0,0.0,0.0,0.0,0.0,0.0,0.0,0.0,0.0,0.0,0.0,0.0,0.0,0.0,0.0,0.0,0.0,0.0,0.0,0.0,0.0,0.0,0.0,0.0,0.0,0.0,0.0,0.0,0.0,0.0,0.0,0.0,0.0,0.0,0.0,0.0,0.0,0.0,0.0,0.0,0.0,0.0,0.0,0.0,0.0,0.0,0.0,0.0,0.0,0.0,0.0,0.0,0.0,0.0,0.0,0.0,0.0,0.0,0.0,0.0,0.0,0.0,0.0,0.0,0.0,0.0,0.0,0.0,0.0,0.0,0.0,-3.0036,-3.0966,-3.1791,-3.2335,-3.2406,-3.2406,-3.2406,-3.216,-3.1475,-3.0194,0.0,0.0,0.0,0.0,0.0,0.0,0.0,0.0,0.0,0.0,0.0,0.0,0.0,0.0,0.0,0.0,0.0,0.0,0.0,0.0,0.0,0.0,0.0,0.0,0.0,0.0,0.0,0.0,0.0,0.0,0.0,0.0,0.0,0.0,0.0,0.0,0.0,0.0,0.0,0.0,0.0,0.0,0.0,0.0,0.0,0.0,0.0,0.0,0.0,0.0,0.0,0.0,0.0,0.0,0.0,0.0,0.0,0.0,0.0,0.0,0.0,0.0,0.0,0.0,0.0,0.0,0.0,0.0,0.0,0.0,0.0,0.0,0.0,0.0,0.0,0.0,0.0,0.0,0.0,0.0,0.0,0.0,0.0,0.0,0.0,0.0,0.0,0.0,0.0,0.0,0.0,0.0,0.0,0.0,0.0,0.0,0.0,0.0,0.0,0.0,0.0,0.0,-3.0106,-3.1458,-3.2406,-3.2406,-3.2406,-3.2406,-3.2406,-3.1668,-3.0896,0.0,0.0,0.0,0.0,0.0,0.0,0.0,0.0,0.0,0.0,0.0,0.0,0.0,0.0,0.0,0.0,0.0,0.0,0.0,0.0,0.0,0.0,0.0,0.0,0.0,0.0,0.0,0.0,0.0,0.0,0.0,0.0,0.0,0.0,0.0,0.0,0.0,0.0,0.0,0.0,0.0,0.0,0.0,0.0,0.0,0.0,0.0,0.0,0.0,0.0,0.0,0.0,0.0,0.0,0.0,0.0,0.0,0.0,0.0,0.0,0.0,0.0,0.0,0.0,0.0,0.0,0.0,0.0,0.0,0.0,0.0,0.0,0.0,0.0,0.0,0.0,0.0,0.0,0.0,0.0,0.0,0.0,0.0,0.0,0.0,0.0,0.0,0.0,0.0,0.0,0.0,0.0,0.0,0.0,0.0,0.0,0.0,0.0,0.0,0.0,0.0,0.0,0.0,-3.0036,-3.1458,-3.2406,-3.2406,-3.2406,-3.2406,-3.2406,-3.2177,-3.1493,-3.0194,0.0,0.0,0.0,0.0,0.0,0.0,0.0,0.0,0.0,0.0,0.0,0.0,0.0,0.0,0.0,0.0,0.0,0.0,0.0,0.0,0.0,0.0,0.0,0.0,0.0,0.0,0.0,0.0,0.0,0.0,0.0,0.0,0.0,0.0,0.0,0.0,0.0,0.0,0.0,0.0,0.0,0.0,0.0,0.0,0.0,0.0,0.0,0.0,0.0,0.0,0.0,0.0,0.0,0.0,0.0,0.0,0.0,0.0,0.0,0.0,0.0,0.0,0.0,0.0,0.0,0.0,0.0,0.0,0.0,0.0,0.0,0.0,0.0,0.0,0.0,0.0,0.0,0.0,0.0,0.0,0.0,0.0,0.0,0.0,0.0,0.0,0.0,0.0,0.0,0.0,0.0,0.0,0.0,0.0,0.0,0.0,0.0,0.0,0.0,0.0,0.0,0.0,-3.0001,-3.1458,-3.2406,-3.2406,-3.2406,-3.2406,-3.2406,-3.2406,-3.1739,-3.0195,0.0,0.0,0.0,0.0,0.0,0.0,0.0,0.0,0.0,0.0,0.0,0.0,0.0,0.0,0.0,0.0,0.0,0.0,0.0,0.0,0.0,0.0,0.0,0.0,0.0,0.0,0.0,0.0,0.0,0.0,0.0,0.0,0.0,0.0,0.0,0.0,0.0,0.0,0.0,0.0,0.0,0.0,0.0,0.0,0.0,0.0,0.0,0.0,0.0,0.0,0.0,0.0,0.0,0.0,0.0,0.0,0.0,0.0,0.0,0.0,0.0,0.0,0.0,0.0,0.0,0.0,0.0,0.0,0.0,0.0,0.0,0.0,0.0,0.0,0.0,0.0,0.0,0.0,0.0,0.0,0.0,0.0,0.0,0.0,0.0,0.0,0.0,0.0,0.0,0.0,0.0,0.0,0.0,0.0,0.0,0.0,0.0,0.0,0.0,0.0,0.0,0.0,-3.0001,-3.1458,-3.2406,-3.2406,-3.2406,-3.2406,-3.2406,-3.2406,-3.1739,-3.0195,0.0,0.0,0.0,0.0,0.0,0.0,0.0,0.0,0.0,0.0,0.0,0.0,0.0,0.0,0.0,0.0,0.0,0.0,0.0,0.0,0.0,0.0,0.0,0.0,0.0,0.0,0.0,0.0,0.0,0.0,0.0,0.0,0.0,0.0,0.0,0.0,0.0,0.0,0.0,0.0,0.0,0.0,0.0,0.0,0.0,0.0,0.0,0.0,0.0,0.0,0.0,0.0,0.0,0.0,0.0,0.0,0.0,0.0,0.0,0.0,-3.1424,-3.0326,0.0,0.0,0.0,0.0,0.0,0.0,0.0,0.0,0.0,0.0,0.0,0.0,0.0,0.0,0.0,0.0,0.0,0.0,0.0,0.0,0.0,0.0,0.0,0.0,0.0,0.0,0.0,0.0,0.0,0.0,0.0,0.0,0.0,0.0,0.0,0.0,0.0,0.0,0.0,0.0,-2.993,-3.1458,-3.2406,-3.2406,-3.2406,-3.2406,-3.2406,-3.2406,-3.1739,-3.0195,-2.9176,0.0,0.0,0.0,0.0,0.0,0.0,0.0,0.0,0.0,0.0,0.0,0.0,0.0,0.0,0.0,0.0,0.0,0.0,0.0,0.0,0.0,0.0,0.0,0.0,0.0,0.0,0.0,0.0,0.0,0.0,0.0,0.0,0.0,0.0,0.0,0.0,0.0,0.0,0.0,0.0,0.0,0.0,0.0,0.0,0.0,0.0,0.0,0.0,0.0,0.0,0.0,0.0,0.0,0.0,0.0,0.0,0.0,0.0,0.0,-3.228,-3.1593,0.0,0.0,0.0,0.0,0.0,0.0,0.0,0.0,0.0,0.0,0.0,0.0,0.0,0.0,0.0,0.0,0.0,0.0,0.0,0.0,0.0,0.0,0.0,0.0,0.0,0.0,0.0,0.0,0.0,0.0,0.0,0.0,0.0,0.0,0.0,0.0,0.0,0.0,0.0,0.0,-2.9948,-3.1458,-3.2406,-3.2406,-3.2406,-3.2406,-3.2406,-3.2406,-3.1739,-3.0195,-2.9351,0.0,0.0,0.0,0.0,0.0,0.0,0.0,0.0,0.0,0.0,0.0,0.0,0.0,0.0,0.0,0.0,0.0,0.0,0.0,0.0,0.0,0.0,0.0,0.0,0.0,0.0,0.0,0.0,0.0,0.0,0.0,0.0,0.0,0.0,0.0,0.0,0.0,0.0,0.0,0.0,0.0,0.0,0.0,0.0,0.0,0.0,0.0,0.0,0.0,0.0,0.0,0.0,0.0,-3.3945,-3.3945,-3.3945,-3.3945,-3.4322,-3.4873,-3.3487,-3.3381,-3.409,-3.2684,0.0,0.0,0.0,0.0,0.0,0.0,0.0,0.0,0.0,0.0,0.0,0.0,0.0,0.0,0.0,0.0,0.0,0.0,0.0,0.0,0.0,0.0,-3.0116,-3.0116,-3.0136,-3.0277,-3.0769,0.0,0.0,0.0,0.0,0.0,0.0,0.0,0.0,0.0,0.0,0.0,-3.0176,-3.1405,-3.2195,-3.2195,-3.2072,-3.2002,-3.2002,-3.2002,-3.1405,-2.9983,-2.9263,-2.828,0.0,0.0,0.0,0.0,0.0,0.0,0.0,0.0,0.0,0.0,0.0,0.0,0.0,0.0,0.0,0.0,0.0,0.0,0.0,0.0,0.0,0.0,0.0,0.0,0.0,0.0,0.0,0.0,0.0,0.0,0.0,0.0,-3.3959,-3.3296,0.0,0.0,0.0,0.0,0.0,0.0,0.0,0.0,0.0,0.0,0.0,0.0,0.0,-3.5885,-3.7343,-3.7362,-3.7362,-3.7362,-3.7362,-3.7362,-3.7362,-3.7362,-3.7413,-3.7502,-3.7278,0.0,-3.418,-3.3829,0.0,0.0,0.0,0.0,0.0,0.0,0.0,0.0,0.0,0.0,0.0,0.0,0.0,0.0,0.0,0.0,0.0,0.0,0.0,0.0,0.0,0.0,-3.2544,-3.2544,-3.2635,-3.2523,-3.182,-3.0312,-2.877,-2.7775,-2.7363,-2.6901,0.0,0.0,0.0,0.0,0.0,0.0,-3.0861,-3.123,-3.1352,-3.1352,-3.0791,-3.0388,-3.0388,-3.0388,-3.0018,-2.9123,-2.8965,-2.8509,-2.7596,-2.6841,0.0,0.0,0.0,0.0,0.0,0.0,0.0,0.0,0.0,0.0,0.0,0.0,0.0,0.0,0.0,0.0,0.0,0.0,0.0,0.0,0.0,0.0,0.0,0.0,0.0,0.0,0.0,0.0,0.0,-3.2696,-3.3659,-3.2774,-3.3097,-3.2866,0.0,0.0,0.0,0.0,0.0,0.0,0.0,0.0,0.0,-3.6374,-3.6357,-3.7093,-3.8707,-3.8719,-3.895,-3.9419,-3.9419,-3.9419,-3.9419,-3.9419,-3.9161,-3.8719,-3.8719,-3.7815,-3.6257,-3.5266,-3.4371,-3.3451,0.0,0.0,0.0,0.0,-2.9821,-2.9879,-3.1046,-3.1359,-3.1325,-3.1709,0.0,0.0,0.0,0.0,0.0,0.0,0.0,-3.0168,-3.0884,-3.1628,-3.2235,-3.2305,-3.2167,-3.1979,-3.1823,-3.0556,-2.9259,-2.8524,-2.8543,-2.8348,-2.7366,-2.7121,0.0,0.0,0.0,-2.9141,-2.9825,-3.0299,-3.058,-3.058,-3.0299,-3.0106,-3.0106,-3.0106,-2.9772,-2.8947,-2.8895,-2.8544,-2.7736,-2.6999,-2.6184,0.0,0.0,0.0,0.0,0.0,0.0,0.0,0.0,0.0,0.0,0.0,0.0,0.0,0.0,0.0,0.0,0.0,0.0,0.0,0.0,0.0,0.0,0.0,0.0,0.0,0.0,0.0,0.0,-3.3044,-3.35,-3.2846,-3.3525,-3.3568,0.0,0.0,0.0,0.0,0.0,0.0,-3.5996,-3.6348,-3.7074,-3.8268,-3.8175,-3.8801,-4.0265,-4.0258,-4.0573,-4.117,-4.117,-4.117,-4.117,-4.117,-4.0843,-4.0258,-4.0258,-3.9777,-3.8834,-3.6923,-3.5945,-3.5476,-3.3537,-3.2416,-3.1879,-3.1909,-3.1704,-3.1572,-3.2739,-3.3112,-3.3134,-3.3632,-3.3526,-3.307,-3.2183,0.0,0.0,0.0,0.0,-3.1075,-3.1288,-3.1751,-3.2189,-3.2292,-3.1906,-3.161,-3.1935,-3.0992,-2.9928,-2.9476,-2.9532,-2.9348,-2.8419,-2.8224,0.0,-2.8026,-2.8526,-2.8983,-2.9176,-2.9544,-2.9774,-2.9774,-2.9614,-2.9492,-2.9492,-2.9492,-2.9228,-2.8631,-2.8596,-2.8315,-2.7719,-2.7174,-2.6511,-2.5717,0.0,0.0,0.0,0.0,0.0,0.0,0.0,0.0,0.0,0.0,0.0,0.0,0.0,0.0,0.0,0.0,0.0,0.0,0.0,0.0,0.0,0.0,0.0,0.0,0.0,0.0,0.0,0.0,0.0,-3.4566,-3.5347,0.0,0.0,0.0,0.0,-3.6989,-3.6347,-3.7012,-3.9512,-3.8768,-3.9371,-4.1766,-4.1704,-4.2046,-4.2893,-4.2912,-4.2931,-4.297,-4.297,-4.297,-4.297,-4.297,-4.2951,-4.2912,-4.2912,-4.2412,-4.1404,-3.8911,-3.7385,-3.6601,-3.6351,-3.5111,-3.359,-3.4396,-3.3851,-3.2841,-3.38,-3.3963,-3.3765,-3.3788,-3.2844,-3.1826,-3.2521,-3.1651,0.0,0.0,-3.2662,-3.2828,-3.3461,-3.3655,-3.3692,-3.3692,-3.32,-3.2686,-3.2585,-3.1515,-3.0541,-3.0438,-2.9769,-2.9074,-2.8566,0.0,-2.8492,-2.878,-2.8877,-2.9176,-2.9948,-2.9404,-2.8965,-2.8965,-2.828,-2.7824,-2.7824,-2.7824,-2.7789,-2.7754,-2.7754,-2.7736,-2.7701,-2.7648,-2.7297,-2.6546,-2.5628,0.0,0.0,0.0,0.0,0.0,0.0,0.0,0.0,0.0,0.0,0.0,0.0,0.0,0.0,0.0,0.0,0.0,0.0,0.0,0.0,0.0,0.0,0.0,0.0,0.0,0.0,0.0,0.0,-3.4774,-3.5951,0.0,-3.6833,-3.734,-3.8025,-3.8906,-3.9687,-4.0527,-4.1465,-4.1573,-4.2015,-4.2918,-4.2763,-4.3054,-4.3855,-4.3874,-4.4143,-4.471,-4.471,-4.471,-4.471,-4.471,-4.4393,-4.3874,-4.3874,-4.3393,-4.2566,-4.1662,-4.0123,-3.8315,-3.7701,-3.69,-3.6131,-3.6261,-3.5886,-3.5335,-3.5489,-3.5496,-3.5312,-3.4747,-3.3857,-3.3083,-3.3359,-3.3072,-3.2735,-3.3298,-3.345,-3.3493,-3.3747,-3.3807,-3.3807,-3.3807,-3.3419,-3.3117,-3.3326,-3.2415,-3.1546,-3.1473,-3.0454,-2.954,-2.9414,-2.9029,-2.8721,-2.8701,-2.838,-2.8228,-2.8526,-2.8315,-2.8122,-2.8122,-2.7877,-2.7701,-2.7701,-2.7701,-2.7701,-2.7701,-2.7701,-2.7701,-2.7701,-2.7701,-2.735,-2.6616,-2.6276,-2.5408,0.0,0.0,0.0,0.0,0.0,0.0,0.0,0.0,0.0,0.0,0.0,0.0,0.0,0.0,0.0,0.0,0.0,0.0,0.0,0.0,0.0,0.0,0.0,0.0,0.0,-3.4698,-3.5982,-3.6004,-3.7554,-3.8729,-3.8983,-3.9803,-4.0566,-4.1133,-4.2207,-4.2969,-4.3262,-4.3621,-4.3953,-4.4225,-4.4051,-4.4201,-4.472,-4.4739,-4.5037,-4.5594,-4.5594,-4.5594,-4.5594,-4.5594,-4.5287,-4.4739,-4.4739,-4.4259,-4.3508,-4.3508,-4.2354,-4.0489,-3.9623,-3.8747,-3.7937,-3.7642,-3.7181,-3.6669,-3.6394,-3.6303,-3.6193,-3.5642,-3.5092,-3.4633,-3.4633,-3.4633,-3.4633,-3.4633,-3.4633,-3.4633,-3.4633,-3.4633,-3.4578,-3.4284,-3.4012,-3.3778,-3.3619,-3.2879,-3.2173,-3.1961,-3.0985,-3.0119,-2.9913,-2.9495,-2.9134,-2.8929,-2.8396,-2.7997,-2.7997,-2.7829,-2.7701,-2.7701,-2.7701,-2.7701,-2.7701,-2.7701,-2.7701,-2.7701,-2.7701,-2.7701,-2.7701,-2.7701,-2.7473,-2.6981,-2.6721,-2.5823,-2.4243,0.0,0.0,0.0,0.0,0.0,0.0,0.0,0.0,0.0,0.0,0.0,0.0,0.0,0.0,0.0,0.0,0.0,0.0,0.0,0.0,0.0,0.0,0.0,-3.4733,-3.5454,-3.6719,-3.8471,-4.0214,-4.1582,-4.2402,-4.3242,-4.375,-4.3789,-4.3789,-4.4141,-4.5,-4.4852,-4.5101,-4.5879,-4.5701,-4.5603,-4.5594,-4.5594,-4.5594,-4.5594,-4.5594,-4.5594,-4.5594,-4.5594,-4.5594,-4.5594,-4.5594,-4.5133,-4.4335,-4.4335,-4.3874,-4.3047,-4.2181,-4.0663,-3.8937,-3.862,-3.776,-3.6745,-3.6463,-3.6358,-3.634,-3.634,-3.6321,-3.6303,-3.6303,-3.6303,-3.6303,-3.6303,-3.6303,-3.6303,-3.6303,-3.6303,-3.6083,-3.5243,-3.5023,-3.4686,-3.352,-3.2874,-3.2401,-3.1933,-3.1351,-3.0718,-2.9972,-2.9825,-2.9742,-2.9558,-2.9019,0.0,-2.8628,-2.8124,-2.7756,-2.7756,-2.7756,-2.7756,-2.7756,-2.7756,-2.7756,-2.7756,-2.7756,-2.7756,-2.7756,-2.7756,-2.7756,-2.7756,-2.7023,-2.6098,-2.4986,0.0,0.0,0.0,0.0,0.0,0.0,0.0,0.0,0.0,0.0,0.0,0.0,0.0,0.0,0.0,0.0,0.0,0.0,0.0,0.0,0.0,-3.4661,-3.553,-3.5533,-3.7875,-3.9818,-4.0409,-4.1973,-4.3359,-4.4199,-4.4492,-4.4902,-4.5547,-4.5586,-4.5683,-4.5937,-4.5792,-4.5761,-4.5903,-4.5802,-4.5692,-4.5594,-4.5594,-4.5594,-4.5594,-4.5594,-4.5594,-4.5594,-4.5594,-4.5594,-4.5594,-4.5594,-4.546,-4.5248,-4.5248,-4.4739,-4.3893,-4.3066,-4.1881,-4.0625,-4.0537,-3.9641,-3.8407,-3.8125,-3.7661,-3.718,-3.718,-3.6795,-3.6303,-3.6303,-3.6303,-3.6303,-3.6303,-3.6303,-3.6303,-3.6303,-3.6303,-3.6229,-3.6009,-3.5463,-3.4921,-3.4585,-3.3956,-3.3225,-3.245,-3.2162,-3.1797,-3.0963,-3.0445,-3.0139,-3.0084,-2.9609,-2.9247,-2.9247,-2.9124,-2.9003,-2.9003,-2.9003,-2.9003,-2.9003,-2.9003,-2.9003,-2.9003,-2.9003,-2.9003,-2.9003,-2.9003,-2.9003,-2.9003,-2.8144,-2.7449,0.0,0.0,0.0,0.0,0.0,0.0,0.0,0.0,0.0,0.0,0.0,0.0,0.0,0.0,0.0,0.0,0.0,0.0,0.0,0.0,0.0,0.0,-3.6565,-3.7668,-3.7879,-3.9663,-4.1395,-4.2567,-4.3612,-4.459,-4.5469,-4.5547,-4.5742,-4.6269,-4.6308,-4.6308,-4.6308,-4.6174,-4.6053,-4.5988,-4.5859,-4.5768,-4.5677,-4.5618,-4.5594,-4.5594,-4.5594,-4.5594,-4.5594,-4.5594,-4.5594,-4.5594,-4.5594,-4.5594,-4.5594,-4.5594,-4.5306,-4.4759,0.0,0.0,0.0,0.0,-4.0457,-3.9269,-3.8961,-3.8555,-3.8153,-3.8033,-3.7679,-3.7312,-3.7312,-3.7312,-3.7312,-3.7312,-3.7312,-3.7312,-3.7312,-3.7312,-3.7221,-3.6886,-3.6156,-3.5402,-3.486,-3.412,-3.3346,-3.2632,-3.235,0.0,-3.1545,-3.1031,-3.0683,-3.0683,-3.0202,-2.9848,-2.9848,-2.9626,-2.9489,-2.9489,-2.9489,-2.9489,-2.9489,-2.9489,0.0,0.0,0.0,-2.9489,-2.9489,-2.9489,0.0,0.0,0.0,-2.8596,-2.8458,-2.7962,0.0,0.0,-2.546,-2.4742,0.0,0.0,0.0,0.0,0.0,0.0,0.0,0.0,0.0,0.0,0.0,0.0,0.0,0.0,0.0,0.0,-3.9046,-4.0749,-4.1055,-4.1223,-4.2185,-4.4519,-4.5012,-4.5449,-4.6211,-4.6308,-4.6308,-4.6308,-4.6308,-4.6308,-4.6308,-4.6198,0.0,0.0,0.0,-4.5821,-4.5803,-4.5688,-4.562,-4.5594,-4.5594,-4.5594,-4.5594,-4.5594,-4.5594,-4.5594,-4.5594,-4.5594,-4.5594,-4.5594,-4.5594,-4.5518,-4.4643,-4.3855,-4.3099,-4.1887,-4.0739,-3.9743,-3.9375,0.0,0.0,-3.8788,-3.8707,-3.8707,-3.8707,-3.8707,-3.8707,-3.8707,-3.8707,-3.8707,-3.8707,-3.8707,-3.8524,-3.7823,-3.7033,-3.6106,-3.4888,-3.3979,-3.3229,-3.2682,-3.2196,-3.1897,-3.1897,-3.1488,-3.119,-3.119,-3.0749,-3.0401,-3.0401,-2.9983,-2.9695,-2.9695,-2.9695,0.0,-2.9695,-2.9695,-2.9695,-2.9695,-2.9695,-2.9695,-2.9695,-2.9695,-2.9695,-2.9695,-2.9695,-2.9695,-2.9695,-2.9695,-2.9627,-2.944,-2.6746,-2.5197,0.0,0.0,0.0,0.0,0.0,0.0,0.0,0.0,0.0,0.0,0.0,0.0,0.0,0.0,0.0,-3.8623,-4.0354,-4.2035,-4.3412,-4.3724,-4.405,-4.4729,-4.554,-4.6113,-4.6289,-4.6308,-4.6308,-4.6308,-4.6308,-4.6308,-4.6308,-4.6288,-4.6202,-4.6091,-4.6064,-4.5955,-4.5803,-4.5763,-4.5708,-4.5594,-4.5594,0.0,-4.5594,-4.5594,-4.5594,-4.5594,-4.5594,-4.5594,-4.5594,-4.5594,-4.5594,-4.5518,-4.4643,-4.4201,-4.3925,-4.2776,-4.1768,-4.0902,-4.0339,-3.9703,-3.9063,-3.8788,-3.8707,-3.8707,-3.8707,-3.8707,0.0,-3.8707,-3.8707,-3.8707,-3.8707,-3.8707,-3.867,-3.8505,-3.7845,-3.7022,-3.6124,-3.5253,-3.4335,-3.3262,-3.2697,-3.2349,-3.2349,-3.1731,-3.119,-3.119,-3.1111,-3.1029,-3.1029,-3.0949,-3.0883,-3.0883,-3.0883,-3.0883,-3.0883,-3.0883,-3.0883,-3.0883,-3.0883,-3.0883,-3.0883,-3.0883,-3.0883,-3.0883,-3.0883,-3.0883,-3.0883,-3.0883,-3.0606,-3.0087,-2.8561,-2.7777,0.0,0.0,0.0,0.0,0.0,0.0,0.0,0.0,0.0,0.0,0.0,-3.4576,-3.6339,0.0,-3.9162,-4.0931,-4.2239,-4.3335,-4.4182,-4.4795,-4.519,-4.5335,-4.5843,-4.6224,-4.6289,-4.6308,-4.6308,-4.6308,-4.6308,-4.6308,-4.6308,-4.6308,-4.6268,-4.6201,-4.6122,-4.6056,-4.5942,-4.5844,-4.5775,-4.57,-4.5627,-4.5594,-4.5594,-4.5594,-4.5594,-4.5594,-4.5594,-4.5594,-4.5594,-4.5594,-4.5594,-4.5556,-4.5133,-4.4682,-4.4231,-4.3655,-4.2928,-4.2135,-4.1666,-4.0828,-3.9951,-3.9649,-3.9165,-3.8707,-3.8707,-3.8707,-3.8707,-3.8707,-3.8707,-3.8707,-3.8707,-3.8707,-3.8707,-3.8707,-3.8098,-3.7382,-3.6997,-3.5899,-3.482,-3.4229,-3.3421,-3.2777,-3.2534,-3.195,-3.1507,-3.1507,-3.1507,-3.143,-3.123,-3.119,-3.119,-3.119,-3.119,-3.119,-3.119,-3.119,-3.119,-3.119,-3.119,-3.119,-3.119,-3.119,-3.119,-3.119,-3.119,-3.119,-3.119,-3.119,-3.1055,-3.074,-2.9814,-2.9076,0.0,0.0,0.0,0.0,0.0,0.0,0.0,0.0,-3.3253,-3.4499,-3.5025,-3.6109,-3.8933,-3.9871,-4.0886,-4.2981,-4.4008,-4.4547,-4.4547,-4.5241,-4.5796,-4.5867,-4.6018,-4.6145,-4.6247,-4.6289,-4.6308,-4.6308,-4.6308,-4.6308,-4.6308,-4.6308,-4.6308,-4.6308,-4.6199,-4.6138,-4.6108,-4.5948,-4.5846,-4.5796,-4.5685,-4.5637,-4.5594,-4.5594,-4.5594,-4.5594,-4.5594,-4.5594,-4.5594,-4.5594,-4.5594,-4.5594,-4.5594,-4.5171,-4.4547,-4.4547,-4.4047,-4.3291,-4.2967,-4.2107,-4.1084,-4.0739,-3.9859,-3.8927,-3.8927,-3.8817,-3.8707,-3.8707,-3.8707,-3.8707,-3.8707,-3.8707,-3.8707,-3.8707,-3.8193,-3.7694,-3.7529,-3.6321,-3.5206,-3.5041,-3.4026,-3.3105,-3.2809,-3.2366,-3.1969,-3.1733,-3.1678,-3.1565,-3.1232,-3.119,-3.119,-3.119,-3.119,-3.119,-3.119,-3.119,-3.119,-3.119,-3.119,-3.119,-3.119,-3.119,-3.119,-3.119,-3.119,-3.119,-3.119,-3.119,-3.119,-3.119,-3.058,-2.9717,-3.2133,-3.2263,-3.2441,-3.2498,-3.2295,-3.2482,0.0,0.0,-3.5504,-3.7137,-3.8696,-3.9896,-4.0269,-4.2192,-4.3827,-4.4124,-4.4902,-4.546,-4.546,-4.5554,-4.5673,-4.5809,-4.5979,-4.611,-4.6117,-4.6225,-4.6308,-4.6308,-4.6308,-4.6308,-4.6308,-4.6308,-4.6308,-4.6308,-4.6289,-4.6223,-4.6108,-4.6075,-4.599,-4.5803,-4.5783,-4.5723,-4.5594,-4.5594,-4.5594,-4.5594,-4.5594,-4.5594,-4.5594,-4.5594,-4.5594,-4.5594,-4.5594,-4.5537,-4.546,-4.546,-4.4921,-4.4137,-4.3857,-4.297,-4.1908,-4.1581,-4.0678,-3.9772,-3.9772,-3.9276,-3.8707,-3.8707,-3.8707,-3.8707,-3.8707,-3.8707,-3.8707,-3.8707,-3.8634,-3.8377,-3.7658,-3.678,-3.5936,-3.5151,-3.4026,-3.3302,-3.3606,-3.3299,-3.2648,-3.1447,-3.1271,-3.1252,-3.121,-3.119,-3.119,-3.119,-3.119,-3.119,-3.119,-3.119,-3.119,-3.119,-3.119,-3.119,-3.119,-3.119,-3.119,-3.119,-3.119,-3.119,-3.119,-3.119,-3.119,-3.119,-3.058,-2.9935,-3.3058,-3.3271,-3.3311,-3.3311,-3.3691,-3.43,-3.516,-3.6046,-3.7081,-3.8428,-3.9665,-4.0804,-4.1835,-4.3258,-4.447,0.0,-4.5364,-4.5594,-4.5594,-4.5594,-4.5629,-4.568,-4.5826,-4.5963,-4.6082,-4.6147,-4.6222,-4.6289,-4.6308,-4.6308,-4.6308,-4.6308,-4.6308,-4.6308,-4.6308,-4.6269,-4.6223,-4.6144,-4.6061,-4.5967,-4.5896,-4.582,-4.5723,-4.5723,-4.5673,-4.5594,-4.5594,-4.5594,-4.5594,-4.5594,-4.5594,-4.5594,-4.5594,-4.5594,-4.5594,-4.5594,-4.5364,-4.5038,-4.4929,-4.3969,-4.2775,-4.2628,-4.1686,-4.0506,-4.0029,-3.9662,-3.9294,-3.8836,-3.8707,-3.8707,-3.8707,-3.8707,-3.8707,-3.8707,-3.8707,-3.8615,-3.8267,-3.7584,-3.6758,-3.5917,-3.4946,-3.4069,-3.3538,-3.3302,-3.2921,-3.2092,-3.2196,-3.2179,-3.1621,-3.1564,-3.1451,-3.123,-3.119,-3.119,-3.119,-3.119,-3.119,-3.119,-3.119,-3.119,-3.119,-3.119,-3.119,-3.119,-3.119,-3.119,-3.119,-3.119,-3.119,-3.119,-3.0938,-3.0497,-3.33,-3.3597,0.0,-3.4082,-3.4814,-3.5675,-3.6306,-3.7211,-3.8238,-3.9292,-4.043,-4.1604,-4.2874,-4.3951,-4.4874,-4.5498,-4.5594,-4.5594,-4.5594,-4.5594,-4.5594,-4.5594,-4.5696,-4.5828,-4.5994,-4.6069,-4.6144,-4.6246,-4.6289,-4.6308,-4.6308,-4.6308,-4.6308,-4.6308,-4.6308,-4.6308,-4.6308,-4.6201,-4.6144,-4.6108,-4.5998,-4.5905,-4.5826,-4.5803,-4.5737,-4.5594,-4.5594,-4.5594,-4.5594,-4.5594,-4.5594,-4.5594,-4.5594,-4.5594,-4.5594,-4.5594,-4.5594,-4.5594,-4.5594,-4.4812,-4.3798,-4.3798,-4.2791,-4.1454,-4.088,-4.0341,-3.9772,-3.9184,-3.8872,-3.8707,-3.8707,-3.8707,-3.8707,-3.8707,-3.8707,-3.8707,-3.8707,-3.8065,-3.7327,-3.6725,-3.5752,-3.4718,-3.3858,-3.3506,-3.3258,-3.2903,-3.3151,-3.3027,-3.2109,-3.1986,-3.1825,-3.1411,-3.137,-3.1312,-3.121,-3.119,-3.119,-3.119,-3.119,-3.119,-3.119,-3.119,-3.119,-3.119,-3.119,-3.119,-3.119,-3.119,-3.1089,-3.0903,-3.1106,-3.0858,-3.2675,-3.3108,-3.399,-3.4766,-3.5232,-3.5913,-3.7485,-3.832,-3.9023,-3.99,-4.1644,-4.3047,-4.3085,-4.4451,-4.5575,-4.5594,-4.5594,-4.5594,-4.5594,-4.5594,-4.5594,-4.5594,-4.5594,-4.5657,0.0,-4.5998,-4.611,-4.611,-4.6224,-4.6308,-4.6308,-4.6308,-4.6308,-4.6308,-4.6308,-4.6308,-4.6308,-4.6308,-4.6225,-4.6108,-4.6106,-4.6011,-4.589,-4.5832,-4.5737,-4.5594,-4.5594,-4.5594,-4.5594,-4.5594,-4.5594,-4.5594,-4.5594,-4.5594,-4.5594,-4.5594,-4.5594,-4.5594,-4.5594,-4.5362,-4.5047,-4.5047,-4.4008,-4.2746,-4.2727,-4.1385,-3.9882,-3.9863,-3.9294,-3.8707,-3.8707,-3.8707,-3.8707,-3.8707,-3.8707,-3.8707,-3.8707,-3.8065,-3.7492,-3.7474,-3.6138,-3.499,-3.4954,-3.4293,-3.3793,-3.3762,-3.3762,-3.3462,-3.2599,-3.2484,-3.2316,-3.1843,-3.1789,-3.1623,-3.123,-3.119,-3.119,-3.119,-3.119,-3.119,-3.119,-3.119,-3.119,-3.119,-3.119,-3.119,-3.119,-3.119,-3.0835,-3.014,-3.0869,-3.0818,-3.3909,-3.4371,-3.4802,-3.5661,-3.6485,-3.723,-3.777,-3.881,-3.9748,-4.0043,-4.1168,-4.2089,-4.2089,-4.3499,-4.4679,-4.4679,-4.5194,-4.5594,-4.5594,-4.5594,-4.5594,-4.5594,-4.5594,0.0,0.0,0.0,-4.5966,-4.6084,-4.6145,-4.6201,-4.6308,-4.6308,-4.6308,-4.6308,-4.6308,-4.6308,-4.6308,-4.6308,-4.6289,-4.6225,-4.6145,-4.608,-4.6033,-4.5914,-4.5813,-4.5725,-4.5725,-4.5688,-4.5594,-4.5594,-4.5594,-4.5594,-4.5594,-4.5594,-4.5594,-4.5594,-4.5594,-4.5594,-4.5594,-4.539,-4.5096,-4.5096,-4.4604,-4.3834,-4.3038,-4.1983,-4.0874,-4.0105,-3.9313,-3.8707,-3.8707,-3.8707,-3.8707,-3.8707,-3.8707,-3.8707,-3.8707,-3.8487,-3.8138,-3.7603,-3.6597,-3.5665,-3.5096,-3.4325,-3.3807,-3.3807,-3.3564,-3.3302,-3.2999,-3.2697,-3.2451,-3.2282,-3.2004,-3.1734,-3.1621,-3.1351,-3.119,-3.119,-3.0734,-3.048,-3.048,-2.9989,-2.9738,-2.9738,-2.9738,-2.9738,-2.9738,-2.9738,-2.9854,-3.0125,-3.0362,-3.0598,-3.4293,-3.4976,-3.5665,-3.6523,-3.7257,-3.7853,-3.8247,-3.9145,-3.9962,-4.0081,-4.0662,-4.1259,-4.1547,-4.2763,-4.3847,-4.4153,-4.4994,-4.5594,-4.5594,-4.5594,-4.5594,-4.5594,-4.5594,-4.5594,0.0,0.0,0.0,-4.5971,-4.6061,-4.6144,-4.6224,-4.6269,-4.6308,-4.6308,-4.6308,-4.6308,-4.6308,-4.6308,-4.6308,-4.6308,-4.6203,-4.6145,-4.6108,-4.6001,-4.5918,-4.5825,-4.5809,-4.5754,-4.5665,-4.5629,-4.5594,-4.5594,-4.5594,-4.5594,-4.5594,-4.5594,-4.5594,-4.5594,-4.5594,-4.5448,-4.5292,-4.5292,-4.5044,-4.4638,-4.3854,-4.2956,-4.1973,-4.0841,-3.9944,-3.9217,-3.8811,-3.8707,-3.8707,-3.8707,-3.8707,-3.8707,-3.8707,-3.8707,-3.856,-3.8028,-3.729,-3.645,-3.561,-3.4541,-3.3807,-3.3807,-3.3578,-3.3404,-3.3404,-3.3151,-3.2903,-3.2761,-3.2483,-3.2161,-3.1843,-3.1565,-3.1351,-3.121,-3.0768,-3.0378,-3.0106,-2.9634,-2.9281,-2.901,-2.9264,-2.9381,-2.9381,-2.967,-2.9888,-3.0125,-3.0378,-3.0615,-3.4004,-3.5062,-3.6541,-3.7364,-3.7566,-3.7834,-3.8855,-3.9346,-3.9656,-3.9992,-4.0186,-4.0524,0.0,0.0,-4.3032,-4.3914,-4.4898,-4.5556,-4.5594,-4.5594,-4.5594,0.0,0.0,0.0,0.0,0.0,0.0,-4.5776,-4.5967,-4.6082,-4.6108,-4.6223,-4.6289,-4.6308,-4.6308,-4.6308,-4.6308,-4.6308,-4.6308,-4.6308,-4.6308,-4.6226,-4.6113,-4.6113,-4.6039,-4.5903,-4.5836,-4.5803,-4.5803,-4.5665,-4.5612,-4.5612,-4.5594,-4.5594,-4.5594,-4.5594,-4.5594,-4.5594,-4.5594,-4.5594,-4.5594,-4.5594,-4.5371,-4.5118,-4.5096,-4.4269,-4.3095,-4.195,-4.105,-4.0184,-3.9039,-3.875,-3.8735,-3.8719,-3.8719,-3.8719,-3.8707,-3.8707,-3.8707,-3.8707,-3.8046,-3.7235,-3.6376,-3.4908,-3.3844,-3.3807,-3.3807,-3.3807,-3.3807,-3.3807,-3.3648,-3.3273,-3.3214,-3.284,-3.1951,-3.1861,-3.166,-3.1269,-3.1235,-3.0876,-3.0142,-3.0076,-2.9738,-2.901,-2.9685,-3.004,-3.0057,-3.0751,-3.0751,-3.0125,-3.0818,-3.0784,-3.6043,-3.6839,-3.7401,-3.8193,-3.8395,-3.8462,-3.8752,-3.9013,-3.9251,-3.9327,-3.9039,-3.8869,-3.9214,0.0,0.0,-4.204,-4.3548,0.0,-4.5518,-4.5594,0.0,-4.5594,0.0,-4.5594,-4.5594,-4.5594,0.0,-4.5651,-4.579,-4.5948,-4.6084,-4.6122,-4.62,-4.6308,-4.6308,-4.6308,-4.6308,-4.6308,-4.6308,-4.6308,-4.6308,-4.6289,-4.6247,-4.6247,-4.6174,-4.6045,-4.6024,-4.5975,-4.5862,-4.5783,-4.5747,-4.5733,-4.5643,-4.5594,-4.5594,-4.5594,-4.5594,-4.5594,-4.5594,-4.5594,-4.5594,-4.5594,-4.5531,-4.5429,-4.518,-4.4473,-4.3498,-4.2322,-4.1387,-4.0565,-3.9608,-3.9377,-3.9314,-3.9068,-3.8999,-3.8933,-3.8732,-3.8707,-3.8707,-3.8707,-3.8046,-3.7052,-3.5573,-3.4986,-3.4491,-3.3899,-3.3807,-3.3807,-3.3807,-3.3807,-3.3762,-3.3666,-3.3375,-3.3105,-3.2856,-3.2516,-3.2127,-3.1678,-3.1446,-3.0977,-3.0127,-2.9863,-2.9505,-2.901,-2.9179,-2.9281,-2.9281,-2.9467,-2.9736,-3.0108,-3.0275,-3.0581,-3.7019,-3.7768,-3.8165,-3.8729,-3.8884,-3.8835,-3.8618,-3.8669,-3.8596,-3.7896,-3.7418,-3.7175,-3.7294,-3.8447,-3.9827,0.0,0.0,0.0,-4.547,-4.5594,-4.5594,0.0,-4.5932,0.0,-4.6163,-4.649,-4.6701,-4.6701,-4.6136,-4.5844,-4.5955,-4.6059,-4.6122,-4.6202,-4.6268,-4.6308,-4.6308,-4.6308,-4.6308,-4.6308,-4.6308,-4.6308,-4.6308,-4.6308,-4.6268,-4.6177,-4.6138,-4.6069,-4.5981,-4.5886,-4.5826,-4.579,-4.5723,-4.564,-4.5594,-4.5594,-4.5594,-4.5594,-4.5594,-4.5594,-4.5594,-4.5594,-4.5594,-4.5568,-4.539,-4.5007,-4.4316,-4.2764,-4.2003,-4.1302,-3.9782,-3.9377,-3.9308,-3.9004,-3.8919,-3.8884,-3.8735,-3.8707,-3.8707,-3.8707,-3.8046,-3.7088,-3.5775,-3.5261,-3.4729,-3.3917,-3.3807,-3.3807,-3.3807,-3.3807,-3.3807,-3.3807,-3.3592,-3.339,-3.3214,-3.2968,-3.2616,-3.2127,-3.1775,-3.122,-3.0393,-3.0001,-2.9553,-2.901,-2.9331,-2.9482,-2.9482,-2.9822,-3.0176,-3.0581,-3.0581,-3.0801,-3.7437,-3.8175,-3.8762,-3.9036,-3.9112,-3.8968,-3.8458,-3.8245,-3.7736,-3.6179,-3.5592,-3.5421,-3.5559,-3.702,-3.8788,-4.0579,0.0,-4.4182,-4.5288,-4.5441,-4.5479,-4.5594,-4.6278,-4.6778,-4.6885,-4.7528,-4.799,-4.8086,-4.6858,-4.606,-4.5951,-4.6013,-4.6072,-4.6108,-4.6225,-4.6308,-4.6308,-4.6308,-4.6308,-4.6308,-4.6308,-4.6308,-4.6308,-4.6308,-4.6308,-4.6289,-4.6175,-4.614,-4.6115,-4.5985,-4.5881,-4.5846,-4.5821,-4.5747,-4.5637,-4.5637,-4.562,-4.5594,-4.5594,-4.5594,-4.5594,-4.5594,-4.5594,-4.5594,-4.5594,-4.5594,-4.5185,-4.3216,-4.2679,-4.2129,-3.9876,-3.9302,-3.9218,-3.8902,-3.8822,-3.8792,-3.8723,-3.8707,-3.8707,-3.8707,-3.8138,-3.7401,-3.6597,-3.5752,-3.4894,-3.4082,-3.3862,-3.3807,-3.3807,-3.3807,-3.3807,-3.3807,-3.3807,-3.3666,-3.3302,-3.3273,-3.3075,-3.2616,-3.2213,-3.1637,-3.089,-3.0512,-3.0014,-2.9314,-2.9922,-3.026,-3.026,-3.0886,-3.119,-3.119,-3.119,-3.119,-3.8267,-3.8597,-3.8762,-3.9036,-3.9112,-3.8902,-3.8165,-3.748,0.0,-3.5423,-3.4107,-3.3407,-3.4247,-3.5291,-3.6727,-3.8809,-4.0644,-4.2432,-4.4271,-4.4528,-4.4778,0.0,-4.5729,-4.6105,-4.6827,-4.7019,0.0,-4.8048,-4.7853,-4.7436,-4.6821,-4.6196,-4.5935,-4.6087,-4.6225,-4.6308,-4.6308,-4.6308,-4.6308,-4.6308,-4.6308,-4.6308,-4.6308,-4.6308,-4.6308,-4.6308,-4.6288,-4.6268,-4.6248,-4.6117,-4.6067,-4.6047,-4.5927,-4.5822,-4.5775,-4.5775,-4.5712,-4.5594,-4.5594,-4.5594,-4.5594,-4.5594,-4.5594,-4.5594,-4.5594,-4.5594,-4.524,-4.3504,-4.3015,-4.2595,-4.0752,-4.0266,-4.0119,-3.9576,-3.9432,-3.932,-3.8807,-3.8707,-3.8707,-3.8707,-3.8597,-3.823,-3.7437,-3.6615,-3.5789,-3.4931,-3.4215,-3.3807,-3.3807,-3.3807,-3.3807,-3.3807,-3.3807,-3.3762,-3.3707,-3.3694,-3.3522,-3.3105,-3.3014,-3.2561,-3.1652,-3.1544,-3.1288,-3.0838,-3.0937,-3.1004,-3.1004,-3.114,-3.119,-3.119,-3.119,-3.119,-3.8487,-3.8707,-3.8822,-3.9244,-3.9225,-3.8829,-3.7764,0.0,0.0,-3.3537,-3.2504,-3.212,-3.2606,-3.4198,0.0,-3.7605,-3.9758,-4.179,-4.3345,-4.3983,-4.4624,-4.5498,-4.599,-4.6432,-4.6846,-4.7278,-4.7875,-4.8702,-4.8355,-4.7958,-4.7598,-4.6837,-4.6327,-4.6106,-4.6152,-4.6225,-4.6308,-4.6308,-4.6308,-4.6308,-4.6308,-4.6308,-4.6308,-4.6308,-4.6308,-4.6308,-4.6308,-4.6308,-4.6308,-4.6225,-4.6152,-4.6087,-4.6033,-4.5939,-4.5859,-4.5815,-4.5761,-4.5685,-4.5618,-4.5594,-4.5594,-4.5594,-4.5594,-4.5594,-4.5594,-4.5594,-4.5248,-4.3566,-4.3104,-4.2676,-4.0771,-4.0285,-4.0167,-3.9712,-3.9481,-3.9223,-3.8792,-3.8707,-3.8707,-3.8707,-3.8707,-3.8432,-3.7639,-3.718,-3.6486,-3.5188,-3.4674,-3.427,-3.3844,-3.3807,-3.3807,-3.3807,-3.3807,-3.3807,-3.3807,-3.3807,-3.3721,-3.3522,-3.3317,-3.2999,-3.2549,-3.2298,-3.195,-3.1526,-3.1507,-3.1411,-3.119,-3.119,-3.119,-3.119,-3.119,-3.119,-3.8487,-3.8732,-3.8898,-3.9371,-3.9339,-3.8796,-3.7201,-3.6013,0.0,-3.171,-3.0999,-3.0944,-3.1121,-3.3148,-3.5194,0.0,-3.8809,-4.1037,-4.2449,-4.3429,-4.4395,0.0,-4.6201,0.0,-4.6885,-4.7471,0.0,-4.9067,-4.849,-4.8029,-4.7855,-4.7133,-4.6527,-4.606,-4.6075,-4.6147,-4.6267,-4.6289,-4.6308,-4.6308,-4.6308,-4.6308,-4.6308,-4.6308,-4.6308,-4.6308,-4.6308,-4.6308,-4.6308,-4.6308,-4.6246,-4.6145,-4.6145,-4.605,-4.5944,-4.5885,-4.584,-4.5783,-4.5688,-4.5618,-4.5594,-4.5594,-4.5594,-4.5594,-4.5594,-4.5594,-4.5248,-4.3566,-4.3104,-4.264,-4.0691,-4.0186,-4.0101,-3.9786,-3.9438,-3.9157,-3.8927,-3.8888,-3.8888,-3.8888,-3.8833,-3.8586,-3.7941,-3.7662,-3.7052,-3.572,-3.5224,-3.4766,-3.4137,-3.3917,-3.3807,-3.3807,-3.3807,-3.3807,-3.3807,-3.3807,-3.3807,-3.3807,-3.3419,-3.3199,-3.3199,-3.2745,-3.2333,-3.1968,-3.1861,-3.1641,-3.1332,-3.1232,-3.119,-3.119,-3.119,-3.119,-3.8487,-3.8884,-3.9072,-3.9139,-3.9352,-3.8865,-3.6257,0.0,-3.3625,-3.0882,-2.9721,-2.9445,-3.0173,-3.1709,-3.329,-3.4599,0.0,-3.9255,-4.1502,-4.2504,-4.3672,-4.5393,0.0,0.0,-4.6808,-4.6962,-4.7355,-4.8163,-4.8144,-4.7778,-4.7038,-4.631,-4.5874,-4.5828,-4.5997,-4.611,-4.6117,-4.6246,-4.6308,-4.6308,-4.6308,-4.6308,-4.6308,-4.6308,-4.6308,-4.6308,-4.6308,-4.6308,-4.6308,-4.6308,-4.6289,-4.6289,-4.6289,-4.62,-4.608,-4.6075,-4.5966,-4.5796,-4.5783,-4.57,-4.5594,-4.5594,-4.5594,-4.5594,-4.5594,-4.5594,-4.5248,-4.3566,-4.3104,-4.2701,-4.0915,-4.0465,-4.0389,-4.0129,-3.9797,-3.9552,-3.9517,-3.9517,-3.9517,-3.9517,-3.9269,-3.9039,-3.8965,-3.8149,-3.7456,-3.729,-3.5973,-3.4968,-3.4912,-3.4252,-3.3807,-3.3807,-3.3807,-3.3807,-3.3807,-3.3807,-3.3807,-3.3807,-3.3419,-3.3199,-3.3199,-3.2745,-3.2484,-3.2434,-3.2021,-3.1789,-3.1734,-3.1389,-3.119,-3.119,-3.119,-3.119,-3.7768,-3.8524,-3.9152,-3.9339,-3.8996,-3.809,-3.6235,0.0,-3.2693,-3.0631,-2.9555,-2.9244,-3.0063,-3.1127,-3.2244,-3.3394,0.0,0.0,-4.031,-4.1541,-4.3038,-4.5336,-4.5594,0.0,0.0,0.0,-4.6471,-4.7317,-4.7394,-4.724,-4.6923,-4.6615,-4.6256,-4.5815,-4.5883,-4.5938,-4.5981,-4.6115,-4.6175,-4.6175,-4.6268,-4.6308,-4.6308,-4.6308,-4.6308,-4.6308,-4.6308,-4.6308,-4.6308,-4.6308,-4.6308,-4.6308,-4.6308,-4.6268,-4.6202,-4.612,-4.6056,-4.5963,-4.5891,-4.5822,-4.5776,-4.5728,-4.573,-4.5708,-4.5618,-4.5594,-4.5344,-4.4162,-4.347,-4.2816,-4.1604,-4.0893,-4.0422,-4.0158,-4.0002,-3.9859,-3.9645,-3.9599,-3.9599,-3.9599,-3.9486,-3.9389,-3.9389,-3.8878,-3.8299,-3.7817,-3.6625,-3.5591,-3.5078,-3.4289,-3.3807,-3.3807,-3.3807,-3.3807,-3.3807,-3.3807,-3.3807,-3.3807,-3.3652,-3.3564,-3.3564,-3.339,-3.3166,-3.2937,-3.2745,-3.25,-3.2213,-3.177,-3.1547,-3.1564,-3.131,-3.119,-3.6868,-3.7762,-3.8443,-3.8584,-3.7904,-3.6808,0.0,0.0,-3.1788,-3.0191,-2.939,-2.917,-2.9739,-3.0503,-3.1366,0.0,0.0,-3.6691,-3.9235,-4.0769,-4.2428,-4.4525,0.0,-4.5185,-4.5185,-4.5442,-4.5855,-4.6471,-4.6528,-4.6528,-4.6528,-4.6528,-4.6279,-4.5752,-4.5769,-4.582,-4.5862,-4.6024,-4.6108,-4.611,-4.6245,-4.6308,-4.6308,-4.6308,-4.6308,-4.6308,-4.6308,-4.6308,-4.6308,-4.6308,-4.6308,-4.6308,-4.6308,-4.6308,-4.6289,-4.6199,-4.6122,-4.6084,-4.5992,-4.5928,-4.5885,-4.5828,-4.5832,-4.5802,-4.57,-4.5627,-4.5421,-4.4547,-4.3528,-4.2508,-4.1643,-4.095,-4.0457,-4.0258,-4.0213,-4.0148,-3.9924,-3.9863,-3.9863,-3.9863,-3.98,-3.9754,-3.9754,-3.9462,-3.9025,-3.8361,-3.7409,-3.6431,-3.5495,-3.4656,-3.4064,-3.3825,-3.3807,-3.3807,-3.3807,-3.3807,-3.3807,-3.3807,-3.3807,-3.3807,-3.3807,-3.3807,-3.3666,-3.3375,-3.3258,-3.3029,-3.2697,-3.223,-3.2021,-3.1986,-3.1714,-3.1506,-3.5862,-3.6522,-3.6669,-3.6398,-3.5938,-3.502,0.0,-3.199,-3.0962,-2.9335,-2.9005,-2.9005,-2.9005,-2.9666,-3.0538,-3.1543,-3.4001,0.0,-3.835,-4.0289,-4.1829,0.0,0.0,-4.4211,-4.4211,-4.5042,-4.5594,-4.5614,-4.5614,-4.5614,-4.5614,-4.5614,-4.5614,-4.5594,-4.5725,-4.5803,-4.5803,-4.5994,-4.6108,-4.611,-4.6245,-4.6308,-4.6308,-4.6308,-4.6308,-4.6308,-4.6308,-4.6308,-4.6308,-4.6308,-4.6308,-4.6308,-4.6308,-4.6308,-4.6308,-4.6308,-4.6203,-4.6108,-4.6108,-4.6001,-4.5899,-4.5899,-4.5899,-4.5896,-4.5828,-4.5708,-4.5421,-4.4547,-4.3104,-4.1604,-4.0746,-4.0516,-4.0496,-4.0496,-4.0489,-4.0489,-4.0489,-4.0489,-4.0489,-4.0489,-4.0286,-4.0091,-4.0091,-3.9808,-3.9474,-3.9133,-3.8404,-3.749,-3.6415,-3.5518,-3.4674,-3.3899,-3.3807,-3.3807,-3.3807,-3.3807,-3.3807,-3.3807,-3.3807,-3.3807,-3.3807,-3.3807,-3.3807,-3.3788,-3.339,-3.3199,-3.3199,-3.2713,-3.2501,-3.2501,-3.2484,-3.2248,-3.3476,-3.4407,-3.5043,-3.4952,-3.4393,-3.3549,-3.2392,-3.132,-3.0283,-2.9225,-2.9005,-2.9005,-2.9005,-2.9207,-3.002,-3.2004,-3.316,0.0,0.0,0.0,0.0,-4.2603,-4.4106,-4.5054,-4.5138,-4.5423,-4.5594,-4.5594,-4.5594,-4.5594,-4.5594,-4.5594,-4.5594,-4.5594,-4.5643,-4.5657,-4.5657,-4.5828,-4.589,-4.589,-4.6086,-4.6152,-4.6171,-4.6268,-4.6308,-4.6308,-4.6308,-4.6308,-4.6308,-4.6308,-4.6308,-4.6308,-4.6308,-4.6308,-4.6308,-4.6308,-4.6269,-4.6245,-4.6245,-4.6202,-4.617,-4.6075,-4.6039,-4.6024,-4.59,-4.5814,-4.5413,-4.3904,-4.3104,-4.2354,-4.0881,-4.0496,-4.0496,-4.0496,-4.0496,-4.0496,-4.0496,-4.0496,-4.0496,-4.0496,-4.0422,-4.0372,-4.0372,-3.9944,-3.9564,-3.945,-3.8407,-3.7311,-3.6409,-3.5536,-3.4692,-3.3899,-3.3807,-3.3807,-3.3807,-3.3807,-3.3807,-3.3807,-3.3807,-3.3807,-3.3807,-3.3807,-3.3807,-3.3807,-3.3662,-3.3606,-3.3606,-3.3181,-3.2809,-3.2501,-3.2501,-3.2247,-3.1861,-3.2662,-3.3214,-3.3214,-3.2595,-3.1864,-3.1363,0.0,-2.961,-2.9097,-2.9244,-2.9354,-2.906,-2.9244,-3.0032,-3.1861,-3.2859,0.0,0.0,0.0,0.0,-4.2555,-4.4029,0.0,-4.5538,-4.5594,-4.5594,-4.5594,-4.5594,-4.5594,-4.5594,-4.5594,-4.5594,-4.5594,-4.5594,-4.5594,-4.5594,-4.5725,-4.5803,-4.5803,-4.5955,-4.6045,-4.6091,-4.6196,-4.6248,-4.6308,-4.6308,-4.6308,0.0,-4.6308,-4.6308,-4.6308,-4.6308,-4.6308,-4.6308,-4.6308,-4.6308,-4.6308,-4.6308,-4.6308,-4.6289,-4.6201,-4.6144,-4.6082,-4.5995,-4.5891,-4.5428,-4.3634,-4.3111,-4.2701,-4.0958,-4.0496,-4.0496,-4.0496,-4.0496,-4.0496,-4.0496,-4.0496,-4.0496,-4.0496,-4.0496,-4.0496,-4.0496,-4.0184,-3.9913,-3.9808,-3.8933,-3.7858,-3.6616,-3.5892,-3.5073,-3.3917,-3.3807,-3.3807,-3.3807,-3.3807,-3.3807,-3.3807,-3.3807,-3.3807,-3.3807,-3.3807,-3.3807,-3.3807,-3.3807,-3.3807,-3.3807,-3.355,-3.3288,-3.2981,-3.2648,-3.2332,0.0,-3.1231,-3.1231,-3.1231,-3.0668,-3.0118,-3.0118,0.0,0.0,-2.9005,-2.9629,-2.9971,-2.9225,-2.9702,-3.0503,-3.1415,-3.3092,0.0,0.0,-3.8093,0.0,0.0,-4.3587,-4.448,-4.55,-4.5594,-4.5594,-4.5594,-4.5594,-4.5594,-4.5594,-4.5594,-4.5594,-4.5594,-4.5594,-4.5594,-4.5594,-4.5711,-4.5783,-4.5783,-4.5866,-4.5963,-4.6077,-4.6082,-4.615,-4.6289,-4.6289,-4.6289,-4.6308,-4.6308,-4.6308,-4.6308,-4.6308,-4.6308,-4.6308,-4.6308,-4.6308,-4.6308,-4.6308,-4.6308,-4.6308,-4.6308,-4.6222,-4.6115,-4.6115,-4.5924,-4.537,-4.3691,-4.3115,-4.2629,-4.0954,-4.0504,-4.0496,-4.0496,-4.0496,-4.0496,-4.0496,-4.0496,-4.0496,-4.0496,-4.0496,-4.0496,-4.0496,-4.0481,-4.0381,-4.0139,-3.9808,-3.8903,-3.6982,-3.6517,-3.5726,-3.4052,-3.3868,-3.3868,-3.3868,-3.3815,-3.3807,-3.3807,-3.3807,-3.3807,-3.3807,-3.3807,-3.3807,-3.3807,-3.3807,-3.3807,-3.3807,-3.3807,-3.3807,-3.3775,-3.2965,-3.2583,-2.9422,0.0,-2.9555,-2.9555,-2.9427,-2.928,0.0,0.0,0.0,0.0,0.0,0.0,0.0,0.0,0.0,-3.2908,0.0,-3.4465,-3.6064,-3.8838,0.0,-4.327,-4.4418,-4.5208,-4.5566,-4.5594,-4.5594,-4.5594,-4.5594,-4.5594,-4.5594,-4.5594,-4.5594,-4.5594,-4.5594,-4.5594,-4.5594,-4.5627,-4.5651,-4.5651,-4.5776,-4.5838,-4.5878,-4.5918,-4.6027,-4.6147,-4.6147,-4.6201,-4.6308,-4.6308,-4.6308,-4.6308,-4.6308,-4.6308,-4.6308,-4.6308,-4.6308,-4.6308,-4.6308,-4.6308,-4.6308,-4.6308,-4.6289,-4.6248,-4.6248,-4.5643,-4.472,-4.3661,-4.282,-4.2009,-4.0933,-4.0588,-4.0496,-4.0496,-4.0496,-4.0496,-4.0496,-4.0496,-4.0496,-4.0496,-4.0496,-4.0496,-4.0496,-4.033,-4.0167,-4.011,-3.9808,-3.8973,-3.7239,-3.6953,-3.6287,-3.4663,-3.4494,-3.4494,-3.4494,-3.408,-3.3807,-3.3807,-3.3807,-3.3807,-3.3807,-3.3807,-3.3807,-3.3807,-3.3807,-3.3807,-3.3807,-3.3807,-3.3807,-3.3807,-3.3592,-3.3332,-2.8785,-2.8912,-2.9005,-2.9005,-2.9005,-2.9005,-2.9005,0.0,0.0,0.0,0.0,0.0,0.0,0.0,0.0,0.0,-3.3311,0.0,0.0,0.0,-4.1487,-4.3374,-4.4479,-4.5191,-4.5485,-4.5504,-4.5522,-4.5605,-4.5594,-4.5594,-4.5594,-4.5594,-4.5594,-4.5594,-4.5594,-4.5594,-4.5594,-4.5594,-4.5594,-4.5594,-4.5673,-4.574,-4.5803,-4.583,-4.5905,-4.6001,-4.6001,-4.6082,-4.6202,-4.6202,-4.6247,-4.6308,-4.6308,-4.6308,-4.6308,-4.6308,-4.6308,-4.6308,-4.6308,-4.6308,-4.6308,-4.6308,-4.6308,-4.623,-4.582,-4.5027,-4.4141,-4.3623,-4.2782,-4.1844,-4.097,-4.0685,-4.0629,-4.0603,-4.0582,-4.0561,-4.0512,-4.0496,-4.0496,-4.0496,-4.0496,-4.0496,-4.0496,-4.0381,-4.0276,-4.0276,-4.0023,-3.9223,-3.7545,-3.7205,-3.6478,-3.4864,-3.4694,-3.4694,-3.4694,-3.4405,-3.4148,-3.3999,-3.3986,-3.3941,-3.382,-3.3807,-3.3807,-3.3807,-3.3807,-3.3807,-3.3807,-3.3807,-3.3807,-3.3807,-3.3606,-3.3404,-2.8587,-2.8864,-2.9117,-2.8989,-2.8982,-2.9005,-2.9005,0.0,0.0,0.0,0.0,0.0,0.0,-3.0577,0.0,0.0,0.0,0.0,-3.8861,-4.0202,-4.1528,-4.3353,-4.4273,-4.4903,-4.5243,-4.5322,-4.541,-4.5513,-4.5522,-4.555,-4.5594,-4.5594,-4.5594,-4.5594,-4.5594,-4.5594,-4.5594,-4.5594,-4.5594,-4.5594,-4.5594,-4.5657,-4.5782,-4.5782,-4.5814,-4.5872,-4.5872,-4.5955,-4.6075,-4.6087,-4.6173,-4.6268,-4.6289,-4.6308,-4.6308,-4.6308,-4.6308,-4.6308,-4.6308,-4.6308,-4.6308,-4.6308,-4.6308,-4.6133,-4.5254,-4.4394,-4.3652,-4.3479,-4.2702,-4.1751,-4.1015,-4.0817,-4.0766,-4.0707,-4.068,-4.0643,-4.0515,-4.0496,-4.0496,-4.0496,-4.0496,-4.0496,-4.0496,-4.0496,-4.0496,-4.0496,-4.0313,-3.9556,-3.7893,-3.7414,-3.6621,-3.5002,-3.4813,-3.4813,-3.4813,-3.4813,-3.4685,-3.4349,-3.4292,-3.4171,-3.3941,-3.3928,-3.3902,-3.385,-3.385,-3.3842,-3.3807,-3.3807,-3.3807,-3.3775,-3.3451,-3.3288,-2.8562,-2.9215,-2.9673,-2.8986,-2.8923,-2.9005,0.0,0.0,0.0,0.0,0.0,0.0,0.0,-3.1788,-3.2858,0.0,0.0,-3.8597,-4.0517,-4.1742,-4.2812,-4.3807,-4.4575,-4.4973,-4.4732,-4.4977,-4.514,-4.518,-4.518,-4.5302,-4.5586,-4.5594,-4.5594,-4.5594,-4.5594,-4.5594,-4.5594,-4.5594,-4.5594,-4.5594,-4.5594,-4.5612,-4.5627,-4.5627,-4.57,-4.5821,-4.5821,-4.5869,-4.5932,-4.6047,-4.6115,-4.6145,-4.6267,-4.6308,-4.6308,-4.6308,-4.6308,-4.6308,-4.6308,-4.6308,-4.6308,-4.6308,-4.6308,-4.6133,-4.5254,-4.4394,-4.3535,-4.2792,-4.1898,-4.1137,-4.1001,-4.084,-4.0707,-4.0703,-4.0616,-4.0534,-4.0504,-4.0496,-4.0496,-4.0496,-4.0496,-4.0496,-4.0496,-4.0496,-4.0496,-4.0496,-4.0465,-3.9834,-3.8155,-3.7901,-3.7226,-3.5568,-3.5376,-3.5376,-3.5376,-3.5376,-3.5254,-3.4971,-3.4754,-3.4593,-3.4569,-3.4569,-3.4431,-3.4147,-3.4147,-3.4018,-3.3807,-3.3807,-3.3807,-3.3807,-3.3734,-3.3707,-2.8371,-2.8755,-2.9148,-2.9207,-2.9719,0.0,0.0,0.0,0.0,0.0,0.0,0.0,0.0,0.0,-3.3788,-3.544,0.0,-3.9111,-4.0286,-4.1657,-4.2884,-4.3825,-4.4246,-4.4452,-4.4493,-4.4637,-4.4751,-4.4806,-4.5007,-4.5169,-4.5322,-4.5504,-4.5594,-4.5594,-4.5594,-4.5594,-4.5594,-4.5594,-4.5594,-4.5594,-4.5594,-4.5594,-4.5594,-4.5594,-4.5627,-4.5685,-4.5685,-4.5756,-4.5859,-4.5901,-4.5994,-4.611,-4.6173,-4.6245,-4.6308,-4.6308,-4.6308,-4.6308,-4.6308,-4.6308,-4.6308,-4.6308,-4.5976,-4.543,-4.4551,-4.3691,-4.2812,-4.1992,-4.1443,-4.1105,-4.1105,-4.1041,-4.0938,-4.079,-4.0712,-4.0635,-4.0523,-4.0496,-4.0496,-4.0496,-4.0496,-4.0496,-4.0496,-4.0496,-4.0496,-4.0496,-4.0496,-3.99,-3.8219,-3.8007,-3.7353,-3.5673,-3.55,-3.55,-3.55,-3.55,-3.5383,-3.5113,-3.486,-3.4694,-3.4694,-3.4694,-3.4632,-3.4467,-3.4456,-3.4311,-3.4006,-3.4006,-3.3935,-3.3807,-3.3807,-3.3807,-2.8196,-2.8448,-2.877,-2.9202,0.0,0.0,0.0,0.0,0.0,0.0,0.0,0.0,0.0,-3.3138,0.0,-3.6597,-3.8212,-3.9551,-4.0341,-4.168,-4.2903,-4.371,-4.3878,-4.3983,-4.4173,-4.4256,-4.4355,-4.446,-4.4707,-4.4931,-4.5085,-4.5342,-4.5513,-4.5594,-4.5594,-4.5594,-4.5594,-4.5594,-4.5594,-4.5594,-4.5594,-4.5594,-4.5594,-4.5594,-4.5594,-4.5594,-4.5594,-4.5648,-4.5761,-4.5783,-4.5885,-4.6021,-4.6039,-4.6142,-4.6267,-4.6289,-4.6308,-4.6308,-4.6308,-4.6308,-4.6269,-4.6055,-4.5547,-4.4805,-4.3711,-4.293,-4.2226,-4.1426,-4.1191,-4.1191,-4.1191,-4.1171,-4.1103,-4.0905,-4.0816,-4.0751,-4.0591,-4.0554,-4.0545,-4.0545,-4.0527,-4.0496,-4.0496,-4.0496,-4.0496,-4.0496,-4.0342,-3.9688,-3.818,-3.7815,-3.7142,-3.5654,-3.55,-3.55,-3.55,-3.55,-3.5398,-3.5207,-3.4999,-3.4898,-3.4898,-3.4898,-3.487,-3.4784,-3.4724,-3.454,-3.42,-3.4135,-3.4012,-3.3807,-3.3807,-3.3807,-2.8196,-2.8837,-2.9355,-2.8663,0.0,0.0,0.0,0.0,0.0,0.0,0.0,0.0,0.0,-3.4407,-3.6652,-3.8267,-3.9866,-4.1205,-4.2011,-4.2873,-4.3441,-4.3513,-4.3804,-4.3881,-4.358,-4.3852,-4.4028,-4.4028,-4.4058,-4.4387,-4.5063,-4.5118,-4.5292,-4.5586,-4.5594,-4.5594,-4.5594,-4.5594,-4.5594,-4.5594,-4.5594,-4.5594,-4.5594,-4.5594,-4.5594,-4.5594,-4.5594,-4.5603,-4.5618,-4.5747,-4.5816,-4.5834,-4.5891,-4.5995,-4.612,-4.6248,-4.6308,-4.6308,-4.6308,-4.6308,-4.6172,-4.5351,-4.5058,-4.4687,-4.3008,-4.2441,-4.2226,-4.1426,-4.1191,-4.1191,-4.1191,-4.1104,-4.1019,-4.0992,-4.0883,-4.0793,-4.0777,-4.0722,-4.068,-4.068,-4.0595,-4.0496,-4.0496,-4.0496,-4.0496,-4.0496,-3.9861,-3.9053,-3.8123,-3.7296,-3.6462,-3.5596,-3.55,-3.55,-3.55,-3.55,-3.5493,-3.546,-3.5446,-3.5439,-3.5439,-3.5439,-3.5339,-3.5079,-3.4841,-3.454,-3.42,-3.3948,-3.3815,-3.3807,-3.3807,-3.3807,-2.8196,-2.8822,-2.94,-2.91,0.0,0.0,0.0,0.0,0.0,0.0,0.0,0.0,0.0,0.0,-3.6695,-3.8417,-4.0049,-4.137,-4.2194,-4.2983,-4.3515,-4.3515,-4.3595,-4.3629,-4.3513,-4.3612,-4.3677,-4.3677,-4.3881,-4.4117,-4.4395,-4.4638,-4.4943,-4.5292,-4.5292,-4.54,-4.5594,-4.5594,-4.5594,-4.5594,-4.5594,-4.5594,-4.5594,-4.5594,-4.5594,-4.5594,-4.5594,-4.5594,-4.5603,-4.5648,-4.5718,-4.5816,-4.5872,-4.5928,-4.5992,-4.6138,-4.6174,-4.6198,-4.6268,-4.6308,-4.6152,-4.5273,-4.4629,-4.3965,-4.2754,-4.2051,-4.1582,-4.1289,-4.1191,-4.1191,-4.1191,-4.1151,-4.1104,-4.1023,-4.0959,-4.0908,-4.0813,-4.0784,-4.0752,-4.0752,-4.0713,-4.0668,-4.0623,-4.063,-4.0435,-3.9838,-3.9496,-3.8796,-3.7373,-3.6904,-3.6385,-3.5596,-3.55,-3.55,-3.55,-3.55,-3.55,-3.55,-3.55,-3.55,-3.55,-3.55,-3.5446,-3.5354,-3.5239,-3.4962,-3.4518,-3.4409,-3.4172,-3.3807,-3.3807,-3.3807,-2.8196,-2.8606,-2.9069,0.0,0.0,0.0,0.0,0.0,0.0,0.0,-3.5451,0.0,0.0,0.0,0.0,-3.8768,-4.0164,-4.1394,-4.2525,-4.3149,-4.3515,-4.3515,-4.3515,-4.3515,-4.3515,-4.3515,-4.3515,-4.3515,-4.371,-4.3896,-4.3982,-4.4261,-4.4561,-4.4931,-4.5052,-4.515,-4.5283,-4.54,-4.54,-4.5283,-4.5381,-4.5495,-4.5594,-4.5594,-4.5594,-4.5594,-4.5594,-4.5594,-4.5594,-4.5594,-4.5648,-4.5754,-4.5822,-4.5862,-4.5877,-4.6008,-4.6039,-4.6067,-4.6198,-4.605,-4.57,-4.4863,-4.3984,-4.3102,-4.2265,-4.1601,-4.1149,-4.1191,-4.1191,-4.1191,-4.1191,-4.1191,-4.1171,-4.1081,-4.1056,-4.1048,-4.0952,-4.0883,-4.0864,-4.0864,-4.082,-4.0792,-4.0747,-4.0513,-4.0131,-3.9483,-3.8903,-3.8111,-3.6916,-3.6496,-3.6115,-3.5558,-3.55,-3.55,-3.55,-3.55,-3.55,-3.55,-3.55,-3.55,-3.55,-3.55,-3.55,-3.55,-3.5424,-3.5198,-3.4832,-3.4734,-3.4494,-3.4074,-3.4074,-3.4024,-2.8196,-2.8213,-2.841,0.0,0.0,0.0,0.0,0.0,0.0,0.0,0.0,-3.5967,-3.5849,-3.6578,0.0,-3.9627,-4.043,-4.1441,-4.3242,-4.3515,-4.3515,-4.3515,-4.3515,-4.3515,-4.3515,-4.3515,-4.3515,-4.3515,-4.3515,-4.3646,-4.3986,-4.4001,-4.4175,-4.458,-4.4919,-4.4931,-4.4593,-4.4931,-4.4931,-4.4593,-4.4931,-4.5263,-4.5605,-4.5594,-4.5594,-4.5594,-4.5594,-4.5594,-4.5594,-4.5594,-4.5594,-4.5593,-4.5728,-4.5777,-4.5777,-4.5852,-4.5879,-4.5896,-4.6028,-4.5501,-4.4651,-4.3923,-4.3058,-4.2157,-4.1424,-4.1104,-4.1025,-4.1151,-4.1191,-4.1191,-4.1191,-4.1191,-4.1191,-4.1191,-4.1191,-4.1191,-4.1191,-4.1102,-4.0996,-4.0996,-4.0883,-4.0801,-4.0782,-4.0132,-3.9603,-3.9583,-3.8054,-3.6903,-3.6883,-3.608,-3.5507,-3.5507,-3.5507,-3.5507,-3.55,-3.55,-3.55,-3.55,-3.55,-3.55,-3.55,-3.55,-3.55,-3.55,-3.5231,-3.5105,-3.5096,-3.4822,-3.4694,-3.4694,-3.4694,-3.4529,-2.8196,-2.9096,0.0,-3.0338,0.0,0.0,0.0,0.0,0.0,0.0,-3.7218,-3.6997,-3.7533,-3.7856,0.0,-4.0455,-4.1356,-4.2235,-4.3332,-4.3515,-4.3515,-4.3515,-4.3515,-4.3515,-4.3515,-4.3515,-4.3515,-4.3515,-4.3515,-4.3548,-4.3646,-4.3646,-4.3804,-4.418,-4.4257,-4.4414,-4.4612,-4.4714,-4.4714,-4.4593,-4.4695,-4.4919,-4.5272,-4.5495,-4.5594,-4.5594,-4.5594,-4.5594,-4.5556,-4.494,-4.4682,-4.4633,-4.4102,-4.3902,-4.3906,-4.3975,-4.4001,-4.4023,-4.4153,-4.403,-4.3682,-4.2847,-4.2389,-4.2003,-4.1165,-4.0957,-4.1017,-4.1051,-4.1127,-4.1191,-4.1191,-4.1191,-4.1191,-4.1191,-4.1191,-4.1191,-4.1191,-4.1171,-4.1149,-4.1149,-4.1105,-4.0857,-4.0155,-3.9833,-3.9232,-3.7964,-3.7304,-3.6759,-3.6126,-3.5806,-3.5648,-3.5648,-3.5648,-3.5611,-3.5571,-3.5566,-3.5552,-3.5507,-3.55,-3.55,-3.55,-3.55,-3.55,-3.55,-3.5424,-3.5289,-3.5105,-3.5016,-3.487,-3.4694,-3.4694,-3.4653,-2.877,-2.952,0.0,-3.111,-3.2556,-3.4276,-3.6054,0.0,0.0,0.0,-3.8538,-3.8478,-3.9217,-3.9347,-3.9834,-4.1335,-4.1907,-4.2476,-4.3387,-4.3515,-4.3515,-4.3515,-4.3515,-4.3515,-4.3515,-4.3515,-4.3515,-4.3515,-4.3515,-4.3515,-4.3515,-4.3515,-4.3597,-4.3788,-4.3924,-4.4061,-4.4169,-4.4294,-4.4126,-4.3683,-4.3821,-4.3823,-4.3736,-4.4876,-4.5284,-4.5075,-4.4748,-4.4605,-4.4566,-4.4047,-4.3816,-4.3778,-4.3297,-4.3104,-4.3102,-4.3156,-4.316,-4.3188,-4.328,-4.3117,-4.2752,-4.2252,-4.1846,-4.1446,-4.0941,-4.0832,-4.0896,-4.0911,-4.0986,-4.1049,-4.1049,-4.1049,-4.1076,-4.1171,-4.1191,-4.1191,-4.1191,-4.1191,-4.1191,-4.1191,-4.1191,-4.0898,-3.9949,-3.9497,-3.8786,-3.7334,-3.6799,-3.6359,-3.5768,-3.5707,-3.5707,-3.5707,-3.5707,-3.5682,-3.5633,-3.5648,-3.5616,-3.5588,-3.5582,-3.5574,-3.5534,-3.5521,-3.55,-3.55,-3.55,-3.5424,-3.5266,-3.5266,-3.5182,-3.5008,-3.5008,-3.4963,-2.9692,0.0,0.0,-3.1827,-3.2925,0.0,-3.6596,-3.794,-3.8863,-3.9398,0.0,-4.0088,-4.0711,-4.0878,-4.1275,-4.2251,-4.226,-4.2446,-4.337,-4.3515,-4.3515,-4.3515,-4.3515,-4.3515,-4.3515,-4.3515,-4.3515,-4.3515,-4.3515,-4.3515,-4.3515,-4.3441,-4.3404,-4.3404,-4.3619,-4.3582,-4.3294,-4.3582,-4.3212,-4.2194,-4.2502,-4.2284,-4.167,-4.3841,-4.4582,-4.4117,-4.3404,-4.3104,-4.3085,-4.3008,-4.2989,-4.297,-4.2893,-4.2854,-4.2854,-4.2854,-4.2854,-4.2868,-4.2937,-4.2486,-4.1859,-4.1927,-4.1378,-4.0684,-4.0757,-4.0738,-4.0707,-4.0775,-4.0789,-4.0797,-4.0797,-4.0797,-4.0864,-4.1104,-4.1171,-4.1191,-4.1191,-4.1191,-4.1191,-4.1191,-4.1133,-4.0801,-3.9922,-3.9062,-3.8184,-3.7305,-3.6455,-3.5873,-3.5738,-3.5729,-3.5729,-3.5729,-3.5729,-3.5726,-3.5717,-3.5717,-3.5713,-3.5707,-3.5707,-3.5663,-3.5611,-3.554,-3.552,-3.55,-3.55,-3.55,-3.55,-3.55,-3.55,-3.55,-3.55,-3.5369,-3.0376,-3.0617,0.0,0.0,-3.5788,-3.7603,-3.8002,-3.8402,-3.8728,-3.8881,-3.9444,-4.0139,-4.0897,-4.1557,-4.2252,-4.3094,-4.3223,-4.3243,-4.3461,-4.3515,-4.3515,-4.3515,-4.3515,-4.3515,-4.3515,-4.3515,-4.3515,-4.3515,-4.3515,-4.3515,-4.3515,-4.2892,-4.2561,-4.2561,-4.202,-4.1705,-4.1625,-4.1689,-4.1597,-4.1352,-4.1429,-4.1502,-4.1633,-4.241,-4.2829,-4.2967,-4.3056,-4.3104,-4.3047,-4.2354,-4.2085,-4.2008,-4.1335,-4.1054,-4.1054,-4.1054,-4.1054,-4.1062,-4.1089,-4.0969,-4.0815,-4.0846,-4.0709,-4.0545,-4.0568,-4.063,-4.0703,-4.0718,-4.0767,-4.0797,-4.0797,-4.0797,-4.0809,-4.087,-4.0962,-4.1077,-4.1171,-4.1191,-4.1191,-4.1191,-4.0644,-3.9902,-3.9023,-3.8164,-3.7285,-3.6406,-3.6113,-3.5974,-3.5932,-3.5931,-3.5931,-3.5931,-3.5931,-3.5903,-3.5851,-3.5867,-3.5807,-3.571,-3.5707,-3.5696,-3.5675,-3.5616,-3.5544,-3.55,-3.55,-3.55,-3.55,-3.55,-3.55,-3.55,-3.55,-3.5479,-3.0671,0.0,0.0,-3.4563,0.0,-3.8643,-3.8449,-3.8562,-3.8707,-3.8707,-3.9331,-4.0139,-4.0948,-4.1425,-4.1864,-4.2286,-4.2359,-4.2359,-4.2359,-4.2359,-4.2359,-4.2359,-4.2359,-4.2359,-4.2359,-4.2359,-4.2359,-4.2359,-4.2359,-4.2359,-4.2359,-4.1956,-4.1735,-4.1735,-4.1315,-4.1095,-4.1095,-4.1095,-4.0912,-4.0524,-4.0524,-4.043,-4.0248,-4.111,-4.1616,-4.1784,-4.1686,-4.1654,-4.1644,-4.1314,-4.1181,-4.1123,-4.0689,-4.0496,-4.0496,-4.0496,-4.0496,-4.0496,-4.0496,-4.0496,-4.0496,-4.0496,-4.0496,-4.0496,-4.0496,-4.0545,-4.0603,-4.0603,-4.0629,-4.0657,-4.0657,-4.0657,-4.0674,-4.0738,-4.0824,-4.092,-4.0992,-4.1055,-4.0987,-4.0558,-4.0174,-3.9492,-3.8203,-3.7246,-3.6523,-3.6074,-3.5996,-3.5996,-3.5996,-3.5996,-3.5996,-3.5996,-3.5996,-3.5995,-3.5948,-3.5948,-3.5922,-3.5845,-3.5843,-3.5832,-3.5802,-3.5759,-3.5706,-3.56,-3.56,-3.5582,-3.5546,-3.5546,-3.5528,-3.55,-3.55,-3.55,-3.0912,0.0,-3.2365,-3.5319,-3.7281,0.0,-3.8462,-3.8578,-3.8707,-3.8707,-3.9284,-3.9985,-4.0747,-4.0936,-4.0994,-4.1079,-4.1095,-4.1095,-4.1095,-4.1095,-4.1095,-4.1095,-4.1095,-4.1095,-4.1095,-4.1095,-4.1095,-4.1095,-4.1095,-4.1095,-4.1095,-4.0967,-4.0875,-4.0875,-4.0747,-4.0691,-4.0691,-4.0691,-4.0359,-3.968,-3.968,-3.9331,-3.8741,-3.9952,-4.0559,-4.0563,-4.0184,-4.0061,-4.012,-4.0339,-4.0465,-4.0496,-4.0496,-4.0496,-4.0496,-4.0496,-4.0496,-4.0496,-4.0496,-4.0496,-4.0496,-4.0496,-4.0496,-4.0496,-4.0496,-4.0496,-4.0496,-4.0496,-4.0496,-4.0496,-4.0496,-4.0496,-4.0534,-4.0643,-4.0715,-4.0751,-4.0789,-4.0899,-4.0708,-3.9848,-3.9531,-3.8904,-3.7344,-3.6464,-3.5995,-3.5996,-3.5996,-3.5996,-3.5996,-3.5996,-3.5996,-3.5996,-3.5996,-3.5996,-3.5996,-3.5996,-3.5996,-3.5996,-3.5996,-3.5974,-3.5914,-3.5913,-3.5877,-3.575,-3.572,-3.5663,-3.5626,-3.5626,-3.5574,-3.5509,-3.5355,-3.5284,0.0,0.0,-3.4619,0.0,-3.6967,-3.7845,0.0,0.0,-3.8707,0.0,-3.897,-3.9381,-3.9946,-4.0245,-4.0562,-4.1027,-4.1095,-4.1095,-4.1095,-4.1095,-4.1095,-4.1095,-4.1095,-4.1095,-4.1095,-4.1095,-4.1095,-4.1095,-4.1095,-4.1095,-4.1095,-4.0432,-4.0065,-4.0065,-3.9386,-3.9019,-3.9019,-3.9019,-3.8982,-3.8854,-3.8854,-3.8799,-3.8707,-3.8902,-3.9118,-3.9354,-3.9566,-3.9829,-4.0101,-4.0139,-4.0295,-4.0496,-4.0496,-4.0496,-4.0496,-4.0496,-4.0496,-4.0496,-4.0496,-4.0496,-4.0496,-4.0496,-4.0496,-4.0496,-4.0496,-4.0496,-4.0496,-4.0496,-4.0496,-4.0496,-4.0496,-4.0496,-4.0504,-4.0527,-4.0537,-4.0584,-4.0755,-4.0809,-4.0586,-3.9772,-3.8406,-3.7128,-3.6307,-3.6026,-3.5922,-3.5996,-3.5996,-3.5996,-3.5996,-3.5996,-3.5996,-3.5996,-3.5996,-3.5996,-3.5996,-3.5996,-3.5996,-3.5996,-3.5996,-3.5996,-3.5995,-3.5995,-3.5975,-3.5955,-3.5792,-3.57,-3.5686,-3.5686,-3.565,-3.556,-3.4811,-3.443,-3.1016,-3.3194,-3.5026,0.0,-3.6193,-3.7052,-3.7826,-3.8028,-3.8157,-3.8615,-3.8556,-3.8486,-3.8743,-3.8671,-3.8634,-3.8887,-3.8923,-3.8923,-3.8923,-3.9151,-3.9304,-3.9304,-3.9573,-3.9756,-3.9756,-3.9756,-3.9756,-3.9756,-3.9756,-3.9756,-3.9756,-3.9423,-3.9239,-3.9239,-3.8891,-3.8707,-3.8707,-3.8707,-3.8707,-3.8707,-3.8707,-3.8707,-3.8707,-3.8707,-3.8762,-3.888,-3.9178,-3.9401,-3.9552,-3.9742,-4.0003,-4.025,-4.0082,-4.011,-4.025,-4.0053,-4.011,-4.0286,-4.0286,-4.0372,-4.0496,-4.0496,-4.0496,-4.0496,-4.0496,-4.0496,-4.0496,-4.0496,-4.0496,-4.0496,-4.0496,-4.0496,-4.0496,-4.0496,-4.0496,-4.0523,-4.0604,-4.0685,-4.0369,-3.9116,-3.7458,-3.618,-3.5888,-3.5817,-3.5807,-3.5834,-3.5838,-3.5838,-3.5838,-3.5896,-3.5946,-3.5946,-3.5975,-3.5996,-3.5996,-3.5996,-3.5996,-3.5996,-3.5996,-3.5996,-3.5996,-3.5996,-3.5996,-3.5996,-3.5907,-3.5841,-3.5807,-3.5807,-3.5535,-3.4971,-3.4582,-3.4126,0.0,0.0,-3.4027,-3.4247,-3.4924,-3.5776,0.0,0.0,-3.7374,-3.823,-3.7958,-3.7625,-3.7702,-3.7433,-3.7209,-3.7209,-3.7209,-3.7209,-3.7209,-3.7506,-3.772,-3.772,-3.8167,-3.8515,-3.8515,-3.8627,-3.8707,-3.8707,-3.8707,-3.8707,-3.8707,-3.8707,-3.8707,-3.8707,-3.8707,-3.8707,-3.8707,-3.8707,-3.8707,-3.8707,-3.8707,-3.8707,-3.8707,-3.8707,-3.8707,-3.8704,-3.8909,-3.9036,-3.9125,-3.9364,-3.9668,-3.9943,-3.9709,-3.9754,-3.9932,-3.9679,-3.9765,-3.9982,-3.9982,-4.0157,-4.0389,-4.0389,-4.043,-4.0496,-4.0496,-4.0496,-4.0496,-4.0496,-4.0496,-4.0496,-4.0496,-4.0496,-4.0496,-4.0496,-4.0496,-4.0496,-4.0496,-4.024,-3.966,-3.8475,-3.6848,-3.5663,-3.5696,-3.5686,-3.5678,-3.5703,-3.5707,-3.5707,-3.5707,-3.5794,-3.5843,-3.5843,-3.5896,-3.5929,-3.5929,-3.5953,-3.5974,-3.5974,-3.5996,-3.5996,-3.5996,-3.5996,-3.5996,-3.5996,-3.5996,-3.5974,-3.5938,-3.5938,-3.5447,-3.4522,-3.4291,-3.3712,0.0,-2.9845,0.0,-3.2164,-3.2944,0.0,0.0,0.0,-3.6346,-3.7371,-3.7139,-3.6857,-3.718,-3.7228,-3.7209,-3.7209,-3.7209,-3.7209,-3.7209,-3.721,-3.7247,-3.7247,-3.7649,-3.7946,-3.7946,-3.8399,-3.8707,-3.8707,-3.8707,-3.8707,-3.8707,-3.8707,-3.8707,-3.8707,-3.8707,-3.8707,-3.8707,-3.8707,-3.8707,-3.8707,-3.8707,-3.8707,-3.8707,-3.8707,-3.8707,-3.8707,-3.8704,-3.8869,-3.9112,-3.9125,-3.9314,-3.9622,-3.9611,-3.9611,-3.9622,-3.9611,-3.9611,-3.9622,-3.9622,-3.984,-4.012,-4.012,-4.0285,-4.0496,-4.0496,-4.0496,-4.0496,-4.0496,-4.0496,-4.0496,-4.0496,-4.0496,-4.0496,-4.0496,-4.0496,-4.0496,-4.0496,-3.9273,-3.8136,-3.81,-3.6703,-3.5558,-3.5675,-3.5642,-3.5626,-3.5693,-3.5707,-3.5707,-3.5707,-3.571,-3.5713,-3.5713,-3.5717,-3.572,-3.572,-3.5838,-3.5905,-3.5905,-3.5953,-3.5996,-3.5996,-3.5996,-3.5996,-3.5996,-3.5996,-3.5996,-3.5996,-3.5996,-3.5502,-3.4569,-3.3757,-3.2853,0.0,0.0,0.0,-3.1132,-3.1809,-3.2628,-3.3666,-3.4512,-3.5345,-3.6224,-3.6261,-3.599,-3.5596,-3.6159,-3.6563,-3.6228,-3.6165,-3.6165,-3.6165,-3.646,-3.6684,-3.6684,-3.7135,-3.7451,-3.7451,-3.7632,-3.7738,-3.7738,-3.7738,-3.7738,-3.7738,-3.8015,-3.8183,-3.8183,-3.853,-3.8707,-3.8707,-3.8707,-3.8707,-3.8707,-3.8707,-3.8707,-3.8707,-3.8707,-3.8707,-3.8707,-3.8707,-3.8747,-3.8844,-3.8844,-3.9017,-3.9269,-3.9087,-3.9122,-3.9269,-3.9087,-3.9136,-3.9276,-3.9276,-3.9505,-3.9808,-4.0022,-4.0158,-4.0286,-4.0457,-4.0496,-4.0496,-4.0496,-4.0496,-4.0496,-4.0496,-4.0496,-4.0496,-4.0496,-4.0112,-3.9727,-3.9727,-3.8815,-3.7837,-3.7321,-3.6279,-3.5521,-3.5568,-3.5558,-3.554,-3.5579,-3.5566,-3.5566,-3.5566,-3.5606,-3.5639,-3.5639,-3.5667,-3.5707,-3.5707,-3.5732,-3.5766,-3.5766,-3.5792,-3.5859,-3.5922,-3.5942,-3.597,-3.5996,-3.5996,-3.5996,-3.5996,-3.5996,-3.5253,-3.3824,-3.3512,-3.261,-2.6817,0.0,0.0,0.0,0.0,-3.0789,-3.1679,-3.266,-3.3631,-3.4551,-3.4927,-3.4982,-3.4548,-3.5118,-3.5573,-3.5287,-3.543,-3.56,-3.56,-3.5898,-3.6139,-3.6139,-3.6603,-3.6941,-3.6941,-3.7078,-3.7209,-3.7209,-3.7209,-3.7209,-3.7209,-3.7506,-3.7737,-3.7911,-3.8251,-3.8433,-3.8433,-3.8285,-3.8185,-3.8185,-3.835,-3.8433,-3.8449,-3.8627,-3.8707,-3.8707,-3.8707,-3.8707,-3.8707,-3.8707,-3.8803,-3.8947,-3.8777,-3.8818,-3.8947,-3.8777,-3.88,-3.8975,-3.8975,-3.9171,-3.9481,-3.9679,-3.9829,-3.9963,-4.0138,-4.0193,-4.023,-4.0328,-4.0364,-4.0381,-4.0481,-4.0496,-4.0439,-4.0169,-3.9688,-3.915,-3.8546,-3.7969,-3.7392,-3.6808,-3.6058,-3.55,-3.55,-3.55,-3.55,-3.55,-3.55,-3.55,-3.55,-3.5547,-3.5574,-3.5574,-3.5601,-3.5635,-3.5635,-3.5655,-3.5675,-3.5675,-3.5689,-3.5729,-3.5836,-3.5836,-3.5855,-3.5902,-3.5902,-3.5927,-3.5972,-3.5996,-3.5098,-3.3398,-3.3398,-3.25,0.0,0.0,0.0,0.0,0.0,0.0,-2.871,-2.9885,-3.1182,-3.2306,-3.3117,-3.3741,-3.4053,-3.415,-3.4214,-3.441,-3.5064,-3.5532,-3.5532,-3.5549,-3.5566,-3.5566,-3.6054,-3.6392,-3.6392,-3.6843,-3.7135,-3.7135,-3.7135,-3.7135,-3.7135,-3.7136,-3.7361,-3.7823,-3.7822,-3.7804,-3.7804,-3.7362,-3.7121,-3.7138,-3.7595,-3.7804,-3.7856,-3.8394,-3.8655,-3.867,-3.8689,-3.8707,-3.8707,-3.8707,-3.8707,-3.8707,-3.8707,-3.8707,-3.8707,-3.8707,-3.8707,-3.8707,-3.8707,-3.8869,-3.9085,-3.9099,-3.9314,-3.9587,-3.9599,-3.9599,-3.9668,-3.9992,-4.0091,-4.0148,-4.0394,-4.045,-4.0258,-3.945,-3.9246,-3.8757,-3.7065,-3.6673,-3.6666,-3.6654,-3.6038,-3.55,-3.55,-3.55,-3.55,-3.55,-3.55,-3.55,-3.55,-3.55,-3.55,-3.55,-3.55,-3.55,-3.55,-3.5556,-3.56,-3.56,-3.5659,-3.57,-3.57,-3.57,-3.5703,-3.5707,-3.5707,-3.5764,-3.588,-3.5952,-3.5098,-3.3398,-3.3359,-3.2441,-2.5244,0.0,0.0,0.0,0.0,0.0,-2.7333,-2.8793,-3.0195,-3.0994,-3.1847,-3.244,-3.2334,-3.2758,-3.3054,-3.293,-3.3525,-3.4015,-3.4015,-3.4472,-3.4793,-3.4793,-3.5399,-3.581,-3.581,-3.5963,-3.6054,-3.6054,-3.6054,-3.6054,-3.6054,-3.5899,-3.6041,-3.6524,-3.6007,-3.5739,-3.5739,-3.5599,-3.5545,-3.5545,-3.5669,-3.5911,-3.6264,-3.6993,-3.751,-3.786,-3.845,-3.8707,-3.8707,-3.8707,-3.8707,-3.8707,-3.8707,-3.8707,-3.8707,-3.8707,-3.8707,-3.8707,-3.8707,-3.8747,-3.8844,-3.9036,-3.9147,-3.9276,-3.9529,-3.9599,-3.9622,-3.9701,-3.9742,-3.9675,-3.9347,-3.9278,-3.9112,-3.8489,-3.7873,-3.7296,-3.6788,-3.6082,-3.5599,-3.578,-3.5654,-3.55,-3.55,-3.55,-3.55,-3.55,-3.55,-3.55,-3.55,-3.55,-3.55,-3.55,-3.55,-3.55,-3.55,-3.5528,-3.5534,-3.5534,-3.554,-3.5577,-3.5621,-3.5626,-3.5646,-3.5703,-3.5707,-3.5717,-3.5758,-3.588,-3.505,-3.3379,-3.2168,-3.1348,0.0,0.0,0.0,0.0,0.0,0.0,-2.6148,-2.7283,-2.851,-2.9675,-3.0365,-3.0898,-3.1344,-3.1528,-3.166,-3.1822,-3.2188,-3.2696,-3.3322,-3.3778,-3.4032,-3.4032,-3.4421,-3.467,-3.467,-3.467,-3.467,-3.467,-3.467,-3.467,-3.467,-3.4782,-3.4963,-3.5233,-3.4831,-3.4621,-3.4621,-3.4399,-3.4269,-3.4286,-3.4493,-3.4747,-3.5047,-3.5699,-3.6167,-3.6449,-3.7249,-3.7576,-3.7611,-3.8156,-3.8496,-3.8707,-3.8707,-3.8707,-3.8707,-3.8707,-3.8707,-3.8707,-3.8707,-3.8707,-3.8719,-3.8884,-3.8919,-3.8961,-3.9163,-3.9229,-3.9255,-3.9358,-3.926,-3.8957,-3.8295,-3.8126,-3.7956,-3.7285,-3.6738,-3.6271,-3.5946,-3.5358,-3.5008,-3.5281,-3.5239,-3.5207,-3.5312,-3.5327,-3.5369,-3.5486,-3.55,-3.55,-3.55,-3.55,-3.55,-3.55,-3.55,-3.55,-3.55,-3.55,-3.55,-3.55,-3.55,-3.5528,-3.555,-3.5556,-3.5577,-3.5621,-3.5621,-3.563,-3.5663,-3.5755,-3.4979,-3.3333,-3.203,-3.125,0.0,0.0,0.0,0.0,-2.4038,0.0,-2.4963,-2.5578,-2.6526,-2.8206,-2.8634,-2.9124,-3.0507,-3.0237,-3.0034,-3.076,-3.0982,-3.1543,-3.2966,-3.3237,-3.3288,-3.3288,-3.3355,-3.3406,-3.3406,-3.3406,-3.3406,-3.3406,-3.3406,-3.3406,-3.3406,-3.3779,-3.3986,-3.3986,-3.3917,-3.3865,-3.3865,-3.3383,-3.3169,-3.3152,-3.3648,-3.3885,-3.3961,-3.4463,-3.4712,-3.48,-3.5545,-3.5881,-3.5971,-3.7093,-3.7987,-3.8627,-3.8692,-3.8707,-3.8707,-3.8707,-3.8707,-3.8707,-3.8707,-3.8707,-3.8707,-3.8707,-3.8707,-3.8707,-3.8707,-3.8634,-3.86,-3.8744,-3.8496,-3.7985,-3.7222,-3.7006,-3.6799,-3.596,-3.5782,-3.5564,-3.4845,-3.4674,-3.4714,-3.4944,-3.4832,-3.4783,-3.5008,-3.5062,-3.513,-3.5376,-3.5417,-3.5417,-3.5417,-3.5417,-3.5424,-3.5446,-3.5453,-3.5479,-3.55,-3.55,-3.55,-3.55,-3.55,-3.55,-3.55,-3.55,-3.55,-3.55,-3.55,-3.5522,-3.5585,-3.557,-3.4784,-3.3276,-3.2512,-3.1718,0.0,0.0,0.0,-2.3742,-2.3628,0.0,-2.3079,-2.4112,-2.527,-2.5621,-2.6292,-2.7082,-2.7898,-2.7948,-2.8098,-2.8832,-2.9582,-3.0443,-3.1475,-3.2141,-3.2513,-3.2513,-3.3034,-3.3406,-3.3406,-3.3406,-3.3406,-3.3406,-3.3406,-3.3406,-3.3406,-3.2937,-3.2658,-3.2658,-3.2097,-3.1791,-3.1791,-3.1673,-3.163,-3.163,-3.1732,-3.1953,-3.2293,-3.3083,-3.3617,-3.3985,-3.4782,-3.5102,-3.5119,-3.5385,-3.6501,-3.8099,-3.853,-3.8707,-3.8707,-3.8707,-3.8707,-3.8707,-3.8707,-3.8707,-3.8707,-3.8707,-3.8707,-3.8707,-3.8707,-3.8248,-3.7617,-3.701,-3.6768,-3.6559,-3.5969,-3.5836,-3.567,-3.5076,-3.4931,-3.4883,-3.4732,-3.4497,-3.4304,-3.436,-3.4561,-3.4733,-3.4764,-3.4774,-3.4803,-3.486,-3.486,-3.486,-3.486,-3.486,-3.4944,-3.5147,-3.5182,-3.5273,-3.5486,-3.55,-3.55,-3.55,-3.55,-3.55,-3.55,-3.55,-3.55,-3.55,-3.55,-3.552,-3.5515,-3.4984,-3.4208,-3.3198,-3.2416,-3.1578,-2.5787,-2.5415,-2.4871,-2.4176,-2.3998,0.0,0.0,-2.3701,-2.4541,-2.5386,-2.5342,-2.5594,-2.7038,-2.7004,-2.6987,-2.7736,-2.8653,-2.9425,-2.9888,-3.0999,-3.1752,-3.1752,-3.207,-3.2307,-3.2307,-3.2307,-3.2307,-3.2307,-3.2307,-3.2307,-3.2307,-3.1935,-3.1752,-3.1752,-3.1376,-3.119,-3.119,-3.119,-3.119,-3.119,-3.119,-3.131,-3.1524,-3.1956,-3.2262,-3.2503,-3.3269,-3.3599,-3.3652,-3.4297,-3.5133,-3.6095,-3.6603,-3.7156,-3.7646,-3.7278,-3.7308,-3.7496,-3.7496,-3.7496,-3.7496,-3.7496,-3.7496,-3.7496,-3.7496,-3.7221,-3.674,-3.5899,-3.5646,-3.5501,-3.4842,-3.4641,-3.458,-3.4313,-3.4255,-3.4255,-3.4255,-3.4105,-3.4012,-3.4012,-3.4148,-3.4284,-3.4442,-3.4445,-3.4508,-3.4674,-3.4694,-3.4694,-3.4694,-3.4694,-3.4744,-3.4889,-3.4908,-3.4954,-3.5096,-3.5105,-3.5166,-3.5289,-3.5297,-3.5361,-3.5493,-3.55,-3.55,-3.55,-3.55,-3.55,-3.55,-3.5162,-3.4333,-3.3099,-3.2761,-3.1915,-2.5686,-2.5597,-2.5387,-2.4515,-2.4403,-2.4277,0.0,0.0,0.0,-2.5007,-2.4298,-2.4067,-2.6002,-2.5869,-2.572,-2.6449,-2.7457,-2.8119,-2.7985,-2.9393,-3.0591,-3.0954,-3.1106,-3.119,-3.119,-3.1072,-3.1055,-3.119,-3.1072,-3.1055,-3.119,-3.119,-3.119,-3.119,-3.119,-3.119,-3.119,-3.119,-3.119,-3.119,-3.119,-3.119,-3.119,-3.119,-3.119,-3.1224,-3.1836,-3.209,-3.2181,-3.3198,-3.3721,-3.3917,-3.4605,-3.5506,-3.6281,-3.5683,-3.5755,-3.615,-3.6072,-3.6087,-3.615,-3.6072,-3.6087,-3.6146,-3.5981,-3.5988,-3.5862,-3.5004,-3.4766,-3.4619,-3.3972,-3.3807,-3.3807,-3.3807,-3.3807,-3.3807,-3.3807,-3.3807,-3.3807,-3.3807,-3.3807,-3.3863,-3.4093,-3.4123,-3.4206,-3.4494,-3.4537,-3.4537,-3.4537,-3.4537,-3.4559,-3.4612,-3.4593,-3.4632,-3.4684,-3.4694,-3.4784,-3.5008,-3.5016,-3.5122,-3.5346,-3.541,-3.5446,-3.55,-3.55,-3.546,-3.5424,-3.5467,-3.4623,-3.2986,-3.3114,-3.2269,-2.5778,-2.5597,-2.5292,-2.395,-2.4063,-2.3998,-2.2021,0.0,-2.241,-2.194,0.0,-2.1891,-2.2801,0.0,0.0,-2.3809,-2.5226,-2.6008,-2.5417,-2.6718,-2.8373,-3.0036,-3.0801,-3.119,-3.119,-3.0615,-3.0497,-3.114,-3.0598,-3.0514,-3.1157,-3.119,-3.119,-3.119,-3.119,-3.119,-3.119,-3.119,-3.119,-3.119,-3.119,-3.119,-3.119,-3.119,-3.119,-3.119,-3.1275,-3.1309,-3.1345,-3.1472,-3.1936,-3.2664,-3.4285,-3.4977,-3.51,-3.5011,-3.5283,-3.5612,-3.5198,-3.5332,-3.5612,-3.5198,-3.5332,-3.555,-3.4829,-3.4856,-3.4986,-3.4174,-3.3935,-3.3917,-3.3825,-3.3807,-3.3807,-3.3807,-3.3807,-3.3807,-3.3807,-3.3807,-3.3807,-3.3807,-3.3807,-3.3802,-3.3842,-3.3855,-3.3868,-3.3908,-3.3908,-3.3908,-3.3908,-3.3908,-3.3986,-3.4242,-3.4265,-3.4379,-3.4674,-3.4694,-3.4704,-3.4734,-3.4753,-3.4754,-3.4784,-3.5016,-3.5266,-3.55,-3.55,-3.5376,-3.5157,-3.5383,-3.4609,-3.2903,-3.2981,-3.2124,-2.5678,-2.5904,-2.5891,-2.4452,-2.4612,-2.458,-2.2442,-2.2183,-2.2313,-2.2005,0.0,0.0,0.0,0.0,0.0,0.0,-2.3846,-2.4522,-2.4244,-2.5256,-2.6494,-2.7741,-2.8179,-2.8568,-2.9063,-2.9231,-2.9454,-2.9888,-2.9911,-3.0111,-3.0548,-3.097,-3.119,-3.119,-3.119,-3.119,-3.119,-3.119,-3.119,-3.119,-3.119,-3.119,-3.119,-3.119,-3.119,-3.119,-3.119,-3.119,-3.119,-3.119,-3.1376,-3.1724,-3.2466,-3.3185,-3.3737,-3.3264,-3.3405,-3.3775,-3.3575,-3.3643,-3.3775,-3.3558,-3.3643,-3.3737,-3.34,-3.3405,-3.3553,-3.3466,-3.3447,-3.3508,-3.3734,-3.3638,-3.3447,-3.3447,-3.324,-3.3042,-3.3042,-3.3255,-3.3447,-3.3447,-3.3634,-3.3807,-3.3807,-3.3807,-3.3807,-3.3807,-3.3807,-3.3807,-3.3807,-3.3807,-3.3842,-3.3948,-3.3974,-3.4024,-3.4172,-3.4184,-3.4237,-3.4401,-3.4582,-3.4694,-3.4694,-3.4822,-3.4926,-3.5025,-3.5044,-3.4981,-3.4879,-3.4981,-3.415,-3.2491,-3.2808,-3.2066,-2.6423,-2.658,-2.6493,-2.5208,-2.5104,-2.479,-2.2831,-2.2556,-2.2637,-2.2442,-2.2135,0.0,0.0,0.0,0.0,0.0,0.0,-2.3504,-2.3112,-2.3802,-2.4761,-2.5843,-2.6325,-2.6911,-2.7754,-2.7955,-2.828,-2.8868,-2.9093,-2.9343,-2.9692,-3.0664,-3.1069,-3.0827,-3.1069,-3.119,-3.119,-3.119,-3.119,-3.119,-3.119,-3.119,-3.119,-3.119,-3.119,-3.119,-3.119,-3.119,-3.119,-3.119,-3.119,-3.119,-3.119,-3.173,-3.2433,-3.1865,-3.1915,-3.2299,-3.2179,-3.2144,-3.2144,-3.2144,-3.2213,-3.2316,-3.2316,-3.2401,-3.2567,-3.2921,-3.3014,-3.3075,-3.3375,-3.3225,-3.3014,-3.3014,-3.2745,-3.2501,-3.2501,-3.2761,-3.3014,-3.3014,-3.324,-3.3447,-3.3447,-3.3634,-3.3807,-3.3807,-3.3807,-3.3807,-3.3807,-3.3807,-3.3807,-3.3807,-3.3807,-3.3807,-3.3807,-3.3807,-3.3876,-3.408,-3.4318,-3.4494,-3.4561,-3.4561,-3.4612,-3.4694,-3.4694,-3.4653,-3.4561,-3.4653,-3.3918,-3.2436,-3.2668,-3.1917,-2.8511,-2.7665,-2.6822,-2.6049,-2.5199,-2.4159,-2.2718,-2.2945,-2.3253,-2.2556,-2.2945,-2.3431,-2.3447,0.0,0.0,0.0,0.0,0.0,0.0,-2.2021,-2.3144,-2.4928,-2.639,-2.757,-2.8301,-2.7103,-2.696,-2.8596,-2.8062,-2.7978,-2.8716,-3.0299,-3.0774,-2.9875,-3.074,-3.119,-3.119,-3.119,-3.119,-3.119,-3.119,-3.119,-3.119,-3.119,-3.119,-3.119,-3.119,-3.119,-3.119,-3.119,-3.119,-3.119,-3.119,-3.1227,-3.1263,-3.1247,-3.1487,-3.1771,-3.137,-3.1249,-3.1249,-3.1249,-3.1507,-3.1825,-3.1825,-3.2127,-3.2501,-3.2517,-3.2517,-3.2534,-3.2534,-3.2534,-3.2517,-3.2517,-3.2517,-3.2501,-3.2501,-3.2517,-3.2517,-3.2517,-3.2534,-3.2534,-3.2534,-3.324,-3.3807,-3.3807,-3.3807,-3.3807,-3.3807,-3.3807,-3.3807,-3.3807,-3.3807,-3.3807,-3.3807,-3.3807,-3.3788,-3.3802,-3.3815,-3.3954,-3.4218,-3.4211,-3.4368,-3.4684,-3.4694,-3.454,-3.4211,-3.454,-3.4105,-3.2966,-3.2655,-3.1615,-2.7879,-2.7486,-2.6845,-2.5611,-2.5309,-2.4913,-2.3458,-2.3658,-2.4001,-2.3372,-2.3846,-2.4206,-2.3716,0.0,0.0,0.0,0.0,0.0,0.0,-2.1827,-2.2005,-2.2943,-2.4142,-2.484,-2.4644,-2.5466,-2.6081,-2.6311,-2.6868,-2.7437,-2.7943,-2.9427,-3.0191,-2.9996,-3.0779,-3.119,-3.119,-3.119,-3.119,-3.119,-3.119,-3.119,-3.119,-3.119,-3.119,-3.119,-3.119,-3.119,-3.119,-3.119,-3.119,-3.119,-3.119,-3.119,-3.119,-3.119,-3.1291,-3.1372,-3.1249,-3.119,-3.119,-3.119,-3.1291,-3.1391,-3.1391,-3.1507,-3.1712,-3.1968,-3.2039,-3.2109,-3.2417,-3.2264,-3.2039,-3.2039,-3.1824,-3.1638,-3.1638,-3.1842,-3.2039,-3.2039,-3.2299,-3.2501,-3.2501,-3.2727,-3.306,-3.3361,-3.3638,-3.3807,-3.3807,-3.3807,-3.3807,-3.3807,-3.3807,-3.3694,-3.3437,-3.3121,-3.3057,-3.3375,-3.339,-3.356,-3.391,-3.3954,-3.3986,-3.4099,-3.4099,-3.4049,-3.3954,-3.4049,-3.363,-3.2711,-3.2257,-3.1525,-2.8185,-2.7835,-2.7261,-2.6293,-2.6036,-2.5748,-2.4767,-2.5058,-2.5387,-2.48,-2.5064,-2.5153,-2.4374,0.0,0.0,0.0,0.0,0.0,0.0,-2.1375,-2.1166,-2.1563,-2.2487,-2.3125,-2.319,-2.3759,-2.4351,-2.4941,0.0,0.0,0.0,-2.8037,-2.885,-2.8658,-2.9663,-3.0202,-3.0202,-3.0427,-3.0559,-3.0559,-3.0559,-3.0559,-3.0559,-3.0559,-3.0559,-3.0559,-3.0559,-3.0559,-3.0559,-3.0559,-3.0679,-3.0858,-3.0638,-3.0679,-3.0898,-3.1131,-3.119,-3.119,-3.119,-3.119,-3.119,-3.119,-3.119,-3.119,-3.119,-3.119,-3.1252,-3.1507,-3.1584,-3.1658,-3.1968,-3.1806,-3.1584,-3.1584,-3.1389,-3.119,-3.119,-3.1391,-3.1584,-3.1584,-3.1824,-3.2039,-3.2039,-3.2161,-3.24,-3.2872,-3.3166,-3.3328,-3.3328,-3.3328,-3.3328,-3.3328,-3.3328,-3.3225,-3.2983,-3.2665,-3.2632,-3.2937,-3.2952,-3.3075,-3.3328,-3.3508,-3.3578,-3.3578,-3.3721,-3.3807,-3.3807,-3.3807,-3.3532,-3.2999,-3.2089,-3.144]},{"header":{"parameterUnit":"m.s-1","parameterCategory":1,"la1":30.6,"la2":29.2853,"lo1":-89.7004,"lo2":-87.6739,"dy":0.0162,"dx":0.0183,"nx":112,"ny":82,"refTime":"2024-03-16T18:00:00:Z","depth":0,"parameterNumber":3,"parameterNumberName":"V-component_of_WINDS"},"data":[0.0,0.0,0.0,0.0,0.0,0.0,0.0,0.0,0.0,0.0,0.0,0.0,0.0,0.0,0.0,0.0,0.0,0.0,0.0,0.0,0.0,0.0,0.0,0.0,0.0,0.0,0.0,0.0,0.0,0.0,0.0,0.0,0.0,0.0,0.0,0.0,0.0,0.0,0.0,0.0,0.0,0.0,0.0,0.0,0.0,0.0,0.0,0.0,0.0,0.0,0.0,0.0,0.0,0.0,0.0,0.0,0.0,0.0,0.0,0.0,0.0,0.0,0.0,0.0,0.0,0.0,0.0,0.0,0.0,0.0,0.0,0.0,0.0,0.0,0.0,0.0,0.0,0.0,0.0,0.0,0.0,0.0,0.0,0.0,0.0,0.0,0.0,0.0,0.0,0.0,-1.3403,-1.306,-1.4238,-1.524,-1.5761,-1.5319,-1.4925,-1.4694,0.0,0.0,0.0,0.0,0.0,0.0,0.0,0.0,0.0,0.0,0.0,0.0,0.0,0.0,0.0,0.0,0.0,0.0,0.0,0.0,0.0,0.0,0.0,0.0,0.0,0.0,0.0,0.0,0.0,0.0,0.0,0.0,0.0,0.0,0.0,0.0,0.0,0.0,0.0,0.0,0.0,0.0,0.0,0.0,0.0,0.0,0.0,0.0,0.0,0.0,0.0,0.0,0.0,0.0,0.0,0.0,0.0,0.0,0.0,0.0,0.0,0.0,0.0,0.0,0.0,0.0,0.0,0.0,0.0,0.0,0.0,0.0,0.0,0.0,0.0,0.0,0.0,0.0,0.0,0.0,0.0,0.0,0.0,0.0,0.0,0.0,0.0,0.0,0.0,0.0,0.0,0.0,0.0,0.0,0.0,0.0,0.0,0.0,0.0,0.0,0.0,0.0,0.0,0.0,-1.3461,-1.4474,-1.5207,-1.5691,-1.5797,-1.5726,-1.5402,-1.4735,0.0,0.0,0.0,0.0,0.0,0.0,0.0,0.0,0.0,0.0,0.0,0.0,0.0,0.0,0.0,0.0,0.0,0.0,0.0,0.0,0.0,0.0,0.0,0.0,0.0,0.0,0.0,0.0,0.0,0.0,0.0,0.0,0.0,0.0,0.0,0.0,0.0,0.0,0.0,0.0,0.0,0.0,0.0,0.0,0.0,0.0,0.0,0.0,0.0,0.0,0.0,0.0,0.0,0.0,0.0,0.0,0.0,0.0,0.0,0.0,0.0,0.0,0.0,0.0,0.0,0.0,0.0,0.0,0.0,0.0,0.0,0.0,0.0,0.0,0.0,0.0,0.0,0.0,0.0,0.0,0.0,0.0,0.0,0.0,0.0,0.0,0.0,0.0,0.0,0.0,0.0,0.0,0.0,0.0,0.0,0.0,0.0,0.0,0.0,0.0,0.0,0.0,0.0,-1.3802,-1.4164,-1.5261,-1.5647,-1.5805,-1.5805,-1.5805,-1.548,-1.4768,-1.4437,0.0,0.0,0.0,0.0,0.0,0.0,0.0,0.0,0.0,0.0,0.0,0.0,0.0,0.0,0.0,0.0,0.0,0.0,0.0,0.0,0.0,0.0,0.0,0.0,0.0,0.0,0.0,0.0,0.0,0.0,0.0,0.0,0.0,0.0,0.0,0.0,0.0,0.0,0.0,0.0,0.0,0.0,0.0,0.0,0.0,0.0,0.0,0.0,0.0,0.0,0.0,0.0,0.0,0.0,0.0,0.0,0.0,0.0,0.0,0.0,0.0,0.0,0.0,0.0,0.0,0.0,0.0,0.0,0.0,0.0,0.0,0.0,0.0,0.0,0.0,0.0,0.0,0.0,0.0,0.0,0.0,0.0,0.0,0.0,0.0,0.0,0.0,0.0,0.0,0.0,0.0,0.0,0.0,0.0,0.0,0.0,0.0,0.0,0.0,0.0,0.0,0.0,-1.4873,-1.502,-1.5736,-1.5805,-1.5805,-1.5805,-1.572,-1.5386,-1.4726,-1.4598,0.0,0.0,0.0,0.0,0.0,0.0,0.0,0.0,0.0,0.0,0.0,0.0,0.0,0.0,0.0,0.0,0.0,0.0,0.0,0.0,0.0,0.0,0.0,0.0,0.0,0.0,0.0,0.0,0.0,0.0,0.0,0.0,0.0,0.0,0.0,0.0,0.0,0.0,0.0,0.0,0.0,0.0,0.0,0.0,0.0,0.0,0.0,0.0,0.0,0.0,0.0,0.0,0.0,0.0,0.0,0.0,0.0,0.0,0.0,0.0,0.0,0.0,0.0,0.0,0.0,0.0,0.0,0.0,0.0,0.0,0.0,0.0,0.0,0.0,0.0,0.0,0.0,0.0,0.0,0.0,0.0,0.0,0.0,0.0,0.0,0.0,0.0,0.0,0.0,0.0,0.0,0.0,0.0,0.0,0.0,0.0,0.0,0.0,0.0,0.0,0.0,0.0,-1.53,-1.5736,-1.5797,-1.5805,-1.5805,-1.5805,-1.5463,-1.5095,-1.4709,-1.4341,0.0,0.0,0.0,0.0,0.0,0.0,0.0,0.0,0.0,0.0,0.0,0.0,0.0,0.0,0.0,0.0,0.0,0.0,0.0,0.0,0.0,0.0,0.0,0.0,0.0,0.0,0.0,0.0,0.0,0.0,0.0,0.0,0.0,0.0,0.0,0.0,0.0,0.0,0.0,0.0,0.0,0.0,0.0,0.0,0.0,0.0,0.0,0.0,0.0,0.0,0.0,0.0,0.0,0.0,0.0,0.0,0.0,0.0,0.0,0.0,0.0,0.0,0.0,0.0,0.0,0.0,0.0,0.0,0.0,0.0,0.0,0.0,0.0,0.0,0.0,0.0,0.0,0.0,0.0,0.0,0.0,0.0,0.0,0.0,0.0,0.0,0.0,0.0,0.0,0.0,0.0,0.0,0.0,0.0,0.0,0.0,0.0,0.0,0.0,0.0,0.0,0.0,-1.512,-1.5531,-1.578,-1.5805,-1.5805,-1.5805,-1.5668,-1.5326,-1.4726,0.0,0.0,0.0,0.0,0.0,0.0,0.0,0.0,0.0,0.0,0.0,0.0,0.0,0.0,0.0,0.0,0.0,0.0,0.0,0.0,0.0,0.0,0.0,0.0,0.0,0.0,0.0,0.0,0.0,0.0,0.0,0.0,0.0,0.0,0.0,0.0,0.0,0.0,0.0,0.0,0.0,0.0,0.0,0.0,0.0,0.0,0.0,0.0,0.0,0.0,0.0,0.0,0.0,0.0,0.0,0.0,0.0,0.0,0.0,0.0,0.0,0.0,0.0,0.0,0.0,0.0,0.0,0.0,0.0,0.0,0.0,0.0,0.0,0.0,0.0,0.0,0.0,0.0,0.0,0.0,0.0,0.0,0.0,0.0,0.0,0.0,0.0,0.0,0.0,0.0,0.0,0.0,0.0,0.0,0.0,0.0,0.0,0.0,0.0,0.0,0.0,0.0,-1.4649,-1.5103,-1.5506,-1.5771,-1.5805,-1.5805,-1.5805,-1.5685,-1.5352,-1.4726,0.0,0.0,0.0,0.0,0.0,0.0,0.0,0.0,0.0,0.0,0.0,0.0,0.0,0.0,0.0,0.0,0.0,0.0,0.0,0.0,0.0,0.0,0.0,0.0,0.0,0.0,0.0,0.0,0.0,0.0,0.0,0.0,0.0,0.0,0.0,0.0,0.0,0.0,0.0,0.0,0.0,0.0,0.0,0.0,0.0,0.0,0.0,0.0,0.0,0.0,0.0,0.0,0.0,0.0,0.0,0.0,0.0,0.0,0.0,0.0,0.0,0.0,0.0,0.0,0.0,0.0,0.0,0.0,0.0,0.0,0.0,0.0,0.0,0.0,0.0,0.0,0.0,0.0,0.0,0.0,0.0,0.0,0.0,0.0,0.0,0.0,0.0,0.0,0.0,0.0,0.0,0.0,0.0,0.0,0.0,0.0,0.0,0.0,0.0,0.0,0.0,0.0,-1.4684,-1.5343,-1.5805,-1.5805,-1.5805,-1.5805,-1.5805,-1.5446,-1.5069,0.0,0.0,0.0,0.0,0.0,0.0,0.0,0.0,0.0,0.0,0.0,0.0,0.0,0.0,0.0,0.0,0.0,0.0,0.0,0.0,0.0,0.0,0.0,0.0,0.0,0.0,0.0,0.0,0.0,0.0,0.0,0.0,0.0,0.0,0.0,0.0,0.0,0.0,0.0,0.0,0.0,0.0,0.0,0.0,0.0,0.0,0.0,0.0,0.0,0.0,0.0,0.0,0.0,0.0,0.0,0.0,0.0,0.0,0.0,0.0,0.0,0.0,0.0,0.0,0.0,0.0,0.0,0.0,0.0,0.0,0.0,0.0,0.0,0.0,0.0,0.0,0.0,0.0,0.0,0.0,0.0,0.0,0.0,0.0,0.0,0.0,0.0,0.0,0.0,0.0,0.0,0.0,0.0,0.0,0.0,0.0,0.0,0.0,0.0,0.0,0.0,0.0,0.0,-1.4649,-1.5343,-1.5805,-1.5805,-1.5805,-1.5805,-1.5805,-1.5694,-1.536,-1.4726,0.0,0.0,0.0,0.0,0.0,0.0,0.0,0.0,0.0,0.0,0.0,0.0,0.0,0.0,0.0,0.0,0.0,0.0,0.0,0.0,0.0,0.0,0.0,0.0,0.0,0.0,0.0,0.0,0.0,0.0,0.0,0.0,0.0,0.0,0.0,0.0,0.0,0.0,0.0,0.0,0.0,0.0,0.0,0.0,0.0,0.0,0.0,0.0,0.0,0.0,0.0,0.0,0.0,0.0,0.0,0.0,0.0,0.0,0.0,0.0,0.0,0.0,0.0,0.0,0.0,0.0,0.0,0.0,0.0,0.0,0.0,0.0,0.0,0.0,0.0,0.0,0.0,0.0,0.0,0.0,0.0,0.0,0.0,0.0,0.0,0.0,0.0,0.0,0.0,0.0,0.0,0.0,0.0,0.0,0.0,0.0,0.0,0.0,0.0,0.0,0.0,0.0,-1.4632,-1.5343,-1.5805,-1.5805,-1.5805,-1.5805,-1.5805,-1.5805,-1.548,-1.4768,0.0,0.0,0.0,0.0,0.0,0.0,0.0,0.0,0.0,0.0,0.0,0.0,0.0,0.0,0.0,0.0,0.0,0.0,0.0,0.0,0.0,0.0,0.0,0.0,0.0,0.0,0.0,0.0,0.0,0.0,0.0,0.0,0.0,0.0,0.0,0.0,0.0,0.0,0.0,0.0,0.0,0.0,0.0,0.0,0.0,0.0,0.0,0.0,0.0,0.0,0.0,0.0,0.0,0.0,0.0,0.0,0.0,0.0,0.0,0.0,0.0,0.0,0.0,0.0,0.0,0.0,0.0,0.0,0.0,0.0,0.0,0.0,0.0,0.0,0.0,0.0,0.0,0.0,0.0,0.0,0.0,0.0,0.0,0.0,0.0,0.0,0.0,0.0,0.0,0.0,0.0,0.0,0.0,0.0,0.0,0.0,0.0,0.0,0.0,0.0,0.0,0.0,-1.4632,-1.5343,-1.5805,-1.5805,-1.5805,-1.5805,-1.5805,-1.5805,-1.548,-1.4768,0.0,0.0,0.0,0.0,0.0,0.0,0.0,0.0,0.0,0.0,0.0,0.0,0.0,0.0,0.0,0.0,0.0,0.0,0.0,0.0,0.0,0.0,0.0,0.0,0.0,0.0,0.0,0.0,0.0,0.0,0.0,0.0,0.0,0.0,0.0,0.0,0.0,0.0,0.0,0.0,0.0,0.0,0.0,0.0,0.0,0.0,0.0,0.0,0.0,0.0,0.0,0.0,0.0,0.0,0.0,0.0,0.0,0.0,0.0,0.0,-0.4312,-0.4127,0.0,0.0,0.0,0.0,0.0,0.0,0.0,0.0,0.0,0.0,0.0,0.0,0.0,0.0,0.0,0.0,0.0,0.0,0.0,0.0,0.0,0.0,0.0,0.0,0.0,0.0,0.0,0.0,0.0,0.0,0.0,0.0,0.0,0.0,0.0,0.0,0.0,0.0,0.0,0.0,-1.4598,-1.5343,-1.5805,-1.5805,-1.5805,-1.5805,-1.5805,-1.5805,-1.548,-1.4768,-1.423,0.0,0.0,0.0,0.0,0.0,0.0,0.0,0.0,0.0,0.0,0.0,0.0,0.0,0.0,0.0,0.0,0.0,0.0,0.0,0.0,0.0,0.0,0.0,0.0,0.0,0.0,0.0,0.0,0.0,0.0,0.0,0.0,0.0,0.0,0.0,0.0,0.0,0.0,0.0,0.0,0.0,0.0,0.0,0.0,0.0,0.0,0.0,0.0,0.0,0.0,0.0,0.0,0.0,0.0,0.0,0.0,0.0,0.0,0.0,-0.468,-0.4651,0.0,0.0,0.0,0.0,0.0,0.0,0.0,0.0,0.0,0.0,0.0,0.0,0.0,0.0,0.0,0.0,0.0,0.0,0.0,0.0,0.0,0.0,0.0,0.0,0.0,0.0,0.0,0.0,0.0,0.0,0.0,0.0,0.0,0.0,0.0,0.0,0.0,0.0,0.0,0.0,-1.4607,-1.5343,-1.5805,-1.5805,-1.5805,-1.5805,-1.5805,-1.5805,-1.548,-1.4768,-1.4316,0.0,0.0,0.0,0.0,0.0,0.0,0.0,0.0,0.0,0.0,0.0,0.0,0.0,0.0,0.0,0.0,0.0,0.0,0.0,0.0,0.0,0.0,0.0,0.0,0.0,0.0,0.0,0.0,0.0,0.0,0.0,0.0,0.0,0.0,0.0,0.0,0.0,0.0,0.0,0.0,0.0,0.0,0.0,0.0,0.0,0.0,0.0,0.0,0.0,0.0,0.0,0.0,0.0,-0.5035,-0.5035,-0.5035,-0.5035,-0.5283,-0.5679,-0.5191,-0.5362,-0.5973,-0.5506,0.0,0.0,0.0,0.0,0.0,0.0,0.0,0.0,0.0,0.0,0.0,0.0,0.0,0.0,0.0,0.0,0.0,0.0,0.0,0.0,0.0,0.0,-0.9315,-0.9315,-0.9249,-0.9257,-0.9517,0.0,0.0,0.0,0.0,0.0,0.0,0.0,0.0,0.0,0.0,0.0,-1.4718,-1.5317,-1.5703,-1.5703,-1.5643,-1.5608,-1.5608,-1.5608,-1.5317,-1.4624,-1.4273,-1.3793,0.0,0.0,0.0,0.0,0.0,0.0,0.0,0.0,0.0,0.0,0.0,0.0,0.0,0.0,0.0,0.0,0.0,0.0,0.0,0.0,0.0,0.0,0.0,0.0,0.0,0.0,0.0,0.0,0.0,0.0,0.0,0.0,0.063,0.0581,0.0,0.0,0.0,0.0,0.0,0.0,0.0,0.0,0.0,0.0,0.0,0.0,0.0,-0.4844,-0.6417,-0.642,-0.642,-0.642,-0.642,-0.642,-0.642,-0.642,-0.6471,-0.6528,-0.6447,0.0,-0.6027,-0.6423,0.0,0.0,0.0,0.0,0.0,0.0,0.0,0.0,0.0,0.0,0.0,0.0,0.0,0.0,0.0,0.0,0.0,0.0,0.0,0.0,0.0,0.0,-1.0574,-1.0574,-1.029,-1.006,-1.0147,-1.0474,-1.0721,-1.0592,-1.1055,-1.1454,0.0,0.0,0.0,0.0,0.0,0.0,-1.5052,-1.5232,-1.5292,-1.5292,-1.5018,-1.4862,-1.4862,-1.4862,-1.4641,-1.4204,-1.4127,-1.3905,-1.3459,-1.3091,0.0,0.0,0.0,0.0,0.0,0.0,0.0,0.0,0.0,0.0,0.0,0.0,0.0,0.0,0.0,0.0,0.0,0.0,0.0,0.0,0.0,0.0,0.0,0.0,0.0,0.0,0.0,0.0,0.0,0.1106,0.0918,0.1109,0.0758,0.0574,0.0,0.0,0.0,0.0,0.0,0.0,0.0,0.0,0.0,-0.3302,-0.4223,-0.5378,-0.6782,-0.6827,-0.6868,-0.6906,-0.6906,-0.6906,-0.6906,-0.6906,-0.6905,-0.6827,-0.6827,-0.6668,-0.6393,-0.6496,-0.6603,-0.673,0.0,0.0,0.0,0.0,-0.8235,-0.8744,-0.9677,-1.0303,-1.071,-1.1034,0.0,0.0,0.0,0.0,0.0,0.0,0.0,-0.9984,-1.0184,-1.0544,-1.0825,-1.0614,-1.0841,-1.0972,-1.0455,-1.0783,-1.0976,-1.0488,-1.11,-1.1742,-1.1757,-1.2075,0.0,0.0,0.0,-1.4213,-1.4547,-1.4778,-1.4915,-1.4915,-1.4778,-1.4684,-1.4684,-1.4684,-1.4521,-1.4119,-1.4093,-1.3922,-1.3528,-1.3168,-1.2877,0.0,0.0,0.0,0.0,0.0,0.0,0.0,0.0,0.0,0.0,0.0,0.0,0.0,0.0,0.0,0.0,0.0,0.0,0.0,0.0,0.0,0.0,0.0,0.0,0.0,0.0,0.0,0.0,0.1226,0.1024,0.1291,0.0841,0.0623,0.0,0.0,0.0,0.0,0.0,0.0,0.0,-0.119,-0.2349,-0.339,-0.4645,-0.5842,-0.7055,-0.7099,-0.7109,-0.7213,-0.7213,-0.7213,-0.7213,-0.7213,-0.7156,-0.7099,-0.7099,-0.7014,-0.6848,-0.6552,-0.6581,-0.6856,-0.6595,-0.6816,-0.7433,-0.8215,-0.8829,-0.9427,-1.0796,-1.1401,-1.1693,-1.2158,-1.2161,-1.1873,-1.1278,0.0,0.0,0.0,0.0,-1.0776,-1.0697,-1.0972,-1.1201,-1.0962,-1.1299,-1.1544,-1.0918,-1.1357,-1.1526,-1.0438,-1.0858,-1.1561,-1.2027,-1.2382,0.0,-1.3556,-1.3913,-1.4136,-1.423,-1.441,-1.4562,-1.4562,-1.4444,-1.4384,-1.4384,-1.4384,-1.4256,-1.3964,-1.3947,-1.381,-1.3519,-1.3254,-1.2966,-1.2543,0.0,0.0,0.0,0.0,0.0,0.0,0.0,0.0,0.0,0.0,0.0,0.0,0.0,0.0,0.0,0.0,0.0,0.0,0.0,0.0,0.0,0.0,0.0,0.0,0.0,0.0,0.0,0.0,0.0,0.0566,0.054,0.0,0.0,0.0,0.0,0.0484,0.0198,0.0,0.0,-0.1269,-0.2537,-0.3746,-0.5074,-0.6331,-0.7563,-0.7567,-0.757,-0.7577,-0.7577,-0.7577,-0.7577,-0.7577,-0.7573,-0.7567,-0.7567,-0.7478,-0.7347,-0.6861,-0.6634,-0.6577,-0.7066,-0.7663,-0.8258,-0.8496,-0.9707,-1.1228,-1.0942,-1.1446,-1.2248,-1.2298,-1.1752,-1.1114,-1.1317,-1.0783,0.0,0.0,-1.1326,-1.1504,-1.2055,-1.2208,-1.2221,-1.2221,-1.1798,-1.1495,-1.1779,-1.2454,-1.2417,-1.0406,-1.0069,-1.0403,-1.1361,0.0,-1.25,-1.3882,-1.4084,-1.423,-1.4607,-1.4341,-1.4127,-1.4127,-1.3793,-1.3571,-1.3571,-1.3571,-1.3554,-1.3536,-1.3536,-1.3528,-1.3511,-1.3485,-1.3314,-1.2983,-1.2813,0.0,0.0,0.0,0.0,0.0,0.0,0.0,0.0,0.0,0.0,0.0,0.0,0.0,0.0,0.0,0.0,0.0,0.0,0.0,0.0,0.0,0.0,0.0,0.0,0.0,0.0,0.0,0.0,0.0873,0.0667,0.0,0.0482,0.0489,0.0415,0.0212,0.0087,0.0,0.0,-0.1997,-0.3353,-0.3802,-0.5867,-0.7205,-0.7733,-0.7736,-0.7784,-0.7833,-0.7833,-0.7833,-0.7833,-0.7833,-0.7828,-0.7736,-0.7736,-0.7651,-0.7506,-0.7346,-0.7075,-0.6756,-0.686,-0.7507,-0.8466,-0.9167,-1.0332,-1.1652,-1.2176,-1.257,-1.2852,-1.269,-1.2281,-1.1837,-1.1936,-1.1752,-1.1592,-1.1873,-1.1969,-1.2025,-1.2241,-1.2305,-1.2305,-1.2305,-1.262,-1.2754,-1.2253,-1.2565,-1.2745,-1.2239,-1.2731,-1.3268,-1.3405,-1.3306,-1.3507,-1.431,-1.4034,-1.3768,-1.3913,-1.381,-1.3716,-1.3716,-1.3596,-1.3511,-1.3511,-1.3511,-1.3511,-1.3511,-1.3511,-1.3511,-1.3511,-1.3511,-1.3339,-1.3017,-1.2958,-1.2772,0.0,0.0,0.0,0.0,0.0,0.0,0.0,0.0,0.0,0.0,0.0,0.0,0.0,0.0,0.0,0.0,0.0,0.0,0.0,0.0,0.0,0.0,0.0,0.0,0.0,0.1401,0.1021,0.0904,0.0574,0.0338,0.034,0.0347,0.0221,0.0,0.0,0.0,0.0,-0.2477,-0.3845,-0.3869,-0.6387,-0.7794,-0.7885,-0.7889,-0.7891,-0.7988,-0.7988,-0.7988,-0.7988,-0.7988,-0.7934,-0.7889,-0.7889,-0.7804,-0.7672,-0.7672,-0.7468,-0.7139,-0.6987,-0.7532,-0.8541,-0.9604,-1.0705,-1.1782,-1.2843,-1.3213,-1.3173,-1.2973,-1.2772,-1.2605,-1.2605,-1.2605,-1.2605,-1.2605,-1.2605,-1.2605,-1.2605,-1.2605,-1.2585,-1.2478,-1.2929,-1.3263,-1.2863,-1.32,-1.3781,-1.4313,-1.4243,-1.4205,-1.459,-1.4466,-1.4447,-1.4939,-1.4351,-1.3883,-1.3883,-1.3649,-1.3511,-1.3511,-1.3511,-1.3511,-1.3511,-1.3511,-1.3511,-1.3511,-1.3511,-1.3511,-1.3511,-1.3511,-1.3399,-1.316,-1.3069,-1.2946,-1.2856,0.0,0.0,0.0,0.0,0.0,0.0,0.0,0.0,0.0,0.0,0.0,0.0,0.0,0.0,0.0,0.0,0.0,0.0,0.0,0.0,0.0,0.0,0.0,0.2772,0.2285,0.1683,0.063,0.0219,0.0,0.0,0.0,0.0,0.0,0.0,0.0,0.0,-0.2498,-0.3946,-0.4014,-0.6575,-0.7939,-0.7988,-0.7988,-0.7988,-0.7988,-0.7988,-0.7988,-0.7988,-0.7988,-0.7988,-0.7988,-0.7988,-0.7907,-0.7818,-0.7818,-0.7736,-0.759,-0.7438,-0.7812,-0.8543,-0.9719,-1.0739,-1.1674,-1.2823,-1.3233,-1.3227,-1.3227,-1.322,-1.3213,-1.3213,-1.3213,-1.3213,-1.3213,-1.3213,-1.3213,-1.3213,-1.3213,-1.3133,-1.2871,-1.279,-1.2969,-1.3543,-1.4422,-1.5411,-1.6358,-1.4287,-1.296,-1.478,-1.5074,-1.5236,-1.5758,-1.5147,0.0,-1.4626,-1.4022,-1.3575,-1.3575,-1.3575,-1.3575,-1.3575,-1.3575,-1.3575,-1.3575,-1.3575,-1.3575,-1.3575,-1.3575,-1.3575,-1.3575,-1.3253,-1.3226,-1.3496,0.0,0.0,0.0,0.0,0.0,0.0,0.0,0.0,0.0,0.0,0.0,0.0,0.0,0.0,0.0,0.0,0.0,0.0,0.0,0.0,0.0,0.5761,0.4993,0.2563,0.2026,0.1434,0.0264,0.0046,0.0,0.0,0.0,0.0,0.0,0.0,0.0,0.0,-0.1599,-0.2999,-0.3966,-0.5675,-0.7033,-0.7988,-0.7988,-0.7988,-0.7988,-0.7988,-0.7988,-0.7988,-0.7988,-0.7988,-0.7988,-0.7988,-0.7965,-0.7928,-0.7928,-0.7889,-0.774,-0.7594,-0.8093,-0.896,-0.9265,-1.0529,-1.2248,-1.3454,-1.3707,-1.3487,-1.3487,-1.3347,-1.3213,-1.3213,-1.3213,-1.3213,-1.3213,-1.3213,-1.3213,-1.3213,-1.3213,-1.3186,-1.3106,-1.2951,-1.284,-1.3017,-1.3077,-1.3593,-1.5261,-1.4955,-1.4997,-1.6855,-1.6746,-1.6449,-1.659,-1.5951,-1.5469,-1.5469,-1.5283,-1.5178,-1.5178,-1.5178,-1.5178,-1.5178,-1.5178,-1.5178,-1.5178,-1.5178,-1.5178,-1.5178,-1.5178,-1.5178,-1.5178,-1.4964,-1.5059,0.0,0.0,0.0,0.0,0.0,0.0,0.0,0.0,0.0,0.0,0.0,0.0,0.0,0.0,0.0,0.0,0.0,0.0,0.0,0.0,0.0,0.0,0.6447,0.5882,0.3772,0.286,0.2034,0.0975,0.0333,0.0,0.0,0.0,0.0,0.0,0.0,0.0,0.0,-0.126,-0.2363,-0.3115,-0.5022,-0.6381,-0.7132,-0.7736,-0.7988,-0.7988,-0.7988,-0.7988,-0.7988,-0.7988,-0.7988,-0.7988,-0.7988,-0.7988,-0.7988,-0.7988,-0.7938,-0.7892,0.0,0.0,0.0,0.0,-1.0181,-1.1772,-1.2942,-1.3229,-1.3137,-1.3655,-1.3714,-1.3581,-1.3581,-1.3581,-1.3581,-1.3581,-1.3581,-1.3581,-1.3581,-1.3581,-1.3547,-1.338,-1.316,-1.306,-1.3338,-1.314,-1.3346,-1.4914,-1.5517,0.0,-1.7217,-1.7378,-1.736,-1.736,-1.6741,-1.6248,-1.6248,-1.6002,-1.5804,-1.5804,-1.5804,-1.5804,-1.5804,-1.5804,0.0,0.0,0.0,-1.5804,-1.5804,-1.5804,0.0,0.0,0.0,-1.581,-1.6019,-1.5941,0.0,0.0,-1.6772,-1.7445,0.0,0.0,0.0,0.0,0.0,0.0,0.0,0.0,0.0,0.0,0.0,0.0,0.0,0.0,0.0,0.0,0.6885,0.6773,0.5816,0.4469,0.3181,0.2138,0.0835,0.0,0.0,0.0,0.0,0.0,0.0,0.0,0.0,-0.1109,0.0,0.0,0.0,-0.5677,-0.5979,-0.7185,-0.7839,-0.7988,-0.7988,-0.7988,-0.7988,-0.7988,-0.7988,-0.7988,-0.7988,-0.7988,-0.7988,-0.7988,-0.7988,-0.7975,-0.7872,-0.7733,-0.7745,-0.876,-0.9687,-1.0603,-1.1897,0.0,0.0,-1.3688,-1.4088,-1.4088,-1.4088,-1.4088,-1.4088,-1.4088,-1.4088,-1.4088,-1.4088,-1.4088,-1.4021,-1.372,-1.3433,-1.341,-1.3963,-1.3815,-1.3891,-1.4851,-1.579,-1.6428,-1.6428,-1.732,-1.8008,-1.8008,-1.7441,-1.7025,-1.7025,-1.6449,-1.6039,-1.6039,-1.6039,0.0,-1.6039,-1.6039,-1.6039,-1.6039,-1.6039,-1.6039,-1.6039,-1.6039,-1.6039,-1.6039,-1.6039,-1.6039,-1.6039,-1.6039,-1.6847,-1.8307,-1.8083,-1.8517,0.0,0.0,0.0,0.0,0.0,0.0,0.0,0.0,0.0,0.0,0.0,0.0,0.0,0.0,0.0,0.681,0.7115,0.7365,0.7313,0.6194,0.4484,0.2246,0.0795,0.0,0.0,0.0,0.0,0.0,0.0,0.0,0.0,-0.0252,-0.0907,-0.1962,-0.2515,-0.3819,-0.5979,-0.6279,-0.6933,-0.7988,-0.7988,0.0,-0.7988,-0.7988,-0.7988,-0.7988,-0.7988,-0.7988,-0.7988,-0.7988,-0.7988,-0.7975,-0.7872,-0.7794,-0.7893,-0.8897,-0.9308,-0.9678,-1.1806,-1.2423,-1.2504,-1.3688,-1.4088,-1.4088,-1.4088,-1.4088,0.0,-1.4088,-1.4088,-1.4088,-1.4088,-1.4088,-1.4075,-1.4015,-1.3774,-1.3521,-1.3416,-1.3181,-1.318,-1.3863,-1.4772,-1.5473,-1.5473,-1.6872,-1.8008,-1.8008,-1.7872,-1.7779,-1.7779,-1.7644,-1.7562,-1.7562,-1.7562,-1.7562,-1.7562,-1.7562,-1.7562,-1.7562,-1.7562,-1.7562,-1.7562,-1.7562,-1.7562,-1.7562,-1.7562,-1.7562,-1.7562,-1.7562,-1.8118,-1.9076,-1.9129,-1.9951,0.0,0.0,0.0,0.0,0.0,0.0,0.0,0.0,0.0,0.0,0.0,0.6878,0.7023,0.0,0.7126,0.7217,0.7448,0.7641,0.779,0.6695,0.5199,0.322,0.1801,0.0756,0.005,0.0,0.0,0.0,0.0,0.0,0.0,0.0,-0.0303,-0.0958,-0.1661,-0.2666,-0.3969,-0.5325,-0.6331,-0.6983,-0.7686,-0.7988,-0.7988,-0.7988,-0.7988,-0.7988,-0.7988,-0.7988,-0.7988,-0.7988,-0.7988,-0.7982,-0.7907,-0.7879,-0.7849,-0.8387,-0.8442,-0.862,-1.034,-1.1227,-1.1739,-1.2978,-1.3677,-1.4088,-1.4088,-1.4088,-1.4088,-1.4088,-1.4088,-1.4088,-1.4088,-1.4088,-1.4088,-1.4088,-1.382,-1.356,-1.342,-1.3066,-1.2889,-1.3182,-1.3886,-1.4593,-1.5128,-1.6367,-1.7285,-1.7285,-1.7285,-1.7467,-1.794,-1.8008,-1.8008,-1.8008,-1.8008,-1.8008,-1.8008,-1.8008,-1.8008,-1.8008,-1.8008,-1.8008,-1.8008,-1.8008,-1.8008,-1.8008,-1.8008,-1.8008,-1.8008,-1.8008,-1.8202,-1.8654,-1.9177,-2.0312,0.0,0.0,0.0,0.0,0.0,0.0,0.0,0.0,0.7907,0.7254,0.7126,0.7183,0.7392,0.748,0.7578,0.7627,0.776,0.7855,0.7855,0.7014,0.5877,0.4568,0.2966,0.1561,0.0504,0.0151,0.0,0.0,0.0,0.0,0.0,0.0,0.0,0.0,-0.1058,-0.1762,-0.2013,-0.4121,-0.5477,-0.6029,-0.7083,-0.7739,-0.7988,-0.7988,-0.7988,-0.7988,-0.7988,-0.7988,-0.7988,-0.7988,-0.7988,-0.7988,-0.7988,-0.7914,-0.7855,-0.7855,-0.7767,-0.7779,-0.8937,-1.0012,-1.1105,-1.231,-1.3337,-1.4168,-1.4168,-1.4128,-1.4088,-1.4088,-1.4088,-1.4088,-1.4088,-1.4088,-1.4088,-1.4088,-1.3901,-1.3673,-1.3613,-1.322,-1.2857,-1.2797,-1.3275,-1.3882,-1.4522,-1.5438,-1.6245,-1.6784,-1.6888,-1.7139,-1.7896,-1.8008,-1.8008,-1.8008,-1.8008,-1.8008,-1.8008,-1.8008,-1.8008,-1.8008,-1.8008,-1.8008,-1.8008,-1.8008,-1.8008,-1.8008,-1.8008,-1.8008,-1.8008,-1.8008,-1.8008,-1.8008,-1.8877,-2.0139,1.2375,1.2143,1.1888,1.1788,1.0454,0.9237,0.0,0.0,0.7022,0.7219,0.7172,0.7125,0.7146,0.7487,0.7777,0.778,0.7867,0.7965,0.7965,0.7879,0.7285,0.5929,0.3518,0.1963,0.1812,0.0706,0.0,0.0,0.0,0.0,0.0,0.0,0.0,0.0,-0.0151,-0.0807,-0.2013,-0.2314,-0.362,-0.5979,-0.6129,-0.6833,-0.7988,-0.7988,-0.7988,-0.7988,-0.7988,-0.7988,-0.7988,-0.7988,-0.7988,-0.7988,-0.7988,-0.7978,-0.7965,-0.7965,-0.787,-0.7931,-0.9072,-1.0267,-1.1425,-1.2564,-1.366,-1.4476,-1.4476,-1.4295,-1.4088,-1.4088,-1.4088,-1.4088,-1.4088,-1.4088,-1.4088,-1.4088,-1.4062,-1.3968,-1.366,-1.3387,-1.308,-1.2837,-1.3275,-1.3455,-1.2732,-1.3411,-1.4879,-1.7476,-1.7828,-1.7862,-1.7974,-1.8008,-1.8008,-1.8008,-1.8008,-1.8008,-1.8008,-1.8008,-1.8008,-1.8008,-1.8008,-1.8008,-1.8008,-1.8008,-1.8008,-1.8008,-1.8008,-1.8008,-1.8008,-1.8008,-1.8008,-1.8008,-1.8877,-1.9814,1.236,1.2233,1.2124,1.2124,1.115,1.0119,0.9668,0.8571,0.7502,0.7122,0.7083,0.7149,0.7377,0.7628,0.7841,0.0,0.7948,0.7988,0.7988,0.7988,0.7789,0.7235,0.5475,0.3718,0.2163,0.1511,0.0857,0.005,0.0,0.0,0.0,0.0,0.0,0.0,0.0,-0.0252,-0.0807,-0.1611,-0.2565,-0.3668,-0.447,-0.5525,-0.6833,-0.6833,-0.7285,-0.7988,-0.7988,-0.7988,-0.7988,-0.7988,-0.7988,-0.7988,-0.7988,-0.7988,-0.7988,-0.7988,-0.7948,-0.7992,-0.8479,-0.9848,-1.1512,-1.1972,-1.3344,-1.4743,-1.4569,-1.4436,-1.4302,-1.4135,-1.4088,-1.4088,-1.4088,-1.4088,-1.4088,-1.4088,-1.4088,-1.4055,-1.3928,-1.3633,-1.3333,-1.3073,-1.3109,-1.3163,-1.3127,-1.3455,-1.4314,-1.6088,-1.5877,-1.5913,-1.7035,-1.7182,-1.7389,-1.794,-1.8008,-1.8008,-1.8008,-1.8008,-1.8008,-1.8008,-1.8008,-1.8008,-1.8008,-1.8008,-1.8008,-1.8008,-1.8008,-1.8008,-1.8008,-1.8008,-1.8008,-1.8008,-1.8361,-1.9011,1.2326,1.2311,0.0,1.2405,1.1733,1.0907,1.0282,0.9235,0.8171,0.7593,0.7356,0.7336,0.756,0.775,0.7913,0.7971,0.7988,0.7988,0.7988,0.7988,0.7988,0.7988,0.7135,0.5627,0.3317,0.2414,0.1611,0.0605,0.0202,0.0,0.0,0.0,0.0,0.0,0.0,0.0,0.0,-0.0958,-0.1611,-0.2013,-0.2964,-0.4168,-0.5475,-0.5827,-0.6734,-0.7988,-0.7988,-0.7988,-0.7988,-0.7988,-0.7988,-0.7988,-0.7988,-0.7988,-0.7988,-0.7988,-0.7988,-0.7988,-0.7988,-0.9372,-1.1072,-1.1072,-1.2675,-1.4527,-1.4276,-1.4335,-1.4476,-1.4262,-1.4148,-1.4088,-1.4088,-1.4088,-1.4088,-1.4088,-1.4088,-1.4088,-1.4088,-1.3854,-1.354,-1.3367,-1.3013,-1.2938,-1.338,-1.3368,-1.3564,-1.4307,-1.3774,-1.4019,-1.5965,-1.621,-1.6567,-1.7501,-1.7613,-1.7716,-1.7974,-1.8008,-1.8008,-1.8008,-1.8008,-1.8008,-1.8008,-1.8008,-1.8008,-1.8008,-1.8008,-1.8008,-1.8008,-1.8008,-1.7949,-1.7842,-1.7959,-1.8267,1.2379,1.2337,1.2371,1.2697,1.196,1.1323,1.1729,1.0178,0.8696,0.88,0.8189,0.759,0.7597,0.7838,0.7985,0.7988,0.7988,0.7988,0.7988,0.7988,0.7988,0.7988,0.7988,0.7385,0.0,0.3519,0.1963,0.1963,0.0756,0.0,0.0,0.0,0.0,0.0,0.0,0.0,0.0,-0.0051,-0.0706,-0.2013,-0.2063,-0.2764,-0.4116,-0.5425,-0.6734,-0.7988,-0.7988,-0.7988,-0.7988,-0.7988,-0.7988,-0.7988,-0.7988,-0.7988,-0.7988,-0.7988,-0.7988,-0.7988,-0.7988,-0.892,-1.0038,-1.0038,-1.1586,-1.3426,-1.3421,-1.3948,-1.4516,-1.4509,-1.4302,-1.4088,-1.4088,-1.4088,-1.4088,-1.4088,-1.4088,-1.4088,-1.4088,-1.3854,-1.36,-1.3593,-1.3153,-1.2822,-1.2808,-1.2567,-1.2342,-1.2372,-1.2372,-1.3055,-1.4985,-1.5234,-1.5587,-1.6532,-1.6636,-1.6991,-1.794,-1.8008,-1.8008,-1.8008,-1.8008,-1.8008,-1.8008,-1.8008,-1.8008,-1.8008,-1.8008,-1.8008,-1.8008,-1.8008,-1.7803,-1.7445,-1.7822,-1.7793,1.2594,1.2638,1.271,1.2979,1.2341,1.1694,1.1864,1.0309,0.8857,0.8877,0.8376,0.7943,0.7943,0.816,0.8331,0.8331,0.8121,0.7988,0.7988,0.7988,0.7988,0.7988,0.7988,0.0,0.0,0.0,0.392,0.2113,0.1561,0.0958,0.0051,0.0,0.0,0.0,0.0,0.0,0.0,0.0,-0.0202,-0.0706,-0.1561,-0.2213,-0.2715,-0.4067,-0.5422,-0.6681,-0.6681,-0.7185,-0.7988,-0.7988,-0.7988,-0.7988,-0.7988,-0.7988,-0.7988,-0.7988,-0.7988,-0.7988,-0.7988,-0.8874,-0.9998,-0.9998,-1.1069,-1.2517,-1.3209,-1.3439,-1.3627,-1.43,-1.4309,-1.4088,-1.4088,-1.4088,-1.4088,-1.4088,-1.4088,-1.4088,-1.4088,-1.4008,-1.3881,-1.364,-1.332,-1.3025,-1.2817,-1.2536,-1.2305,-1.2305,-1.2842,-1.3455,-1.4135,-1.4772,-1.5305,-1.5658,-1.6219,-1.674,-1.7035,-1.7647,-1.8008,-1.8008,-1.7744,-1.7598,-1.7598,-1.7314,-1.7126,-1.7126,-1.7126,-1.7126,-1.7126,-1.7126,-1.7236,-1.7393,-1.7529,-1.7666,1.2736,1.286,1.3025,1.3293,1.292,1.2436,1.2105,1.0718,0.941,0.8978,0.8412,0.802,0.8076,0.8264,0.8424,0.8483,0.8238,0.7988,0.7988,0.7988,0.7988,0.7988,0.7988,0.7988,0.0,0.0,0.0,0.3618,0.2565,0.1611,0.0756,0.0252,0.0,0.0,0.0,0.0,0.0,0.0,0.0,0.0,-0.0857,-0.1561,-0.2013,-0.2914,-0.4017,-0.5322,-0.5777,-0.6481,-0.7335,-0.7789,-0.7988,-0.7988,-0.7988,-0.7988,-0.7988,-0.7988,-0.7988,-0.7988,-0.7988,-0.8577,-0.9266,-0.9266,-1.0141,-1.1336,-1.2008,-1.2318,-1.2682,-1.3665,-1.3754,-1.3647,-1.403,-1.4088,-1.4088,-1.4088,-1.4088,-1.4088,-1.4088,-1.4088,-1.4035,-1.3841,-1.3527,-1.3267,-1.3005,-1.2572,-1.2305,-1.2305,-1.2806,-1.32,-1.32,-1.3774,-1.4307,-1.4629,-1.519,-1.586,-1.6532,-1.7139,-1.7647,-1.7974,-1.7764,-1.7539,-1.7425,-1.7109,-1.6863,-1.6707,-1.6853,-1.6963,-1.6963,-1.7087,-1.7256,-1.7393,-1.7539,-1.7676,1.2841,1.3022,1.33,1.3553,1.3626,1.3398,1.2578,1.1515,1.0394,0.9279,0.8496,0.8015,0.0,0.0,0.8316,0.8486,0.822,0.7982,0.7988,0.7988,0.7988,0.0,0.0,0.0,0.0,0.0,0.0,0.6179,0.3668,0.2163,0.2013,0.0807,0.005,0.0,0.0,0.0,0.0,0.0,0.0,0.0,0.0,-0.0656,-0.1913,-0.1913,-0.2614,-0.3966,-0.5222,-0.5827,-0.5979,-0.7335,-0.7889,-0.7889,-0.7988,-0.7988,-0.7988,-0.7988,-0.7988,-0.7988,-0.7988,-0.7988,-0.7988,-0.7988,-0.8871,-0.9899,-0.9998,-1.0628,-1.1598,-1.2625,-1.2697,-1.2718,-1.3681,-1.3913,-1.3955,-1.3997,-1.3997,-1.3997,-1.4088,-1.4088,-1.4088,-1.4088,-1.3848,-1.3507,-1.324,-1.2705,-1.2318,-1.2305,-1.2305,-1.2305,-1.2305,-1.2305,-1.2622,-1.3528,-1.3673,-1.445,-1.628,-1.6498,-1.6922,-1.7872,-1.7852,-1.7692,-1.7402,-1.7321,-1.7126,-1.6707,-1.7139,-1.7344,-1.7353,-1.7754,-1.7754,-1.7393,-1.7793,-1.7773,1.3297,1.3454,1.3567,1.3901,1.3975,1.3904,1.3675,1.2723,1.1766,1.1509,1.0735,1.0007,0.9596,0.0,0.0,0.8696,0.8219,0.0,0.7975,0.7988,0.0,0.7988,0.0,0.7988,0.7988,0.7988,0.0,0.7537,0.5927,0.4121,0.2113,0.1661,0.1008,0.0051,0.0,0.0,0.0,0.0,0.0,0.0,0.0,-0.0202,-0.0504,-0.0504,-0.126,-0.2514,-0.2865,-0.3568,-0.4618,-0.5977,-0.6531,-0.6631,-0.7587,-0.7988,-0.7988,-0.7988,-0.7988,-0.7988,-0.7988,-0.7988,-0.7988,-0.7988,-0.8233,-0.8676,-0.9706,-1.0012,-1.0242,-1.139,-1.1478,-1.1297,-1.1451,-1.1477,-1.1692,-1.2553,-1.2766,-1.3027,-1.3906,-1.4088,-1.4088,-1.4088,-1.3848,-1.344,-1.2991,-1.2777,-1.2596,-1.2338,-1.2305,-1.2305,-1.2305,-1.2305,-1.2372,-1.2629,-1.3273,-1.3882,-1.4414,-1.5119,-1.5974,-1.6888,-1.5979,-1.5997,-1.735,-1.6384,-1.6103,-1.6707,-1.6804,-1.6863,-1.6863,-1.697,-1.7168,-1.7383,-1.7523,-1.7656,1.3474,1.37,1.375,1.3383,1.3294,1.3135,1.2548,1.1868,1.1295,1.1046,1.0729,1.0441,1.008,0.9764,0.947,0.0,0.0,0.0,0.8018,0.7988,0.7988,0.0,0.8099,0.0,0.814,0.8197,0.8235,0.8235,0.6844,0.5325,0.3819,0.2615,0.1661,0.0907,0.0303,0.0,0.0,0.0,0.0,0.0,0.0,0.0,0.0,0.0,-0.0404,-0.1159,-0.1762,-0.2414,-0.3215,-0.457,-0.5475,-0.6079,-0.6833,-0.7484,-0.7988,-0.7988,-0.7988,-0.7988,-0.7988,-0.7988,-0.7988,-0.7988,-0.7988,-0.8137,-0.8874,-0.9003,-0.9067,-1.0119,-1.0278,-1.0346,-1.1126,-1.1338,-1.1643,-1.2814,-1.3069,-1.3294,-1.3955,-1.4088,-1.4088,-1.4088,-1.3848,-1.3453,-1.3065,-1.2878,-1.2683,-1.2345,-1.2305,-1.2305,-1.2305,-1.2305,-1.2305,-1.2305,-1.2769,-1.3237,-1.3673,-1.4207,-1.495,-1.593,-1.5627,-1.5822,-1.6717,-1.6417,-1.6381,-1.6707,-1.6892,-1.7021,-1.7021,-1.7174,-1.7422,-1.7656,-1.7656,-1.7783,1.358,1.3895,1.3822,1.2589,1.2285,1.196,1.0711,1.0382,1.0244,0.9864,1.008,1.0324,1.0196,1.0049,0.9851,0.9602,0.0,0.8438,0.8037,0.7961,0.7968,0.7988,0.816,0.8248,0.832,0.8381,0.8462,0.8479,0.716,0.6268,0.605,0.3823,0.2364,0.2013,0.0706,0.0,0.0,0.0,0.0,0.0,0.0,0.0,0.0,0.0,0.0,-0.005,-0.1209,-0.1712,-0.1862,-0.3165,-0.4418,-0.5477,-0.5677,-0.6531,-0.7739,-0.7739,-0.7839,-0.7988,-0.7988,-0.7988,-0.7988,-0.7988,-0.7988,-0.7988,-0.7988,-0.7988,-0.8171,-0.8891,-0.9072,-0.9485,-1.1152,-1.1595,-1.1943,-1.33,-1.3652,-1.3737,-1.4046,-1.4088,-1.4088,-1.4088,-1.3881,-1.3567,-1.332,-1.3013,-1.2744,-1.2405,-1.2325,-1.2305,-1.2305,-1.2305,-1.2305,-1.2305,-1.2305,-1.2629,-1.3455,-1.3528,-1.3954,-1.495,-1.5755,-1.6164,-1.5995,-1.6826,-1.7154,-1.6882,-1.7275,-1.7471,-1.7471,-1.7832,-1.8008,-1.8008,-1.8008,-1.8008,1.3928,1.4048,1.3822,1.2589,1.2285,1.2172,1.1714,1.1414,0.0,1.2067,1.1869,1.1503,1.121,1.0958,1.0445,0.9362,0.9057,0.8729,0.7956,0.7851,0.7896,0.0,0.8012,0.813,0.831,0.8344,0.0,0.8472,0.8223,0.7513,0.632,0.5672,0.4271,0.2063,0.0706,0.0,0.0,0.0,0.0,0.0,0.0,0.0,0.0,0.0,0.0,0.0,-0.0252,-0.0353,-0.0454,-0.1812,-0.2465,-0.2816,-0.3917,-0.517,-0.6331,-0.6331,-0.7036,-0.7988,-0.7988,-0.7988,-0.7988,-0.7988,-0.7988,-0.7988,-0.7988,-0.7988,-0.7977,-0.7916,-0.7875,-0.7894,-0.7967,-0.8009,-0.8528,-1.0697,-1.1214,-1.174,-1.3695,-1.4088,-1.4088,-1.4088,-1.4048,-1.3915,-1.358,-1.3327,-1.3026,-1.2757,-1.2496,-1.2305,-1.2305,-1.2305,-1.2305,-1.2305,-1.2305,-1.2372,-1.2519,-1.2556,-1.2952,-1.3882,-1.4099,-1.4882,-1.6433,-1.664,-1.7076,-1.7759,-1.7861,-1.79,-1.79,-1.7978,-1.8008,-1.8008,-1.8008,-1.8008,1.4008,1.4088,1.3652,1.1858,1.1852,1.201,1.1007,0.0,0.0,1.1959,1.183,1.1572,1.1427,1.136,0.0,0.9901,0.9591,0.9121,0.8131,0.7904,0.7868,0.7971,0.8109,0.8187,0.8313,0.8336,0.8442,0.8587,0.8526,0.8187,0.7486,0.6635,0.4869,0.2063,0.136,0.0706,0.0,0.0,0.0,0.0,0.0,0.0,0.0,0.0,0.0,0.0,0.0,0.0,-0.0051,-0.0706,-0.136,-0.2063,-0.2715,-0.3767,-0.5022,-0.5727,-0.6431,-0.7083,-0.7736,-0.7988,-0.7988,-0.7988,-0.7988,-0.7988,-0.7988,-0.7988,-0.7928,-0.7682,-0.76,-0.7669,-0.7971,-0.8013,-0.8492,-1.0178,-1.1042,-1.1992,-1.3737,-1.4088,-1.4088,-1.4088,-1.4088,-1.3988,-1.3653,-1.3487,-1.328,-1.2851,-1.2663,-1.2516,-1.2318,-1.2305,-1.2305,-1.2305,-1.2305,-1.2305,-1.2305,-1.2305,-1.2482,-1.2952,-1.3419,-1.4135,-1.5048,-1.5579,-1.6324,-1.7251,-1.7285,-1.7501,-1.8008,-1.8008,-1.8008,-1.8008,-1.8008,-1.8008,1.4008,1.3906,1.3252,1.1429,1.1466,1.1584,1.0273,1.0454,0.0,1.1268,1.1283,1.1263,1.1289,1.1535,1.1393,0.0,1.0082,0.9616,0.8347,0.8,0.7928,0.0,0.8147,0.0,0.832,0.837,0.0,0.8652,0.855,0.8469,0.8438,0.7044,0.5198,0.2918,0.2314,0.1511,0.0454,0.0151,0.0,0.0,0.0,0.0,0.0,0.0,0.0,0.0,0.0,0.0,0.0,0.0,-0.0605,-0.1561,-0.1561,-0.2413,-0.3717,-0.4772,-0.5527,-0.6129,-0.7185,-0.7736,-0.7988,-0.7988,-0.7988,-0.7988,-0.7988,-0.7988,-0.7928,-0.7682,-0.76,-0.7759,-0.8371,-0.8496,-0.8798,-0.9966,-1.1123,-1.2206,-1.3167,-1.3343,-1.3343,-1.3343,-1.3561,-1.3617,-1.3389,-1.3476,-1.344,-1.3045,-1.2864,-1.2697,-1.2425,-1.2345,-1.2305,-1.2305,-1.2305,-1.2305,-1.2305,-1.2305,-1.2305,-1.2305,-1.3164,-1.3709,-1.3709,-1.4665,-1.5552,-1.6289,-1.6498,-1.6957,-1.7681,-1.7896,-1.8008,-1.8008,-1.8008,-1.8008,1.4008,1.3294,1.2413,1.22,1.1423,1.0778,1.0869,0.0,1.0723,1.0974,1.0854,1.0754,1.0982,1.1502,1.1422,1.0003,0.0,1.0152,0.8302,0.8166,0.8193,0.8004,0.0,0.0,0.8306,0.8333,0.835,0.8492,0.8489,0.8425,0.8347,0.6869,0.5887,0.5627,0.3267,0.1963,0.1812,0.0605,0.0,0.0,0.0,0.0,0.0,0.0,0.0,0.0,0.0,0.0,0.0,0.0,-0.005,-0.0202,-0.0202,-0.1008,-0.2213,-0.2314,-0.392,-0.6029,-0.6129,-0.6983,-0.7988,-0.7988,-0.7988,-0.7988,-0.7988,-0.7988,-0.7928,-0.7682,-0.76,-0.7529,-0.7307,-0.7272,-0.7577,-0.8759,-0.9923,-1.0783,-1.0913,-1.0913,-1.0913,-1.0913,-1.1772,-1.245,-1.2426,-1.3089,-1.3586,-1.3527,-1.3093,-1.277,-1.275,-1.2509,-1.2305,-1.2305,-1.2305,-1.2305,-1.2305,-1.2305,-1.2305,-1.2305,-1.3164,-1.3709,-1.3709,-1.4665,-1.5234,-1.534,-1.6184,-1.6636,-1.674,-1.7579,-1.8008,-1.8008,-1.8008,-1.8008,1.37,1.3077,1.2157,1.1466,1.132,1.1147,1.0177,0.0,1.1297,1.1035,1.0794,1.068,1.0942,1.1329,1.1339,1.0609,0.0,0.0,0.8937,0.8404,0.8074,0.7994,0.7988,0.0,0.0,0.0,0.8194,0.8343,0.8357,0.833,0.8327,0.7696,0.6965,0.6032,0.4974,0.4019,0.3215,0.1862,0.1209,0.1209,0.0404,0.0,0.0,0.0,0.0,0.0,0.0,0.0,0.0,0.0,0.0,0.0,0.0,-0.0303,-0.0907,-0.1711,-0.2666,-0.3718,-0.452,-0.517,-0.5722,-0.6528,-0.6783,-0.6933,-0.7736,-0.7988,-0.7944,-0.7787,-0.7665,-0.755,-0.7336,-0.721,-0.7401,-0.8627,-0.9235,-0.9753,-1.0438,-1.0611,-1.0611,-1.0611,-1.095,-1.1295,-1.1295,-1.2118,-1.2768,-1.2608,-1.2835,-1.2998,-1.2811,-1.2522,-1.2305,-1.2305,-1.2305,-1.2305,-1.2305,-1.2305,-1.2305,-1.2305,-1.2666,-1.2842,-1.2842,-1.3237,-1.3738,-1.4279,-1.4665,-1.5155,-1.5755,-1.6715,-1.7173,-1.7182,-1.7759,-1.8008,1.3373,1.2772,1.1937,1.1475,1.1498,1.1341,0.0,0.0,1.157,1.0989,1.0734,1.0653,1.0861,1.1102,1.1184,0.0,0.0,0.9917,0.951,0.8759,0.8247,0.8303,0.0,0.8171,0.8171,0.8064,0.8085,0.8194,0.8204,0.8204,0.8204,0.8204,0.7693,0.6634,0.6229,0.5525,0.4618,0.2865,0.2013,0.1963,0.0656,0.0,0.0,0.0,0.0,0.0,0.0,0.0,0.0,0.0,0.0,0.0,0.0,0.0,-0.0101,-0.1058,-0.1661,-0.2113,-0.3065,-0.3665,-0.4166,-0.512,-0.5425,-0.5675,-0.6983,-0.7686,-0.7958,-0.7855,-0.7675,-0.7495,-0.7343,-0.7221,-0.7316,-0.8145,-0.8364,-0.858,-0.9401,-0.957,-0.957,-0.957,-0.9831,-1.0096,-1.0096,-1.1037,-1.1838,-1.2003,-1.2472,-1.2856,-1.2919,-1.2656,-1.2398,-1.2311,-1.2305,-1.2305,-1.2305,-1.2305,-1.2305,-1.2305,-1.2305,-1.2305,-1.2305,-1.2305,-1.2629,-1.3273,-1.3564,-1.4063,-1.4772,-1.572,-1.6184,-1.621,-1.6862,-1.7329,1.3053,1.2353,1.1782,1.2889,1.2068,1.1168,0.0,1.1643,1.1269,1.0713,1.0593,1.0593,1.0593,1.0834,1.0889,1.0554,1.0233,0.0,0.9829,0.9209,0.8843,0.0,0.0,0.8494,0.8494,0.8196,0.7988,0.7992,0.7992,0.7992,0.7992,0.7992,0.7992,0.7988,0.6681,0.5979,0.5979,0.3317,0.2013,0.1963,0.0656,0.0,0.0,0.0,0.0,0.0,0.0,0.0,0.0,0.0,0.0,0.0,0.0,0.0,0.0,0.0,-0.0857,-0.2013,-0.2013,-0.2914,-0.4016,-0.4016,-0.4016,-0.4268,-0.5627,-0.6933,-0.7958,-0.7855,-0.76,-0.7336,-0.7139,-0.7098,-0.7095,-0.7095,-0.7139,-0.7139,-0.7139,-0.7139,-0.7139,-0.7139,-0.8105,-0.8934,-0.8934,-0.9879,-1.0994,-1.2151,-1.2063,-1.2227,-1.3074,-1.2971,-1.2663,-1.2338,-1.2305,-1.2305,-1.2305,-1.2305,-1.2305,-1.2305,-1.2305,-1.2305,-1.2305,-1.2305,-1.2305,-1.2298,-1.3237,-1.3709,-1.3709,-1.4736,-1.5199,-1.5199,-1.5234,-1.5728,1.2184,1.1596,1.0965,1.1315,1.0885,1.0377,1.0408,1.0784,1.1022,1.0673,1.0593,1.0593,1.0593,1.0667,1.0889,1.1373,1.1015,0.0,0.0,0.0,0.0,0.9056,0.8823,0.8554,0.8213,0.806,0.7988,0.7988,0.7988,0.7988,0.7988,0.7988,0.7988,0.7988,0.7587,0.7385,0.7385,0.5627,0.4722,0.4722,0.2466,0.136,0.136,0.0404,0.0,0.0,0.0,0.0,0.0,0.0,0.0,0.0,0.0,0.0,0.0,0.0,-0.0252,-0.0656,-0.0656,-0.0907,-0.1411,-0.2314,-0.2614,-0.2865,-0.4218,-0.5575,-0.6787,-0.7446,-0.76,-0.7468,-0.7162,-0.7095,-0.7095,-0.7095,-0.7095,-0.7095,-0.7095,-0.7095,-0.7095,-0.7095,-0.7401,-0.7665,-0.7665,-0.9314,-1.074,-1.108,-1.2248,-1.3121,-1.3207,-1.2978,-1.267,-1.2338,-1.2305,-1.2305,-1.2305,-1.2305,-1.2305,-1.2305,-1.2305,-1.2305,-1.2305,-1.2305,-1.2305,-1.2305,-1.2586,-1.2732,-1.2732,-1.3702,-1.4522,-1.5199,-1.5199,-1.5685,1.1597,1.1326,1.0912,1.0912,1.0669,1.0392,1.0228,0.0,1.0814,1.0626,1.068,1.072,1.0613,1.068,1.0968,1.1597,1.1234,0.0,0.0,0.0,0.0,0.9094,0.9008,0.0,0.8081,0.7988,0.7988,0.7988,0.7988,0.7988,0.7988,0.7988,0.7988,0.7988,0.7988,0.7988,0.7988,0.6681,0.5979,0.5979,0.3819,0.2514,0.1962,0.1159,0.0454,0.0,0.0,0.0,0.0,0.0,0.0,0.0,0.0,0.0,0.0,0.0,0.0,0.0,0.0,0.0,-0.0151,-0.0958,-0.1611,-0.2163,-0.3015,-0.452,-0.6132,-0.6667,-0.7214,-0.7529,-0.7176,-0.7095,-0.7095,-0.7095,-0.7095,-0.7095,-0.7095,-0.7095,-0.7095,-0.7095,-0.7095,-0.7095,-0.7095,-0.8313,-0.9444,-0.9879,-1.1394,-1.2484,-1.2563,-1.2798,-1.2766,-1.2345,-1.2305,-1.2305,-1.2305,-1.2305,-1.2305,-1.2305,-1.2305,-1.2305,-1.2305,-1.2305,-1.2305,-1.2305,-1.2305,-1.2305,-1.2305,-1.2879,-1.3491,-1.4127,-1.4879,-1.5508,0.0,1.1329,1.1329,1.1329,1.1162,1.0962,1.0962,0.0,0.0,1.0593,1.0821,1.0909,1.0673,1.0847,1.1102,1.1395,1.1032,0.0,0.0,1.0564,0.0,0.0,0.9215,0.8949,0.8074,0.7988,0.7988,0.7988,0.7988,0.7988,0.7988,0.7988,0.7988,0.7988,0.7988,0.7988,0.7988,0.6781,0.6129,0.6129,0.477,0.3466,0.2264,0.2163,0.141,0.0151,0.0151,0.0101,0.0,0.0,0.0,0.0,0.0,0.0,0.0,0.0,0.0,0.0,0.0,0.0,0.0,0.0,-0.0857,-0.1862,-0.1862,-0.3715,-0.5822,-0.5558,-0.6444,-0.7373,-0.7083,-0.7051,-0.7095,-0.7095,-0.7095,-0.7095,-0.7095,-0.7095,-0.7095,-0.7095,-0.7095,-0.7095,-0.7095,-0.7183,-0.7621,-0.8715,-0.9879,-1.0789,-1.1307,-1.2307,-1.2739,-1.2142,-1.2077,-1.2077,-1.2077,-1.2224,-1.2305,-1.2305,-1.2305,-1.2305,-1.2305,-1.2305,-1.2305,-1.2305,-1.2305,-1.2305,-1.2305,-1.2305,-1.2305,-1.2335,-1.4163,-1.5021,1.0818,0.0,1.0794,1.0794,1.0747,1.0693,0.0,0.0,0.0,0.0,0.0,0.0,0.0,0.0,0.0,1.1977,0.0,1.1909,1.1936,1.1091,0.0,1.0189,0.9441,0.8685,0.8035,0.7988,0.7988,0.7988,0.7988,0.7988,0.7988,0.7988,0.7988,0.7988,0.7988,0.7988,0.7988,0.7686,0.7537,0.7537,0.6179,0.5375,0.5024,0.4017,0.2815,0.1511,0.1511,0.0958,0.0,0.0,0.0,0.0,0.0,0.0,0.0,0.0,0.0,0.0,0.0,0.0,0.0,0.0,-0.0202,-0.0454,-0.0454,-0.2342,-0.4454,-0.4252,-0.5116,-0.6044,-0.5844,-0.6428,-0.7095,-0.7095,-0.7095,-0.7095,-0.7095,-0.7095,-0.7095,-0.7095,-0.7095,-0.7095,-0.7095,-0.7885,-0.8584,-0.8846,-0.9879,-1.0534,-1.0284,-1.0509,-1.0491,-1.0062,-1.0013,-1.0013,-1.0013,-1.1403,-1.2305,-1.2305,-1.2305,-1.2305,-1.2305,-1.2305,-1.2305,-1.2305,-1.2305,-1.2305,-1.2305,-1.2305,-1.2305,-1.2305,-1.2769,-1.3382,1.1122,1.0846,1.0593,1.0593,1.0593,1.0593,1.0593,0.0,0.0,0.0,0.0,0.0,0.0,0.0,0.0,0.0,1.2124,0.0,0.0,0.0,1.1262,1.0915,1.0422,0.9657,0.8482,0.8382,0.8283,0.8041,0.7988,0.7988,0.7988,0.7988,0.7988,0.7988,0.7988,0.7988,0.7988,0.7988,0.7988,0.7988,0.7285,0.6581,0.5979,0.5272,0.4168,0.2914,0.2914,0.2163,0.0907,0.0907,0.0555,0.0,0.0,0.0,0.0,0.0,0.0,0.0,0.0,0.0,0.0,0.0,0.0,0.0,0.0,-0.1032,-0.2265,-0.2764,-0.379,-0.4721,-0.4623,-0.5041,-0.562,-0.6204,-0.6337,-0.647,-0.7007,-0.7095,-0.7095,-0.7095,-0.7095,-0.7095,-0.7095,-0.7621,-0.8057,-0.8057,-0.9056,-0.9643,-0.9187,-0.9578,-0.9732,-0.9342,-0.9296,-0.9296,-0.9296,-1.0314,-1.1136,-1.1583,-1.162,-1.1811,-1.2268,-1.2305,-1.2305,-1.2305,-1.2305,-1.2305,-1.2305,-1.2305,-1.2305,-1.2305,-1.2732,-1.32,1.1622,1.1189,1.0742,1.0694,1.0656,1.0593,1.0593,0.0,0.0,0.0,0.0,0.0,0.0,1.1129,0.0,0.0,0.0,0.0,1.3239,1.2917,1.24,1.1769,1.1501,1.0832,0.941,0.9118,0.8775,0.8333,0.8283,0.8237,0.7988,0.7988,0.7988,0.7988,0.7988,0.7988,0.7988,0.7988,0.7988,0.7988,0.7988,0.7385,0.6282,0.6282,0.5575,0.4316,0.4316,0.3566,0.2314,0.2063,0.131,0.0303,0.0101,0.0,0.0,0.0,0.0,0.0,0.0,0.0,0.0,0.0,0.0,0.0,0.0,0.0,-0.019,-0.1233,-0.2472,-0.3469,-0.3363,-0.3616,-0.415,-0.5179,-0.5536,-0.5938,-0.6871,-0.7095,-0.7095,-0.7095,-0.7095,-0.7095,-0.7095,-0.7095,-0.7095,-0.7095,-0.7973,-0.8453,-0.8011,-0.881,-0.9258,-0.8889,-0.8841,-0.8841,-0.8841,-0.8841,-0.9253,-1.0297,-1.0484,-1.0938,-1.1811,-1.1848,-1.1922,-1.207,-1.207,-1.215,-1.2305,-1.2305,-1.2305,-1.2335,-1.3135,-1.3491,1.1685,1.1471,1.1316,1.109,1.0814,1.0593,0.0,0.0,0.0,0.0,0.0,0.0,0.0,1.157,1.2,0.0,0.0,1.4048,1.4597,1.3865,1.3345,1.3498,1.158,1.0538,1.1361,1.0435,0.9801,0.9706,0.9706,0.9217,0.8038,0.7988,0.7988,0.7988,0.7988,0.7988,0.7988,0.7988,0.7988,0.7988,0.7988,0.7889,0.7686,0.7686,0.6983,0.5677,0.5677,0.4922,0.3615,0.2464,0.1862,0.1561,0.0454,0.0,0.0,0.0,0.0,0.0,0.0,0.0,0.0,0.0,0.0,0.0,0.0,0.0,-0.0047,-0.0233,-0.1143,-0.2111,-0.2104,-0.3573,-0.5179,-0.5359,-0.6115,-0.6874,-0.7051,-0.7095,-0.7095,-0.7095,-0.7095,-0.7095,-0.7095,-0.7095,-0.7095,-0.7095,-0.7272,-0.7248,-0.6986,-0.7067,-0.7067,-0.6793,-0.6756,-0.6756,-0.6756,-0.6756,-0.7173,-0.8194,-0.9069,-0.9593,-0.975,-0.975,-1.0158,-1.1013,-1.1013,-1.1465,-1.2305,-1.2305,-1.2305,-1.2305,-1.2445,-1.2519,1.2189,1.1984,1.1851,1.1912,1.1632,0.0,0.0,0.0,0.0,0.0,0.0,0.0,0.0,0.0,1.2298,1.2899,0.0,1.4235,1.4663,1.4598,1.4453,1.4345,1.3264,1.2484,1.2339,1.1804,1.1365,1.1068,1.0391,0.9756,0.9118,0.8382,0.7988,0.7988,0.7988,0.7988,0.7988,0.7988,0.7988,0.7988,0.7988,0.7988,0.7988,0.7988,0.7686,0.7083,0.7083,0.6329,0.5022,0.442,0.3317,0.1963,0.131,0.0656,0.0,0.0,0.0,0.0,0.0,0.0,0.0,0.0,0.0,0.0,0.0,0.0,0.0,0.0,-0.0407,-0.0807,-0.0807,-0.1657,-0.2818,-0.4107,-0.4819,-0.5575,-0.6827,-0.7095,-0.7095,-0.7095,-0.7095,-0.7095,-0.7095,-0.7095,-0.7095,-0.7095,-0.7095,-0.6991,-0.6739,-0.6702,-0.6586,-0.633,-0.63,-0.63,-0.63,-0.63,-0.6718,-0.7744,-0.8732,-0.9296,-0.9296,-0.9296,-0.9523,-0.9965,-1.0002,-1.049,-1.1502,-1.1502,-1.1768,-1.2305,-1.2305,-1.2305,1.259,1.2406,1.2249,1.2433,0.0,0.0,0.0,0.0,0.0,0.0,0.0,0.0,0.0,1.2143,0.0,1.332,1.3908,1.4396,1.4683,1.517,1.5351,1.4997,1.4682,1.4238,1.3505,1.3162,1.2823,1.2382,1.1458,1.0632,1.0047,0.9019,0.8333,0.7988,0.7988,0.7988,0.7988,0.7988,0.7988,0.7988,0.7988,0.7988,0.7988,0.7988,0.7988,0.7988,0.7988,0.7434,0.6431,0.6129,0.4772,0.2916,0.2614,0.1662,0.0454,0.0101,0.0,0.0,0.0,0.0,0.0,0.0,0.0,0.0,0.0,0.0,0.0,0.0,0.0,0.0,0.0,-0.0225,-0.0897,-0.2726,-0.3392,-0.4103,-0.5885,-0.6514,-0.6694,-0.6694,-0.6918,-0.7095,-0.7095,-0.7095,-0.7095,-0.7095,-0.7068,-0.6953,-0.6732,-0.6668,-0.6549,-0.6327,-0.63,-0.63,-0.63,-0.63,-0.6641,-0.7403,-0.8161,-0.858,-0.858,-0.858,-0.8694,-0.8955,-0.9183,-0.9782,-1.0783,-1.105,-1.1545,-1.2305,-1.2305,-1.2305,1.259,1.2539,1.2423,1.2203,0.0,0.0,0.0,0.0,0.0,0.0,0.0,0.0,0.0,1.2822,1.334,1.3928,1.4559,1.5048,1.5291,1.5605,1.5758,1.573,1.4657,1.4364,1.5486,1.4513,1.3776,1.3776,1.368,1.2571,1.0145,0.9899,0.9266,0.8038,0.7988,0.7988,0.7988,0.7988,0.7988,0.7988,0.7988,0.7988,0.7988,0.7988,0.7988,0.7988,0.7988,0.7939,0.7736,0.6531,0.5879,0.5577,0.4318,0.3015,0.1711,0.0454,0.0,0.0,0.0,0.0,0.0,0.0,0.0,0.0,0.0,0.0,0.0,0.0,0.0,0.0,0.0,-0.0852,-0.1701,-0.1879,-0.2769,-0.3659,-0.3837,-0.473,-0.5536,-0.5536,-0.6384,-0.7095,-0.7095,-0.7095,-0.7095,-0.7095,-0.6984,-0.6842,-0.6722,-0.6576,-0.647,-0.6317,-0.63,-0.63,-0.63,-0.63,-0.6338,-0.6412,-0.649,-0.6528,-0.6528,-0.6528,-0.6949,-0.7897,-0.8808,-0.9782,-1.0783,-1.1731,-1.2224,-1.2305,-1.2305,-1.2305,1.259,1.272,1.286,1.2766,0.0,0.0,0.0,0.0,0.0,0.0,0.0,0.0,0.0,0.0,1.3674,1.403,1.4626,1.5109,1.5357,1.5645,1.5784,1.5784,1.5384,1.5289,1.573,1.5337,1.5092,1.5092,1.4364,1.3488,1.2469,1.1648,1.0583,0.9266,0.9266,0.8825,0.7988,0.7988,0.7988,0.7988,0.7988,0.7988,0.7988,0.7988,0.7988,0.7988,0.7988,0.7988,0.7939,0.7434,0.6731,0.5879,0.4518,0.3665,0.3065,0.1762,0.126,0.1109,0.0303,0.0,0.0,0.0,0.0,0.0,0.0,0.0,0.0,0.0,0.0,0.0,0.0,-0.0359,-0.0852,-0.1612,-0.2147,-0.2681,-0.3436,-0.3972,-0.4283,-0.4283,-0.4639,-0.5174,-0.5935,-0.6027,-0.6269,-0.689,-0.692,-0.6841,-0.659,-0.6549,-0.6457,-0.6317,-0.63,-0.63,-0.63,-0.63,-0.63,-0.63,-0.63,-0.63,-0.63,-0.63,-0.649,-0.6872,-0.7249,-0.8232,-0.9857,-1.0233,-1.1062,-1.2305,-1.2305,-1.2305,1.259,1.2773,1.2981,0.0,0.0,0.0,0.0,0.0,0.0,0.0,1.392,0.0,0.0,0.0,0.0,1.4206,1.4768,1.5271,1.5478,1.5705,1.5784,1.5784,1.5784,1.5784,1.5784,1.5784,1.5784,1.5784,1.4997,1.4316,1.392,1.3006,1.194,1.0632,1.0194,0.9752,0.9213,0.8825,0.8825,0.9213,0.8821,0.8432,0.7988,0.7988,0.7988,0.7988,0.7988,0.7988,0.7988,0.7988,0.7434,0.6481,0.517,0.4618,0.4468,0.3116,0.2614,0.2465,0.1109,0.0653,0.0548,0.0147,0.024,0.0517,0.0138,0.0272,0.0494,0.009,0.0,0.0,0.0,0.0,-0.0225,-0.1031,-0.121,-0.1478,-0.2281,-0.2769,-0.3037,-0.3037,-0.3347,-0.3883,-0.4688,-0.484,-0.5061,-0.5769,-0.6075,-0.6207,-0.6012,-0.6271,-0.6409,-0.631,-0.63,-0.63,-0.63,-0.63,-0.63,-0.63,-0.63,-0.63,-0.63,-0.63,-0.63,-0.63,-0.6606,-0.7442,-0.8846,-0.9145,-1.0013,-1.136,-1.136,-1.1508,1.259,1.2598,1.2686,0.0,0.0,0.0,0.0,0.0,0.0,0.0,0.0,1.3942,1.4348,1.4362,0.0,1.4472,1.5116,1.5649,1.5792,1.5784,1.5784,1.5784,1.5784,1.5784,1.5784,1.5784,1.5784,1.5784,1.5784,1.5242,1.3974,1.3926,1.3295,1.1945,1.0681,1.0632,1.1896,1.0632,1.0632,1.1896,1.0632,0.9312,0.8041,0.7988,0.7988,0.7988,0.7988,0.7988,0.7988,0.7988,0.7988,0.7885,0.6528,0.6027,0.5874,0.4516,0.4014,0.3814,0.2463,0.2036,0.1803,0.0479,0.0846,0.161,0.0407,0.0852,0.1567,0.0359,0.0,0.0,0.0,0.0,0.0,0.0,0.0,0.0,0.0,-0.0942,-0.179,-0.179,-0.2769,-0.357,-0.3568,-0.3599,-0.3595,-0.3594,-0.4336,-0.4899,-0.4897,-0.5674,-0.6261,-0.6261,-0.6261,-0.6261,-0.63,-0.63,-0.63,-0.63,-0.63,-0.63,-0.63,-0.63,-0.63,-0.63,-0.7288,-0.7783,-0.7821,-0.8803,-0.9296,-0.9296,-0.9296,-0.982,1.259,1.2727,0.0,1.2956,0.0,0.0,0.0,0.0,0.0,0.0,1.4333,1.4202,1.4549,1.4579,0.0,1.4825,1.5206,1.5529,1.5772,1.5784,1.5784,1.5784,1.5784,1.5784,1.5784,1.5784,1.5784,1.5784,1.5784,1.5635,1.5242,1.5242,1.4657,1.3349,1.2952,1.2474,1.1901,1.1512,1.1512,1.1896,1.1507,1.0681,0.9365,0.8432,0.7988,0.7988,0.7988,0.7988,0.7982,0.7874,0.7879,0.782,0.7331,0.7101,0.6954,0.5643,0.5111,0.4919,0.3572,0.3127,0.3055,0.2668,0.2778,0.2983,0.2653,0.2191,0.1746,0.1389,0.0673,0.0,0.0,0.0,0.0,0.0,0.0,0.0,0.0,-0.0269,-0.0539,-0.0539,-0.0807,-0.1338,-0.2192,-0.2349,-0.2571,-0.328,-0.3633,-0.3782,-0.3638,-0.3882,-0.4062,-0.4062,-0.4062,-0.4373,-0.5118,-0.5157,-0.5512,-0.6261,-0.63,-0.63,-0.63,-0.63,-0.63,-0.63,-0.6606,-0.7099,-0.7783,-0.8084,-0.8613,-0.9296,-0.9296,-0.9448,1.2547,1.2683,0.0,1.3085,1.3777,1.4373,1.4202,0.0,0.0,0.0,1.4601,1.4482,1.4956,1.5055,1.5092,1.5147,1.546,1.5723,1.5792,1.5784,1.5784,1.5784,1.5784,1.5784,1.5784,1.5784,1.5784,1.5784,1.5784,1.5784,1.5784,1.5784,1.5439,1.4704,1.4166,1.3734,1.3451,1.2963,1.2914,1.3303,1.2773,1.205,1.1158,0.9539,0.8495,0.7897,0.784,0.7865,0.7858,0.7767,0.7726,0.7719,0.7634,0.76,0.7503,0.6691,0.6402,0.6214,0.4883,0.4389,0.4305,0.3789,0.3937,0.4219,0.3762,0.3438,0.3129,0.2637,0.2013,0.1433,0.1433,0.1433,0.121,0.0225,0.0,0.0,0.0,0.0,0.0,0.0,0.0,-0.0223,-0.0959,-0.1077,-0.1312,-0.1916,-0.2372,-0.2782,-0.3051,-0.3085,-0.3085,-0.3085,-0.3085,-0.3357,-0.4021,-0.4062,-0.4334,-0.5002,-0.504,-0.5237,-0.5628,-0.6064,-0.63,-0.63,-0.63,-0.6606,-0.7215,-0.7215,-0.7518,-0.8122,-0.8122,-0.8313,1.2527,0.0,0.0,1.3346,1.3807,0.0,1.4739,1.4469,1.4289,1.4976,0.0,1.469,1.5424,1.5589,1.5535,1.543,1.58,1.6028,1.5839,1.5784,1.5784,1.5784,1.5784,1.5784,1.5784,1.5784,1.5784,1.5784,1.5784,1.5784,1.5784,1.5758,1.5744,1.5744,1.4595,1.4582,1.5704,1.4582,1.4458,1.5357,1.4118,1.3332,1.2939,1.0982,0.9324,0.7928,0.7702,0.76,0.7597,0.7584,0.758,0.7577,0.7563,0.7556,0.7556,0.7556,0.7556,0.7366,0.6178,0.5735,0.5557,0.4314,0.4669,0.5356,0.4239,0.4596,0.5179,0.4061,0.3703,0.3614,0.3614,0.3614,0.3037,0.0852,0.0225,0.0135,0.0045,0.0,0.0,0.0,0.0,0.0,0.0,0.0,0.0,0.0,-0.0835,-0.1802,-0.2695,-0.2812,-0.2812,-0.2812,-0.2812,-0.2851,-0.2968,-0.2968,-0.3007,-0.3085,-0.3085,-0.3552,-0.453,-0.5589,-0.6183,-0.63,-0.63,-0.63,-0.63,-0.63,-0.63,-0.63,-0.63,-0.6795,1.2816,1.2643,0.0,0.0,1.3917,1.42,1.4635,1.4406,1.4144,1.4296,1.4405,1.4609,1.5037,1.528,1.5483,1.5685,1.5785,1.5846,1.5818,1.5784,1.5784,1.5784,1.5784,1.5784,1.5784,1.5784,1.5784,1.5784,1.5784,1.5784,1.5784,1.5611,1.5491,1.5491,1.5035,1.4871,1.515,1.4917,1.4884,1.5102,1.4773,1.4088,1.2927,1.1513,1.0184,0.8937,0.798,0.76,0.759,0.7468,0.7421,0.7407,0.7288,0.7193,0.7193,0.7193,0.7193,0.7148,0.6876,0.6764,0.6739,0.6424,0.6539,0.6694,0.6425,0.5891,0.5359,0.509,0.433,0.3614,0.3614,0.3614,0.3481,0.2948,0.2102,0.1165,0.0225,0.0,0.0,0.0,0.0,0.0,0.0,0.0,0.0,0.0,-0.0197,-0.0432,-0.0627,-0.0666,-0.0666,-0.0666,-0.0666,-0.1019,-0.184,-0.1919,-0.2268,-0.3046,-0.3085,-0.3202,-0.3435,-0.4491,-0.5431,-0.63,-0.63,-0.63,-0.63,-0.63,-0.63,-0.63,-0.63,-0.6416,1.2665,0.0,0.0,1.3615,0.0,1.4208,1.4615,1.437,1.4088,1.4088,1.4315,1.4609,1.4955,1.5129,1.5237,1.5391,1.5418,1.5418,1.5418,1.5418,1.5418,1.5418,1.5418,1.5418,1.5418,1.5418,1.5418,1.5418,1.5418,1.5418,1.5418,1.5271,1.519,1.519,1.5089,1.5008,1.5008,1.5008,1.4941,1.475,1.475,1.4317,1.3467,1.174,1.0617,0.9935,0.8766,0.8238,0.8189,0.7517,0.7261,0.7251,0.7129,0.7095,0.7095,0.7095,0.7095,0.7095,0.7095,0.7095,0.7095,0.7095,0.7095,0.7095,0.7095,0.6694,0.6204,0.6204,0.5755,0.5262,0.5262,0.5262,0.5129,0.4596,0.3527,0.2503,0.1879,0.1254,0.085,0.0841,0.0394,0.0,0.0,0.0,0.0,0.0,0.0,0.0,0.0,0.0,0.0,0.0,0.0,-0.0236,-0.0784,-0.0824,-0.1058,-0.1565,-0.1604,-0.1839,-0.2347,-0.2932,-0.3713,-0.4766,-0.4766,-0.504,-0.555,-0.555,-0.5786,-0.63,-0.63,-0.63,1.2489,0.0,1.2749,1.3558,1.3892,0.0,1.4524,1.4328,1.4088,1.4088,1.4444,1.4801,1.4881,1.5102,1.5225,1.5053,1.5008,1.5008,1.5008,1.5008,1.5008,1.5008,1.5008,1.5008,1.5008,1.5008,1.5008,1.5008,1.5008,1.5008,1.5008,1.4961,1.4928,1.4928,1.4881,1.4861,1.4861,1.4861,1.4689,1.4442,1.4442,1.4315,1.4053,1.2214,1.1248,1.1011,0.974,0.9065,0.8803,0.7841,0.7272,0.7095,0.7095,0.7095,0.7095,0.7095,0.7095,0.7095,0.7095,0.7095,0.7095,0.7095,0.7095,0.7095,0.7095,0.7095,0.7095,0.7095,0.7095,0.7095,0.7095,0.7095,0.6874,0.5938,0.4954,0.4103,0.3703,0.2815,0.2089,0.2088,0.1251,0.0424,0.0081,0.0159,0.0196,0.0039,0.0,0.0,0.0,0.0,0.0,0.0,0.0,0.0,0.0,0.0,0.0,0.0,0.0,-0.0392,-0.1293,-0.1333,-0.1723,-0.2539,-0.2929,-0.3552,-0.4414,-0.4414,-0.496,-0.6022,-0.5996,-0.6063,0.0,0.0,1.3202,0.0,1.3501,1.3774,0.0,0.0,1.4088,0.0,1.5057,1.5612,1.4737,1.5549,1.608,1.5136,1.5008,1.5008,1.5008,1.5008,1.5008,1.5008,1.5008,1.5008,1.5008,1.5008,1.5008,1.5008,1.5008,1.5008,1.5008,1.4716,1.4583,1.4583,1.4335,1.4202,1.4202,1.4202,1.4188,1.4142,1.4142,1.4122,1.4088,1.3776,1.3089,1.2032,1.088,0.9792,0.889,0.8715,0.8061,0.7095,0.7095,0.7095,0.7095,0.7095,0.7095,0.7095,0.7095,0.7095,0.7095,0.7095,0.7095,0.7095,0.7095,0.7095,0.7095,0.7095,0.7095,0.7095,0.7095,0.7095,0.7051,0.6918,0.6738,0.6065,0.4059,0.3481,0.3328,0.3217,0.2896,0.2108,0.0317,0.0786,0.1058,0.0157,0.0,0.0,0.0,0.0,0.0,0.0,0.0,0.0,0.0,0.0,0.0,0.0,0.0,-0.0079,-0.0196,-0.0196,-0.0275,-0.0392,-0.2189,-0.3163,-0.3318,-0.3318,-0.3865,-0.4919,-0.4776,-0.5222,1.2649,1.2825,1.3008,0.0,1.3173,1.344,1.3768,1.3841,1.3888,1.4055,1.5042,1.5745,1.5261,1.6166,1.6849,1.6357,1.6272,1.6272,1.6272,1.5768,1.5383,1.5383,1.4845,1.4519,1.4519,1.4519,1.4519,1.4519,1.4519,1.4519,1.4519,1.4349,1.4282,1.4282,1.4155,1.4088,1.4088,1.4088,1.4088,1.4088,1.4088,1.4088,1.4088,1.4088,1.3822,1.3245,1.2072,1.1252,1.0783,1.0139,0.9144,0.8189,0.8794,0.8663,0.8189,0.8834,0.8663,0.8105,0.8105,0.7665,0.7095,0.7095,0.7095,0.7095,0.7095,0.7095,0.7095,0.7095,0.7095,0.7095,0.7095,0.7095,0.7095,0.7095,0.7095,0.6827,0.5797,0.5041,0.4377,0.3551,0.3236,0.2808,0.1881,0.2112,0.2268,0.18,0.1721,0.1721,0.1721,0.1254,0.0902,0.0902,0.0353,0.0,0.0,0.0,0.0,0.0,0.0,0.0,0.0,0.0,0.0,0.0,-0.0901,-0.1643,-0.2268,-0.2268,-0.2797,-0.3791,-0.3749,-0.3964,0.0,0.0,1.2722,1.2804,1.3058,1.3287,0.0,0.0,1.3696,1.3915,1.4856,1.5681,1.6052,1.6764,1.7302,1.7302,1.7302,1.7302,1.7302,1.6601,1.6108,1.6108,1.5179,1.4496,1.4496,1.425,1.4088,1.4088,1.4088,1.4088,1.4088,1.4088,1.4088,1.4088,1.4088,1.4088,1.4088,1.4088,1.4088,1.4088,1.4088,1.4088,1.4088,1.4088,1.4088,1.4039,1.316,1.2589,1.2242,1.1381,1.0351,0.9405,1.0269,1.0096,0.9449,1.0308,1.0053,0.9323,0.9323,0.8536,0.7577,0.7577,0.7356,0.7095,0.7095,0.7095,0.7095,0.7095,0.7095,0.7095,0.7095,0.7095,0.7095,0.7095,0.7095,0.7095,0.7095,0.6373,0.5353,0.4086,0.3873,0.3748,0.3202,0.3318,0.3396,0.3124,0.3085,0.3085,0.3085,0.2464,0.1996,0.1996,0.1254,0.0784,0.0784,0.0549,0.0392,0.0392,0.0157,0.0,0.0,0.0,0.0,0.0,0.0,-0.0392,-0.1176,-0.1176,-0.1703,-0.2717,-0.2661,-0.2801,0.0,1.221,0.0,1.2832,1.3143,0.0,0.0,0.0,1.377,1.3648,1.4536,1.5692,1.6993,1.7261,1.7302,1.7302,1.7302,1.7302,1.7302,1.7253,1.722,1.722,1.6273,1.5621,1.5621,1.4692,1.4088,1.4088,1.4088,1.4088,1.4088,1.4088,1.4088,1.4088,1.4088,1.4088,1.4088,1.4088,1.4088,1.4088,1.4088,1.4088,1.4088,1.4088,1.4088,1.4088,1.4039,1.3336,1.2285,1.2242,1.1552,1.0524,1.0567,1.0567,1.0524,1.0567,1.0567,1.0524,1.0524,0.9749,0.8803,0.8803,0.8013,0.7095,0.7095,0.7095,0.7095,0.7095,0.7095,0.7095,0.7095,0.7095,0.7095,0.7095,0.7095,0.7095,0.7095,0.6837,0.6296,0.5228,0.5608,0.5473,0.3435,0.3943,0.4256,0.324,0.3085,0.3085,0.3085,0.3046,0.3007,0.3007,0.2968,0.2929,0.2929,0.2074,0.1528,0.1528,0.0549,0.0,0.0,0.0,0.0,0.0,0.0,-0.0039,-0.0079,-0.0079,-0.062,-0.166,-0.1474,-0.1937,0.0,0.0,0.0,1.3135,1.3338,1.3557,1.3389,1.3638,1.3923,1.4087,1.4421,1.5184,1.6693,1.7734,1.863,1.9313,1.9432,1.9432,1.9432,1.8829,1.839,1.839,1.7415,1.6723,1.6723,1.6363,1.6165,1.6165,1.6165,1.6165,1.6165,1.5504,1.5137,1.5137,1.4454,1.4088,1.4088,1.4088,1.4088,1.4088,1.4088,1.4088,1.4088,1.4088,1.4088,1.4088,1.4088,1.3864,1.347,1.347,1.2772,1.1772,1.2559,1.2382,1.1772,1.2559,1.2339,1.1681,1.1681,1.0956,0.9879,0.9148,0.8627,0.8105,0.7316,0.7095,0.7095,0.7095,0.7095,0.7095,0.7095,0.7095,0.7095,0.7095,0.7028,0.696,0.696,0.6844,0.6544,0.6078,0.6152,0.6064,0.5276,0.5473,0.5589,0.5198,0.5157,0.5157,0.5157,0.4569,0.4139,0.4139,0.3513,0.3085,0.3085,0.2773,0.2579,0.2579,0.2189,0.1683,0.1058,0.102,0.0706,0.0,0.0,0.0,0.0,0.0,-0.0192,-0.0553,-0.0512,-0.0676,1.2505,0.0,0.0,0.0,0.0,1.4153,1.3692,1.4032,1.4493,1.4577,1.4691,1.5256,1.6804,1.7894,1.8964,2.0168,2.0507,2.0605,2.0605,2.0001,1.952,1.952,1.855,1.7868,1.7868,1.7536,1.7302,1.7302,1.7302,1.7302,1.7302,1.6601,1.6067,1.5703,1.5019,1.4657,1.4657,1.4985,1.5186,1.5186,1.4817,1.4657,1.4615,1.425,1.4088,1.4088,1.4088,1.4088,1.4088,1.4088,1.3646,1.2984,1.3779,1.3603,1.2984,1.3779,1.3597,1.2899,1.2899,1.2163,1.1042,1.0308,0.9792,0.9318,0.8532,0.8269,0.8185,0.7793,0.7709,0.7621,0.7183,0.7095,0.7085,0.7038,0.6953,0.6859,0.6797,0.6695,0.6593,0.6532,0.6399,0.63,0.63,0.63,0.63,0.63,0.63,0.63,0.63,0.567,0.5237,0.5237,0.4608,0.4178,0.4178,0.3826,0.3632,0.3632,0.3279,0.2812,0.2113,0.2113,0.1761,0.1058,0.1058,0.0862,0.0549,0.0157,0.0,0.0,0.0,0.0,0.0,0.0,0.0,0.0,0.0,0.0,1.4158,1.4778,1.5504,1.5107,1.5355,1.6048,1.7445,1.7683,1.8192,1.9617,2.0244,2.0566,2.0566,2.0576,2.0586,2.0586,1.9678,1.9045,1.9045,1.8069,1.7415,1.7415,1.7415,1.7415,1.7415,1.7366,1.683,1.5764,1.5715,1.5707,1.5707,1.6732,1.726,1.7269,1.6201,1.5707,1.5632,1.4594,1.4117,1.4075,1.4082,1.4088,1.4088,1.4088,1.4088,1.4088,1.4088,1.4088,1.4088,1.4088,1.4088,1.4088,1.4088,1.3336,1.237,1.2328,1.1552,1.0654,1.0611,1.0611,1.0351,0.9279,0.8934,0.8671,0.7441,0.7132,0.7099,0.6956,0.6876,0.6834,0.6536,0.6508,0.6548,0.6504,0.6395,0.63,0.63,0.63,0.63,0.63,0.63,0.63,0.63,0.63,0.63,0.63,0.63,0.63,0.63,0.5354,0.4766,0.4766,0.3787,0.3163,0.3163,0.3163,0.3124,0.3085,0.3085,0.2618,0.1645,0.0588,0.0038,0.0,0.0,0.0,1.3921,0.0,0.0,0.0,0.0,0.0,1.4533,1.4989,1.551,1.5749,1.5965,1.6351,1.7193,1.7602,1.804,1.8821,1.9355,1.9639,1.9639,1.9902,2.0088,2.0088,2.013,2.0157,2.0157,1.9883,1.9678,1.9678,1.9678,1.9678,1.9678,1.8638,1.753,1.6453,1.6078,1.5912,1.5912,1.6223,1.634,1.634,1.6068,1.5568,1.4882,1.4852,1.4446,1.3733,1.3995,1.4088,1.4088,1.4088,1.4088,1.4088,1.4088,1.4088,1.4088,1.4088,1.4088,1.4088,1.4088,1.3864,1.347,1.2589,1.2109,1.1681,1.0869,1.0611,1.0524,1.0221,1.0139,0.9846,0.8588,0.8259,0.8002,0.7003,0.6678,0.6576,0.6528,0.7014,0.7243,0.651,0.6327,0.63,0.63,0.63,0.63,0.63,0.63,0.63,0.63,0.63,0.63,0.63,0.63,0.63,0.63,0.6025,0.5867,0.5867,0.5589,0.5079,0.4295,0.4256,0.3904,0.3124,0.3085,0.2968,0.2696,0.1645,0.0765,0.0,0.0,0.0,0.0,0.0,0.0,0.0,0.0,0.0,1.4983,1.5358,1.5885,1.628,1.6401,1.6689,1.7419,1.7611,1.7776,1.828,1.8584,1.8877,1.9238,1.9502,1.9648,1.9648,1.9873,2.0067,2.0067,2.0067,2.0067,2.0067,2.0067,2.0067,2.0067,1.8787,1.7767,1.7137,1.6847,1.6699,1.6699,1.7151,1.7367,1.7375,1.6917,1.6434,1.588,1.5615,1.5166,1.4634,1.5002,1.5182,1.5148,1.4886,1.4489,1.4088,1.4088,1.4088,1.4088,1.4088,1.4088,1.4088,1.4088,1.4088,1.3997,1.3294,1.3069,1.2942,1.2254,1.204,1.1955,1.1472,1.0888,1.0211,0.9326,0.9109,0.8894,0.8053,0.7809,0.7751,0.7682,0.8082,0.8122,0.7138,0.7249,0.7403,0.6984,0.6907,0.6795,0.6377,0.63,0.63,0.63,0.63,0.63,0.63,0.63,0.63,0.63,0.63,0.63,0.63,0.63,0.6025,0.5392,0.5354,0.5079,0.4453,0.4453,0.4217,0.3748,0.2735,0.168,0.0655,0.021,0.0,0.0,0.0,0.0,0.0,1.5948,0.0,1.5372,1.5751,1.6335,1.6573,1.6615,1.6899,1.7746,1.7589,1.7471,1.7894,1.7978,1.8257,1.9033,1.9189,1.9219,1.9219,1.9258,1.9287,1.9287,1.9287,1.9287,1.9287,1.9287,1.9287,1.9287,1.8341,1.7787,1.7787,1.775,1.7723,1.7723,1.8695,1.915,1.9141,1.8174,1.7686,1.7538,1.6577,1.6048,1.5997,1.6434,1.6637,1.6583,1.5984,1.5155,1.425,1.413,1.4088,1.4088,1.4088,1.4088,1.4088,1.4088,1.4088,1.4088,1.4088,1.4088,1.4088,1.4088,1.4062,1.3811,1.2729,1.1495,1.0445,0.9974,0.9873,0.9817,0.9551,0.9462,0.9446,0.9337,0.9372,0.9221,0.8309,0.8765,0.9036,0.8122,0.7974,0.7668,0.6756,0.6644,0.6644,0.6644,0.6644,0.6606,0.649,0.6451,0.6416,0.63,0.63,0.63,0.63,0.63,0.63,0.63,0.63,0.63,0.63,0.63,0.5825,0.4882,0.3699,0.2623,0.1708,0.0674,0.0173,0.0,0.0,0.0,1.5864,1.5825,0.0,1.5239,1.5621,1.606,1.6126,1.623,1.6474,1.7012,1.7043,1.7134,1.7582,1.7775,1.7932,1.8218,1.851,1.8724,1.8724,1.9072,1.9287,1.9287,1.9287,1.9287,1.9287,1.9287,1.9287,1.9287,1.873,1.843,1.843,1.8113,1.7941,1.7941,1.8148,1.8262,1.8262,1.8045,1.753,1.681,1.6811,1.6396,1.5712,1.5989,1.6136,1.6144,1.5986,1.5729,1.5296,1.4454,1.4088,1.4088,1.4088,1.4088,1.4088,1.4088,1.4088,1.4088,1.4088,1.4088,1.4088,1.4088,1.3921,1.3599,1.3151,1.284,1.2366,1.1212,1.0913,1.0651,0.9604,0.9319,0.9347,0.9306,0.9933,1.0447,1.026,0.9707,0.9226,0.9031,0.8993,0.896,0.8732,0.8732,0.8732,0.8732,0.8732,0.8389,0.7591,0.7518,0.7176,0.6377,0.63,0.63,0.63,0.63,0.63,0.63,0.63,0.63,0.63,0.63,0.6183,0.5983,0.4025,0.2955,0.2613,0.1699,0.1206,1.6987,1.6982,1.6776,1.6269,1.6149,0.0,0.0,1.5465,1.5785,1.6095,1.5835,1.5838,1.6732,1.6751,1.6741,1.7164,1.7387,1.7506,1.7605,1.7988,1.8286,1.8286,1.8516,1.8652,1.8652,1.8652,1.8652,1.8652,1.8652,1.8652,1.8652,1.8437,1.8286,1.8286,1.8115,1.8008,1.8008,1.8008,1.8008,1.8008,1.8008,1.7759,1.7295,1.7441,1.7245,1.683,1.7134,1.7304,1.7286,1.696,1.6805,1.6593,1.549,1.4918,1.4687,1.445,1.4042,1.3647,1.3647,1.3647,1.3647,1.3647,1.3647,1.3647,1.3647,1.3547,1.3327,1.3066,1.3018,1.279,1.1955,1.1759,1.157,1.0942,1.0801,1.0801,1.0801,1.1205,1.1545,1.1545,1.1136,1.0645,1.0121,1.004,0.9895,0.9372,0.9296,0.9296,0.9296,0.9296,0.9107,0.8618,0.8542,0.8351,0.7821,0.7783,0.7595,0.7099,0.7061,0.6834,0.6338,0.63,0.63,0.63,0.63,0.63,0.63,0.5216,0.4368,0.3661,0.2686,0.1917,1.7244,1.7306,1.7164,1.6535,1.6421,1.626,0.0,0.0,0.0,1.5855,1.5331,1.5148,1.6327,1.6282,1.6189,1.6607,1.6908,1.7063,1.6982,1.7444,1.7795,1.7871,1.7959,1.8008,1.8008,1.7939,1.793,1.8008,1.7939,1.793,1.8008,1.8008,1.8008,1.8008,1.8008,1.8008,1.8008,1.8008,1.8008,1.8008,1.8008,1.8008,1.8008,1.8008,1.8008,1.8027,1.8334,1.8481,1.844,1.7978,1.7788,1.775,1.6506,1.5762,1.54,1.5009,1.4265,1.3516,1.3666,1.3627,1.3516,1.3666,1.3627,1.347,1.3408,1.3277,1.3053,1.2784,1.2697,1.2643,1.2365,1.2305,1.2305,1.2305,1.2305,1.2305,1.2305,1.2305,1.2305,1.2305,1.2305,1.2033,1.1242,1.1087,1.0826,1.0013,0.9863,0.9863,0.9863,0.9863,0.9787,0.9599,0.9593,0.9523,0.9334,0.9296,0.8955,0.8122,0.8084,0.7706,0.6911,0.6683,0.649,0.63,0.63,0.6412,0.6606,0.6374,0.5755,0.4709,0.37,0.2717,1.7387,1.7306,1.706,1.6116,1.6193,1.6149,1.4819,0.0,1.5045,1.4694,0.0,1.4627,1.5199,0.0,0.0,1.5834,1.6382,1.6609,1.6192,1.6655,1.7133,1.7429,1.7783,1.8008,1.8008,1.7676,1.7607,1.7978,1.7666,1.7617,1.7988,1.8008,1.8008,1.8008,1.8008,1.8008,1.8008,1.8008,1.8008,1.8008,1.8008,1.8008,1.8008,1.8008,1.8008,1.8008,1.8057,1.8076,1.8052,1.7988,1.816,1.834,1.663,1.5986,1.5904,1.5863,1.525,1.4569,1.5396,1.5134,1.4569,1.5396,1.5134,1.4408,1.416,1.3511,1.2777,1.2438,1.2351,1.2345,1.2311,1.2305,1.2305,1.2305,1.2305,1.2305,1.2305,1.2305,1.2305,1.2305,1.2305,1.2261,1.215,1.2114,1.2077,1.1966,1.1966,1.1966,1.1966,1.1966,1.162,1.0714,1.064,1.0265,0.9372,0.9296,0.9258,0.9145,0.915,0.9069,0.8955,0.8084,0.7215,0.63,0.63,0.6756,0.7633,0.6718,0.6064,0.5617,0.4745,0.4087,1.7361,1.7514,1.7464,1.6454,1.6601,1.6579,1.5137,1.4963,1.505,1.4843,0.0,0.0,0.0,0.0,0.0,0.0,1.5708,1.5887,1.5669,1.5935,1.6275,1.6668,1.6848,1.6996,1.7119,1.7219,1.7263,1.7256,1.7488,1.7649,1.7637,1.7881,1.8008,1.8008,1.8008,1.8008,1.8008,1.8008,1.8008,1.8008,1.8008,1.8008,1.8008,1.8008,1.8008,1.8008,1.8008,1.8008,1.8008,1.8008,1.8115,1.8177,1.7444,1.6954,1.6683,1.6449,1.5755,1.4993,1.5389,1.5287,1.4993,1.5426,1.5287,1.4933,1.4827,1.4525,1.4027,1.3309,1.3091,1.2989,1.2445,1.2703,1.3091,1.3091,1.3557,1.3983,1.3983,1.352,1.3091,1.3091,1.2659,1.2305,1.2305,1.2305,1.2305,1.2305,1.2305,1.2305,1.2305,1.2305,1.215,1.1731,1.1657,1.1508,1.1062,1.1025,1.0795,1.019,0.9631,0.9296,0.9296,0.8884,0.8466,0.8046,0.805,0.8237,0.8656,0.8237,0.7845,0.7389,0.5933,0.4792,1.7406,1.7593,1.7618,1.6764,1.6814,1.6721,1.54,1.5214,1.5269,1.5137,1.493,0.0,0.0,0.0,0.0,0.0,0.0,1.541,1.5153,1.531,1.5623,1.5992,1.6251,1.6491,1.6759,1.688,1.6908,1.6835,1.7223,1.7414,1.7359,1.7748,1.7983,1.7933,1.7983,1.8008,1.8008,1.8008,1.8008,1.8008,1.8008,1.8008,1.8008,1.8008,1.8008,1.8008,1.8008,1.8008,1.8008,1.8008,1.8008,1.8008,1.8008,1.777,1.7381,1.7077,1.6393,1.5623,1.5869,1.5983,1.5983,1.5983,1.5799,1.5587,1.5587,1.5411,1.5057,1.4314,1.4099,1.3954,1.3273,1.3593,1.4099,1.4099,1.4665,1.5199,1.5199,1.4629,1.4099,1.4099,1.3557,1.3091,1.3091,1.2659,1.2305,1.2305,1.2305,1.2305,1.2305,1.2305,1.2305,1.2305,1.2305,1.2305,1.2305,1.2305,1.1996,1.1279,1.0533,1.0013,0.9707,0.9707,0.9599,0.9296,0.9296,0.9448,0.9707,0.9448,0.9247,0.911,0.713,0.57,1.7729,1.7498,1.7294,1.6835,1.66,1.6295,1.5323,1.544,1.5647,1.5178,1.544,1.5767,1.5778,0.0,0.0,0.0,0.0,0.0,0.0,1.4819,1.5246,1.5577,1.637,1.7061,1.7513,1.6813,1.6562,1.714,1.6778,1.6728,1.7169,1.7714,1.7947,1.7818,1.7927,1.8008,1.8008,1.8008,1.8008,1.8008,1.8008,1.8008,1.8008,1.8008,1.8008,1.8008,1.8008,1.8008,1.8008,1.8008,1.8008,1.8008,1.8008,1.7983,1.7959,1.7949,1.7364,1.6671,1.7613,1.7906,1.7906,1.7906,1.7285,1.6567,1.6567,1.593,1.5199,1.5163,1.5163,1.5128,1.5128,1.5128,1.5163,1.5163,1.5163,1.5199,1.5199,1.5163,1.5163,1.5163,1.5128,1.5128,1.5128,1.3557,1.2305,1.2305,1.2305,1.2305,1.2305,1.2305,1.2305,1.2305,1.2305,1.2305,1.2305,1.2305,1.2298,1.2261,1.2224,1.1774,1.0789,1.0746,1.0303,0.9334,0.9296,0.9782,1.0746,0.9782,0.9739,1.0473,0.8293,0.7009,1.8497,1.9246,1.9639,1.7975,1.7928,1.7811,1.5972,1.592,1.6075,1.5433,1.5672,1.5908,1.5586,0.0,0.0,0.0,0.0,0.0,0.0,1.4722,1.4878,1.5512,1.5791,1.5825,1.5624,1.6224,1.6495,1.6163,1.6748,1.6979,1.6748,1.7464,1.7784,1.7537,1.786,1.8008,1.8008,1.8008,1.8008,1.8008,1.8008,1.8008,1.8008,1.8008,1.8008,1.8008,1.8008,1.8008,1.8008,1.8008,1.8008,1.8008,1.8008,1.8008,1.8008,1.8008,1.7794,1.7569,1.7906,1.8008,1.8008,1.8008,1.7794,1.7535,1.7535,1.7285,1.6906,1.6289,1.6149,1.5965,1.5376,1.5649,1.6149,1.6149,1.6611,1.7044,1.7044,1.6576,1.6149,1.6149,1.5623,1.5199,1.5199,1.4657,1.3991,1.331,1.2703,1.2305,1.2305,1.2305,1.2305,1.2305,1.2305,1.2556,1.3171,1.3846,1.3947,1.3273,1.3237,1.2799,1.1842,1.1774,1.162,1.1285,1.1285,1.1434,1.1774,1.1434,1.1334,1.1423,0.9862,0.8669,1.9507,2.027,2.0683,1.9235,1.9222,1.9053,1.7102,1.7022,1.7164,1.6532,1.6629,1.6846,1.6948,0.0,0.0,0.0,0.0,0.0,0.0,1.4898,1.4924,1.531,1.5419,1.5488,1.5495,1.5875,1.6041,1.5813,0.0,0.0,0.0,1.7604,1.8071,1.7864,1.8356,1.8598,1.8598,1.8829,1.8911,1.8911,1.8911,1.8911,1.8911,1.8911,1.8911,1.8911,1.8911,1.8911,1.8911,1.8911,1.8754,1.8496,1.8821,1.8754,1.8428,1.811,1.8008,1.8008,1.8008,1.8008,1.8008,1.8008,1.8008,1.8008,1.8008,1.8008,1.7862,1.7285,1.7104,1.6966,1.6332,1.6645,1.7104,1.7104,1.7579,1.8008,1.8008,1.7535,1.7104,1.7104,1.6611,1.6193,1.6193,1.5904,1.5367,1.4378,1.3738,1.3339,1.3339,1.3339,1.3339,1.3339,1.3339,1.3593,1.4171,1.4843,1.4914,1.4279,1.4243,1.3954,1.3339,1.2989,1.2806,1.2806,1.2482,1.2305,1.2305,1.2305,1.2204,1.2011,1.101,1.0178]}]]